     2.11           OBSERVATION DATA    G (GPS)             RINEX VERSION / TYPE
teqc 2010Oct21 OPUS Account 20111028 14:53:18UTC            PGM / RUN BY / DATE
X 1525                                                      MARKER NAME
3032                                                        MARKER NUMBER
CSMIDDLETON NGS                                             OBSERVER / AGENCY
4624K01648 TRIMBLE NETR5 4.41                               REC # / TYPE / VERS
12611996 TRM41249.00 NONE                                   ANT # / TYPE
  -758903.1173 -5559208.4904  3023099.6079                  APPROX POSITION XYZ
        2.0000        0.0000        0.0000                  ANTENNA: DELTA H/E/N
     1     1                                                WAVELENGTH FACT L1/2
     5    L1    L2    C1    P1    P2                        # / TYPES OF OBSERV
    15                                                      LEAP SECONDS
  2011     8    22     0     0    0.0000000     GPS         TIME OF FIRST OBS
                                                            END OF HEADER
 11  8 22  0  0  0.0000000  0  9G25G10G04G17G12G05G30G09G02
 129328233.53116 100775292.15316  24610351.594                    24610363.859
 109991451.41018  85707723.47556  20930653.570                    20930662.086
 112193954.72618  87423993.25856  21349785.398                    21349794.359
 120622134.80017  93991349.32017  22953628.484                    22953637.645
 114290145.46017  89057318.50117  21748692.344                    21748700.734
 117843260.44217  91825974.84617  22424811.492                    22424821.305
 128069853.71516  99794765.32253  24370891.195                    24370901.367
 122439576.51017  95407540.93954  23299482.438                    23299492.031
 108463926.24118  84517483.56456  20639981.766                    20639987.961
 11  8 22  0  0 30.0000000  0  9G25G10G04G17G12G05G30G09G02
 129225243.598 6 100695040.338 6  24590752.930                    24590765.484
 109976352.924 8  85695958.43946  20927780.164                    20927788.645
 112266736.449 8  87480706.26345  21363635.328                    21363644.258
 120671117.498 7  94029517.649 7  22962949.383                    22962959.047
 114220229.811 8  89002838.808 7  21735387.641                    21735395.637
 117746790.554 7  91750803.614 7  22406453.852                    22406463.285
 127964796.461 6  99712902.58143  24350900.031                    24350910.094
 122512674.046 7  95464499.99544  23313391.828                    23313402.504
 108456125.564 8  84511405.12546  20638497.375                    20638502.957
 11  8 22  0  1  0.0000000  0  9G25G10G04G17G12G05G30G09G02
 129122364.333 6 100614874.732 6  24571176.453                    24571187.875
 109961870.430 8  85684673.40546  20925024.156                    20925032.738
 112339706.773 8  87537566.22646  21377521.211                    21377530.297
 120720240.997 7  94067795.689 7  22972297.406                    22972306.895
 114150682.824 7  88948646.386 7  21722153.352                    21722161.461
 117650552.997 7  91675813.400 7  22388140.680                    22388149.746
 127859917.239 6  99631178.60943  24330942.031                    24330951.707
 122586021.204 7  95521653.55844  23327350.039                    23327359.746
 108448640.422 8  84505572.56146  20637073.055                    20637078.902
 11  8 22  0  1 30.0000000  0  9G25G10G04G17G12G05G30G09G02
 129019598.048 6 100534797.140 6  24551619.602                    24551631.934
 109948004.842 8  85673869.07046  20922385.773                    20922394.137
 112412863.086 8  87594571.11645  21391442.352                    21391451.391
 120769505.793 7  94106183.835 7  22981671.977                    22981681.746
 114081506.687 7  88894742.944 7  21708989.633                    21708997.414
 117554550.336 7  91601006.235 7  22369871.273                    22369881.426
 127755218.657 6  99549595.34443  24311018.445                    24311028.543
 122659614.374 7  95578998.81044  23341353.578                    23341364.535
 108441469.476 8  84499984.82746  20635708.039                    20635714.289
 11  8 22  0  2  0.0000000  0  9G25G10G04G17G12G05G30G09G02
 128916947.241 6 100454809.531 6  24532085.578                    24532098.086
 109934757.038 8  85663546.12646  20919864.289                    20919872.965
 112486203.307 8  87651719.30445  21405398.617                    21405407.551
 120818912.799 7  94144682.795 7  22991073.414                    22991083.883
 114012704.207 8  88841130.664 7  21695896.984                    21695905.273
 117458785.855 7  91526384.664 7  22351648.273                    22351657.883
 127650703.488 6  99468155.02543  24291129.031                    24291139.473
 122733450.280 6  95636533.22044  23355404.781                    23355414.520
 108434612.075 8  84494641.41446  20634403.547                    20634409.348
 11  8 22  0  2 30.0000000  0  9G25G10G04G17G12G05G30G09G02
 128814414.428 6 100374913.882 6  24512574.719                    24512586.430
 109922127.850 8  85653705.21846  20917461.398                    20917469.887
 112559725.180 8  87709009.05646  21419389.617                    21419398.293
 120868462.445 7  94183292.881 7  23000502.328                    23000511.949
 113944277.523 7  88787811.204 7  21682875.828                    21682883.574
 117363262.488 7  91451950.950 7  22333470.523                    22333480.602
 127546374.570 6  99386859.80143  24271276.688                    24271286.668
 122807525.482 7  95694254.09844  23369500.328                    23369510.832
 108428067.222 8  84489541.54246  20633157.930                    20633163.688
 11  8 22  0  3  0.0000000  0  9G25G10G04G17G12G05G30G09G02
 128712001.697 6 100295111.804 6  24493086.758                    24493098.344
 109910117.501 8  85644346.52646  20915175.828                    20915184.098
 112633426.191 8  87766438.39045  21433414.266                    21433423.188
 120918155.018 6  94222014.342 7  23009959.000                    23009968.504
 113876228.884 7  88734786.321 7  21669926.813                    21669934.344
 117267982.746 7  91377707.108 7  22315339.773                    22315349.012
 127442234.335 6  99305711.60743  24251459.438                    24251469.188
 122881836.295 7  95752158.55044  23383641.445                    23383652.164
 108421832.971 8  84484683.70346  20631971.578                    20631977.598
 11  8 22  0  3 30.0000000  0  9G25G10G04G17G12G05G30G09G02
 128609711.974 6 100215405.577 6  24473620.531                    24473633.133
 109898727.462 8  85635471.18346  20913008.336                    20913016.996
 112707304.478 8  87824005.87245  21447472.867                    21447481.387
 120967991.303 7  94260847.807 6  23019442.500                    23019452.297
 113808561.466 7  88682058.497 7  21657049.688                    21657057.684
 117172950.199 7  91303655.850 7  22297255.203                    22297265.039
 127338285.862 6  99224712.82943  24231679.031                    24231688.727
 122956379.559 7  95810244.14544  23397826.758                    23397837.090
 108415909.079 8  84480067.70346  20630843.969                    20630850.352
 11  8 22  0  4  0.0000000  0  9G25G10G04G17G12G05G30G09G02
 128507547.948 6 100135797.351 6  24454180.086                    24454192.066
 109887959.005 8  85627080.20246  20910959.141                    20910967.770
 112781358.310 8  87881710.13245  21461564.469                    21461573.629
 121017972.336 7  94299794.055 7  23028953.328                    23028963.152
 113741277.555 7  88629629.505 7  21644245.781                    21644253.914
 117078167.528 7  91229799.310 7  22279218.664                    22279228.605
 127234532.190 6  99143865.87543  24211935.102                    24211944.672
 123031151.890 7  95868508.23444  23412055.422                    23412065.969
 108410294.819 8  84475692.96846  20629775.961                    20629781.988
 11  8 22  0  4 30.0000000  0  9G25G10G04G17G12G05G30G09G02
 128405511.689 6 100056288.629 6  24434762.305                    24434774.695
 109877812.233 8  85619173.63746  20909027.977                    20909036.598
 112855584.947 8  87939549.06545  21475689.430                    21475698.746
 121068098.306 7  94338853.209 6  23038491.859                    23038502.180
 113674379.346 7  88577501.063 7  21631515.688                    21631523.934
 116983637.612 7  91156139.733 7  22261229.805                    22261239.539
 127130975.689 6  99063172.56343  24192229.055                    24192238.230
 123106149.570 7  95926947.89744  23426327.078                    23426337.730
 108404988.218 8  84471557.97346  20628766.164                    20628772.242
 11  8 22  0  5  0.0000000  0  9G25G10G04G17G12G05G30G09G02
 128303606.071 6  99976881.738 6  24415370.695                    24415382.559
 109868288.161 8  85611752.30846  20907215.992                    20907224.199
 112929982.597 8  87997521.24445  21489847.125                    21489855.938
 121118370.110 7  94378026.026 6  23048058.797                    23048068.707
 113607869.801 7  88525675.474 7  21618859.227                    21618867.297
 116889363.606 7  91082679.554 7  22243290.258                    22243299.453
 127027619.440 6  98982635.28743  24172561.695                    24172570.480
 123181369.734 7  95985560.94444  23440641.680                    23440652.172
 108399989.152 8  84467662.61846  20627814.773                    20627820.988
 11  8 22  0  5 30.0000000  0  9G25G10G04G17G12G05G30G09G02
 128201833.612 6  99897578.579 6  24396003.508                    24396015.934
 109859387.417 8  85604816.68246  20905522.195                    20905530.703
 113004549.122 8  88055625.03145  21504036.773                    21504045.395
 121168788.338 7  94417312.922 6  23057652.969                    23057662.734
 113541751.177 8  88474154.501 7  21606277.578                    21606285.113
 116795348.550 7  91009421.165 7  22225399.953                    22225409.297
 126924466.102 6  98902256.12343  24152930.625                    24152941.188
 123256808.692 7  96044344.47144  23454996.953                    23455007.832
 108395296.450 8  84464005.99046  20626921.836                    20626927.586
 11  8 22  0  6  0.0000000  0  9G25G10G04G17G12G05G30G09G02
 128100196.655 6  99818381.032 6  24376662.680                    24376675.352
 109851110.382 8  85598367.07946  20903947.109                    20903955.473
 113079282.174 8  88113858.57645  21518257.609                    21518266.793
 121219353.393 7  94456714.242 6  23067275.609                    23067285.000
 113476025.765 7  88422939.917 7  21593770.344                    21593778.137
 116701595.041 7  90936366.574 7  22207558.961                    22207568.328
 126821518.479 6  98822037.28543  24133340.656                    24133350.855
 123332463.094 7  96103295.89644  23469393.797                    23469403.699
 108390908.797 8  84460587.05546  20626086.688                    20626092.801
 11  8 22  0  6 30.0000000  0  9G25G10G04G17G12G05G30G09G02
 127998697.906 6  99739291.169 6  24357348.695                    24357361.090
 109843458.187 8  85592404.35546  20902491.086                    20902499.398
 113154180.000 8  88172220.51745  21532510.359                    21532519.332
 121270065.936 7  94496230.479 6  23076925.648                    23076935.203
 113410696.281 8  88372033.847 7  21581338.297                    21581346.531
 116608106.345 7  90863518.318 7  22189768.570                    22189778.234
 126718779.516 6  98741981.03743  24113790.453                    24113800.160
 123408329.497 7  96162412.49644  23483830.688                    23483841.199
 108386825.227 8  84457405.07146  20625309.828                    20625315.672
 11  8 22  0  7  0.0000000  0  9G25G10G04G17G12G05G30G09G02
 127897339.710 7  99660310.820 6  24338059.828                    24338072.902
 109836431.092 7  85586928.71946  20901153.594                    20901162.313
 113229240.267 8  88230709.04045  21546793.852                    21546802.770
 121320926.416 7  94535861.997 6  23086604.234                    23086613.820
 113345764.970 8  88321438.048 7  21568982.516                    21568990.414
 116514885.038 7  90790878.431 7  22172029.320                    22172038.352
 126616251.762 6  98662089.36943  24094279.398                    24094289.402
 123484404.453 7  96221691.60544  23498307.375                    23498317.781
 108383044.232 8  84454458.85746  20624590.133                    20624595.941
 11  8 22  0  7 30.0000000  0  9G25G10G04G17G12G05G30G09G02
 127796124.614 7  99581441.986 6  24318800.500                    24318812.473
 109830029.710 8  85581940.66546  20899935.500                    20899943.813
 113304460.713 8  88289322.38645  21561107.836                    21561116.832
 121371935.679 7  94575609.450 6  23096310.883                    23096320.539
 113281233.960 7  88271154.155 7  21556702.523                    21556710.227
 116421934.395 7  90718449.442 7  22154341.164                    22154350.867
 126513937.959 6  98582364.39943  24074810.266                    24074819.938
 123560684.598 7  96281130.61044  23512823.008                    23512833.531
 108379565.086 8  84451747.84946  20623927.953                    20623933.980
 11  8 22  0  8  0.0000000  0  9G25G10G04G17G12G05G30G09G02
 127695055.147 7  99502686.647 6  24299567.016                    24299579.637
 109824254.505 7  85577440.52446  20898836.617                    20898844.789
 113379839.380 8  88348059.01445  21575451.977                    21575461.016
 121423094.062 7  94615473.125 6  23106046.000                    23106055.223
 113217105.879 8  88221184.234 7  21544499.250                    21544507.133
 116329257.092 7  90646233.433 7  22136705.531                    22136714.879
 126411841.037 6  98502808.42443  24055382.273                    24055392.051
 123637166.405 7  96340726.75344  23527377.266                    23527387.520
 108376386.595 7  84449271.11846  20623322.984                    20623329.402
 11  8 22  0  8 30.0000000  0  9G25G10G04G17G12G05G30G09G02
 127594134.141 7  99424046.982 6  24280362.109                    24280374.816
 109819106.336 8  85573428.99246  20897856.789                    20897865.195
 113455374.387 8  88406917.45845  21589826.109                    21589834.766
 121474402.509 7  94655453.726 6  23115809.336                    23115818.926
 113153383.419 8  88171530.387 7  21532373.133                    21532380.965
 116236856.369 7  90574232.949 7  22119121.422                    22119131.020
 126309964.026 6  98423423.79043  24035995.148                    24036005.078
 123713846.604 7  96400477.49344  23541969.047                    23541979.293
 108373508.165 8  84447028.20146  20622775.578                    20622781.199
 11  8 22  0  9  0.0000000  0  9G25G10G04G17G12G05G30G09G02
 127493363.876 7  99345524.776 6  24261186.703                    24261198.867
 109814585.805 7  85569906.53346  20896996.320                    20897005.063
 113531063.412 8  88465895.90545  21604229.188                    21604238.082
 121525861.555 7  94695551.664 6  23125601.828                    23125611.289
 113090068.841 8  88122194.364 7  21520324.852                    21520332.922
 116144734.862 7  90502450.044 7  22101591.703                    22101601.129
 126208309.482 6  98344212.52043  24016650.680                    24016660.809
 123790721.634 7  96460380.08044  23556597.484                    23556607.910
 108370928.251 7  84445017.89046  20622284.484                    20622290.480
 11  8 22  0  9 30.0000000  0  9G25G10G04G17G12G05G30G09G02
 127392747.167 7  99267122.212 6  24242039.273                    24242051.328
 109810693.325 7  85566873.44746  20896255.680                    20896263.957
 113606904.529 8  88524992.87845  21618660.781                    21618670.059
 121577471.674 7  94735767.323 6  23135422.906                    23135432.387
 113027164.332 7  88073177.878 7  21508354.406                    21508362.617
 116052895.503 7  90430886.980 7  22084114.922                    22084124.445
 126106880.372 6  98265176.95043  23997349.234                    23997359.004
 123867788.258 6  96520431.90944  23571262.484                    23571273.762
 108368645.933 8  84443239.47246  20621849.953                    20621856.125
 11  8 22  0 10  0.0000000  0  9G25G10G04G17G12G05G30G09G02
 127292286.733 7  99188841.436 6  24222922.578                    24222934.801
 109807429.249 8  85564330.04346  20895634.570                    20895643.063
 113682896.024 8  88584207.02045  21633121.875                    21633130.633
 121629233.557 7  94776101.244 6  23145272.977                    23145282.195
 112964672.885 8  88024483.255 7  21496462.656                    21496470.539
 115961341.587 7  90359546.348 7  22066692.820                    22066702.750
 126005679.674 6  98186319.33043  23978090.844                    23978101.047
 123945043.512 7  96580630.74644  23585963.695                    23585974.504
 108366660.714 8  84441692.55947  20621472.586                    20621478.277
 11  8 22  0 10 30.0000000  0  9G25G10G04G17G12G05G30G09G02
 127191984.658 6  99110684.049 6  24203835.891                    24203847.508
 109804793.455 7  85562276.20946  20895133.094                    20895141.281
 113759035.271 8  88643536.29045  21647610.703                    21647619.457
 121681147.310 7  94816553.502 6  23155152.195                    23155161.531
 112902596.247 8  87976111.849 7  21484650.008                    21484657.777
 115870075.490 7  90288429.997 7  22049325.148                    22049335.039
 125904709.735 6  98107641.54743  23958877.039                    23958887.180
 124022483.091 6  96640973.21143  23600699.945                    23600710.793
 108364970.178 8  84440375.27346  20621150.727                    20621156.902
 11  8 22  0 11  0.0000000  0  9G25G10G04G17G12G05G30G09G02
 127091843.795 6  99032652.291 6  24184779.234                    24184791.414
 109802786.698 8  85560712.53546  20894751.141                    20894759.508
 113835320.353 8  88702979.20445  21662126.828                    21662135.891
 121733214.021 7  94857124.937 6  23165060.172                    23165068.980
 112840937.228 8  87928065.885 7  21472916.641                    21472924.320
 115779100.370 7  90217540.372 7  22032013.391                    22032022.574
 125803973.692 6  98029145.99943  23939708.031                    23939717.527
 124100104.043 6  96701456.98844  23615471.469                    23615482.051
 108363574.005 8  84439287.34746  20620884.992                    20620891.090
 11  8 22  0 11 30.0000000  0  9G25G10G04G17G12G05G30G09G02
 126991866.789 6  98954748.187 6  24165754.484                    24165766.680
 109801409.673 8  85559639.55446  20894489.078                    20894497.414
 113911749.459 8  88762534.33145  21676670.945                    21676679.781
 121785434.068 7  94897815.882 6  23174997.711                    23175006.586
 112779698.054 8  87880347.060 7  21461263.148                    21461270.957
 115688419.183 7  90146879.782 7  22014757.352                    22014766.918
 125703474.452 6  97950834.98043  23920582.938                    23920593.180
 124177902.870 6  96762079.39844  23630276.477                    23630286.691
 108362470.995 8  84438427.85446  20620675.125                    20620681.020
 11  8 22  0 12  0.0000000  0  9G25G10G04G17G12G05G30G09G02
 126892056.184 6  98876973.797 6  24146760.625                    24146772.949
 109800662.500 8  85559057.36146  20894346.867                    20894355.723
 113988320.258 8  88822199.87045  21691241.898                    21691251.145
 121837808.175 7  94938626.845 6  23184963.477                    23184973.242
 112718881.066 8  87832957.219 7  21449690.180                    21449698.055
 115598034.816 7  90076450.499 7  21997558.180                    21997567.059
 125603214.725 6  97872710.58743  23901505.023                    23901514.574
 124255876.279 7  96822837.80444  23645114.164                    23645124.750
 108361660.063 8  84437795.96446  20620520.680                    20620526.801
 11  8 22  0 12 30.0000000  0  9G25G10G04G17G12G05G30G09G02
 126792414.428 6  98799330.945 6  24127799.836                    24127811.371
 109800545.195 8  85558965.97346  20894324.648                    20894332.797
 114065031.001 8  88881974.44845  21705839.672                    21705848.840
 121890336.733 7  94979558.178 6  23194959.164                    23194968.719
 112658488.431 8  87785898.047 7  21438197.773                    21438205.965
 115507950.306 7  90006254.848 7  21980415.070                    21980423.941
 125503197.261 6  97794775.00643  23882472.469                    23882481.352
 124334020.676 7  96883729.46044  23659984.672                    23659995.199
 108361139.857 8  84437390.61746  20620421.758                    20620427.688
 11  8 22  0 13  0.0000000  0  9G25G10G04G17G12G05G30G09G02
 126692944.386 7  98721821.915 6  24108870.906                    24108883.313
 109801058.455 8  85559365.93146  20894422.180                    20894430.746
 114141879.751 8  88941856.56845  21720463.438                    21720472.648
 121943020.563 7  95020610.481 6  23204984.953                    23204994.418
 112598522.582 8  87739171.435 7  21426786.547                    21426794.168
 115418168.369 7  89936294.978 7  21963329.992                    21963339.285
 125403425.011 6  97717030.47943  23863485.234                    23863495.043
 124412332.596 7  96944751.67944  23674886.406                    23674896.762
 108360909.530 8  84437211.13546  20620378.047                    20620383.773
 11  8 22  0 13 30.0000000  0  9G25G10G04G17G12G05G30G09G02
 126593648.574 7  98644448.638 6  24089975.539                    24089987.996
 109802202.097 8  85560257.09446  20894639.906                    20894648.359
 114218864.368 8  89001844.56345  21735112.922                    21735122.375
 121995860.137 7  95061784.140 6  23215039.891                    23215049.930
 112538986.137 8  87692779.420 7  21415457.344                    21415464.973
 115328691.617 7  89866572.916 7  21946303.188                    21946312.609
 125303900.876 6  97639479.28943  23844546.922                    23844556.438
 124490808.965 7  97005902.02244  23689820.445                    23689831.410
 108360968.016 8  84437256.71146  20620389.156                    20620395.039
 11  8 22  0 14  0.0000000  0  9G25G10G04G17G12G05G30G09G02
 126494529.749 7  98567213.292 6  24071113.258                    24071125.480
 109803976.691 8  85561639.91546  20894977.313                    20894985.684
 114295982.810 8  89061936.82445  21749788.391                    21749797.340
 122048855.986 7  95103079.571 6  23225124.906                    23225134.477
 112479881.370 8  87646723.782 7  21404210.195                    21404217.629
 115239523.309 7  89797091.196 7  21929335.000                    21929343.926
 125204627.790 6  97562123.73443  23825656.133                    23825665.105
 124569446.419 7  97067177.86744  23704784.477                    23704795.223
 108361314.220 8  84437526.47446  20620455.055                    20620460.988
 11  8 22  0 14 30.0000000  0  9G25G10G04G17G12G05G30G09G02
 126395590.311 7  98490117.687 6  24052286.070                    24052297.582
 109806382.632 7  85563514.69946  20895435.047                    20895443.609
 114373233.339 8  89122132.01345  21764488.742                    21764497.500
 122102008.738 7  95144497.225 6  23235239.508                    23235249.023
 112421210.389 8  87601006.166 7  21393045.203                    21393053.125
 115150666.120 7  89727851.894 7  21912425.930                    21912435.336
 125105608.375 6  97484965.83043  23806812.781                    23806821.895
 124648241.342 7  97128576.43044  23719778.578                    23719789.309
 108361946.876 7  84438019.45346  20620575.367                    20620581.535
 11  8 22  0 15  0.0000000  0  9G25G10G04G17G12G05G30G09G02
 126296832.758 7  98413163.830 6  24033493.117                    24033504.637
 109809419.275 8  85565880.93046  20896013.258                    20896021.473
 114450613.555 7  89182428.26145  21779213.453                    21779222.609
 122155318.502 7  95186037.258 6  23245383.664                    23245393.625
 112362975.414 8  87555628.287 7  21381963.539                    21381971.160
 115062123.071 7  89658857.391 7  21895576.914                    21895586.359
 125006845.214 6  97408007.61543  23788019.117                    23788028.254
 124727190.424 6  97190095.11143  23734802.289                    23734813.520
 108362864.551 8  84438734.52446  20620749.906                    20620755.938
 11  8 22  0 15 30.0000000  0  9G25G10G04G17G12G05G30G09G02
 126198259.896 7  98336353.874 6  24014735.430                    24014746.516
 109813087.076 7  85568738.97546  20896710.922                    20896719.543
 114528121.782 7  89242824.25845  21793963.367                    21793972.254
 122208786.485 7  95227700.576 6  23255558.547                    23255567.926
 112305178.866 8  87510592.036 7  21370965.180                    21370973.031
 114973896.654 7  89590109.596 7  21878787.945                    21878796.777
 124908341.589 6  97331251.61443  23769274.523                    23769283.078
 124806290.340 7  97251731.33844  23749855.148                    23749865.578
 108364066.543 8  84439671.13546  20620978.844                    20620984.703
 11  8 22  0 16  0.0000000  0  9G25G10G04G17G12G05G30G09G02
 126099874.358 7  98259689.888 6  23996013.445                    23996024.176
 109817386.407 7  85572089.11146  20897529.477                    20897538.125
 114605756.146 8  89303318.53945  21808735.898                    21808745.613
 122262412.857 7  95269487.306 6  23265762.922                    23265772.945
 112247822.948 7  87465899.130 7  21360050.641                    21360058.355
 114885989.951 7  89521610.941 7  21862059.891                    21862068.844
 124810100.106 7  97254699.89443  23750579.742                    23750588.047
 124885537.740 7  97313482.46144  23764935.039                    23764945.711
 108365551.492 8  84440828.24046  20621261.313                    20621267.254
 11  8 22  0 16 30.0000000  0  9G25G10G04G17G12G05G30G09G02
 126001678.625 7  98183173.814 6  23977327.242                    23977338.465
 109822316.858 7  85575931.03946  20898467.500                    20898476.234
 114683514.359 8  89363909.32245  21823533.180                    21823542.367
 122316198.221 7  95311397.960 6  23275998.234                    23276007.793
 112190909.982 8  87421551.391 7  21349220.570                    21349228.469
 114798405.709 7  89453363.553 7  21845392.742                    21845401.906
 124712123.557 7  97178354.59543  23731935.602                    23731943.734
 124964928.980 7  97375345.69544  23780043.063                    23780053.273
 108367318.182 8  84442204.87746  20621597.352                    20621603.332
 11  8 22  0 17  0.0000000  0  9G25G10G04G17G12G05G30G09G02
 125903675.587 7  98106807.888 6  23958677.648                    23958689.059
 109827878.756 8  85580265.00146  20899525.734                    20899534.344
 114761395.032 7  89424595.53645  21838353.234                    21838362.414
 122370143.179 7  95353432.957 6  23286263.117                    23286273.375
 112134442.175 8  87377550.528 7  21338475.023                    21338482.723
 114711146.970 7  89385369.796 7  21828787.969                    21828797.250
 124614415.029 7  97102218.12743  23713342.266                    23713350.742
 125044460.989 6  97437318.61444  23795177.320                    23795187.906
 108369365.804 8  84443800.43446  20621987.172                    20621993.008
 11  8 22  0 17 30.0000000  0  9G25G10G04G17G12G05G30G09G02
 125805867.899 7  98030594.204 6  23940065.148                    23940077.348
 109834072.243 8  85585091.11346  20900704.750                    20900713.008
 114839396.015 8  89485375.49845  21853196.180                    21853205.992
 122424248.110 7  95395592.595 6  23296559.391                    23296569.094
 112078422.046 8  87333898.486 7  21327814.578                    21327821.809
 114624216.775 7  89317632.050 7  21812245.672                    21812254.633
 124516977.357 7  97026292.76743  23694800.195                    23694808.977
 125124130.312 7  97499398.50944  23810338.273                    23810349.449
 108371693.082 8  84445613.89246  20622429.969                    20622436.180
 11  8 22  0 18  0.0000000  0  9G25G10G04G17G12G05G30G09G02
 125708257.986 7  97954534.626 6  23921490.813                    23921502.703
 109840897.051 8  85590409.15546  20902003.305                    20902011.617
 114917515.299 7  89546247.65145  21868061.898                    21868071.086
 122478513.636 7  95437877.385 7  23306885.500                    23306895.672
 112022851.409 8  87290596.704 7  21317240.109                    21317247.523
 114537617.435 7  89250152.115 7  21795766.688                    21795775.555
 124419813.306 7  96950580.58043  23676310.258                    23676319.707
 125203933.679 7  97561582.85444  23825523.813                    23825535.188
 108374298.822 8  84447644.34746  20622925.969                    20622931.754
 11  8 22  0 18 30.0000000  0  9G25G10G04G17G12G05G30G09G02
 125610848.331 7  97878631.084 7  23902954.305                    23902966.191
 109848352.859 8  85596218.90046  20903422.008                    20903430.766
 114995750.855 7  89607210.39145  21882950.211                    21882958.961
 122532940.421 7  95480287.805 6  23317242.609                    23317252.832
 111967731.983 8  87247646.508 7  21306751.094                    21306759.051
 114451351.858 7  89182932.246 7  21779350.516                    21779359.801
 124322925.406 7  96875083.60043  23657872.828                    23657882.594
 125283867.226 6  97623868.64244  23840734.523                    23840745.934
 108377181.517 8  84449890.61046  20623474.781                    20623480.711
 11  8 22  0 19  0.0000000  0  9G25G10G04G17G12G05G30G09G02
 125513642.026 7  97802886.006 7  23884456.469                    23884468.539
 109856440.185 8  85602520.73046  20904960.906                    20904969.086
 115074101.032 8  89668262.46145  21897859.711                    21897868.684
 122587529.196 7  95522824.477 6  23327630.797                    23327641.121
 111913067.161 7  87205050.561 7  21296348.609                    21296356.840
 114365422.994 7  89115974.754 7  21762998.969                    21763007.813
 124226316.975 6  96799804.39443  23639489.070                    23639498.336
 125363928.038 6  97686253.60144  23855969.664                    23855980.969
 108380340.586 8  84452352.23046  20624075.719                    20624081.684
 11  8 22  0 19 30.0000000  0  9G25G10G04G17G12G05G30G09G02
 125416641.632 7  97727301.377 7  23865997.664                    23866009.742
 109865158.698 8  85609314.39446  20906619.648                    20906628.344
 115152563.983 8  89729402.39945  21912790.336                    21912799.449
 122642280.322 7  95565487.659 6  23338050.023                    23338059.563
 111858858.975 7  87162810.427 7  21286033.156                    21286041.113
 114279833.736 7  89049281.890 7  21746711.461                    21746720.520
 124129990.783 6  96724745.11043  23621159.031                    23621167.949
 125444112.651 6  97748734.99643  23871227.977                    23871239.945
 108383774.792 8  84455028.24646  20624729.102                    20624735.363
 11  8 22  0 20  0.0000000  0  9G25G10G04G17G12G05G30G09G02
 125319849.617 7  97651879.110 7  23847579.000                    23847590.750
 109874507.996 8  85616599.57446  20908399.203                    20908407.551
 115231137.692 8  89790628.65645  21927742.297                    21927751.563
 122697194.033 7  95608277.519 6  23348499.445                    23348509.688
 111805109.204 8  87120927.501 7  21275804.867                    21275812.711
 114194586.459 8  88982855.503 7  21730489.555                    21730498.500
 124033949.314 6  96649907.70543  23602881.781                    23602891.547
 125524417.805 6  97811310.34743  23886510.320                    23886521.547
 108387482.529 8  84457917.39446  20625434.539                    20625440.648
 11  8 22  0 20 30.0000000  0  9G25G10G04G17G12G05G30G09G02
 125223268.628 7  97576621.267 7  23829199.961                    23829211.750
 109884488.145 8  85624376.32646  20910298.219                    20910306.742
 115309820.258 7  89851939.73045  21942715.922                    21942724.410
 122752270.854 7  95651194.497 6  23358980.578                    23358989.633
 111751819.922 7  87079403.398 7  21265664.172                    21265672.152
 114109684.408 7  88916698.121 7  21714333.008                    21714341.930
 123938195.724 6  96575294.61243  23584660.961                    23584670.113
 125604840.130 6  97873976.99043  23901813.344                    23901825.172
 108391462.865 8  84461018.96646  20626192.125                    20626197.871
 11  8 22  0 21  0.0000000  0  9G25G10G04G17G12G05G30G09G02
 125126901.288 7  97501529.906 6  23810861.711                    23810873.555
 109895098.627 8  85632644.24146  20912317.164                    20912325.832
 115388609.652 8  89913334.05645  21957708.578                    21957717.676
 122807511.544 7  95694239.161 6  23369492.367                    23369502.305
 111698993.557 8  87038240.003 7  21255611.820                    21255619.742
 114025130.164 7  88850811.766 7  21698243.141                    21698252.148
 123842732.552 7  96500907.81243  23566494.234                    23566504.219
 125685376.134 6  97936732.20243  23917139.438                    23917150.934
 108395714.488 8  84464331.92246  20627001.133                    20627006.996
 11  8 22  0 21 30.0000000  0  9G25G10G04G17G12G05G30G09G02
 125030750.355 7  97426607.166 6  23792565.398                    23792576.426
 109906339.184 8  85641403.12946  20914456.430                    20914464.828
 115467504.197 7  89974810.30845  21972721.188                    21972730.996
 122862916.524 7  95737411.830 7  23380035.305                    23380045.387
 111646631.971 7  86997438.776 7  21245647.875                    21245655.625
 113940926.438 7  88785198.539 7  21682219.367                    21682228.109
 123747562.846 7  96426749.67243  23548384.297                    23548394.195
 125766022.512 6  97999573.41743  23932485.641                    23932497.918
 108400236.438 8  84467855.52546  20627861.320                    20627867.227
 11  8 22  0 22  0.0000000  0  9G25G10G04G17G12G05G30G09G02
 124934818.505 7  97351855.132 6  23774310.219                    23774321.555
 109918209.888 8  85650653.03546  20916715.258                    20916723.531
 115546502.091 7  90036367.07745  21987754.711                    21987763.750
 122918486.177 7  95780712.799 6  23390610.141                    23390620.246
 111594737.558 8  86957001.580 7  21235772.578                    21235780.480
 113857076.024 7  88719860.604 7  21666263.336                    21666272.297
 123652689.423 7  96352822.40444  23530330.758                    23530339.977
 125846776.050 7  98062498.15244  23947853.102                    23947864.160
 108405027.427 8  84471588.76746  20628773.211                    20628779.469
 11  8 22  0 22 30.0000000  0  9G25G10G04G17G12G05G30G09G02
 124839108.092 7  97277275.614 6  23756097.328                    23756108.352
 109930710.220 8  85660393.55146  20919093.859                    20919102.242
 115625601.208 7  90098002.73645  22002805.977                    22002815.719
 122974220.950 7  95824142.440 7  23401216.750                    23401225.930
 111543311.901 8  86916929.647 7  21225986.258                    21225994.020
 113773581.532 7  88654800.022 7  21650374.719                    21650383.664
 123558114.851 7  96279127.97343  23512334.047                    23512342.637
 125927633.090 7  98125503.52444  23963239.797                    23963251.066
 108410085.909 8  84475530.45146  20629736.117                    20629742.055
 11  8 22  0 23  0.0000000  0  9G25G10G04G17G12G05G30G09G02
 124743622.148 7  97202871.022 6  23737926.141                    23737937.465
 109943839.877 8  85670624.46446  20921592.180                    20921601.195
 115704800.222 7  90159716.22745  22017877.555                    22017886.891
 123030121.506 7  95867701.280 6  23411853.969                    23411863.422
 111492357.801 7  86877225.168 7  21216290.391                    21216298.465
 113690445.727 7  88590018.935 7  21634554.539                    21634563.008
 123463842.311 7  96205668.91944  23494394.391                    23494403.500
 126008590.582 6  98188587.17043  23978645.820                    23978656.672
 108415411.134 8  84479679.97746  20630749.703                    20630755.379
 11  8 22  0 23 30.0000000  0  9G25G10G04G17G12G05G30G09G02
 124648363.255 7  97128643.330 6  23719799.500                    23719810.211
 109957598.525 8  85681345.49946  20924210.531                    20924219.117
 115784096.988 7  90221505.89045  22032966.742                    22032976.875
 123086188.455 7  95911389.755 6  23422522.797                    23422532.656
 111441877.032 7  86837889.518 7  21206684.406                    21206691.750
 113607671.332 7  88525519.465 7  21618803.109                    21618811.871
 123369874.491 7  96132447.27344  23476513.156                    23476521.613
 126089645.019 6  98251746.37743  23994069.781                    23994081.441
 108421001.831 8  84484036.36346  20631813.070                    20631819.137
 11  8 22  0 24  0.0000000  0  9G25G10G04G17G12G05G30G09G02
 124553334.093 7  97054594.657 6  23701715.820                    23701727.086
 109971985.787 8  85692556.35246  20926948.461                    20926957.059
 115863489.800 7  90283370.39645  22048075.156                    22048084.633
 123142422.133 7  95955208.158 6  23433223.992                    23433233.883
 111391871.743 8  86798924.372 7  21197168.516                    21197176.180
 113525261.287 7  88461303.904 7  21603120.820                    21603129.262
 123276214.282 7  96059465.32644  23458689.984                    23458698.910
 126170793.367 7  98314978.74743  24009512.039                    24009523.188
 108426857.030 8  84488598.84946  20632927.227                    20632933.238
 11  8 22  0 24 30.0000000  0  9G25G10G04G17G12G05G30G09G02
 124458537.322 7  96980727.079 6  23683676.453                    23683687.266
 109987001.243 8  85704256.71046  20929805.773                    20929814.023
 115942976.777 7  90345308.27745  22063201.211                    22063210.316
 123198823.224 7  95999157.013 6  23443957.289                    23443966.934
 111342344.207 8  86760331.503 7  21187743.664                    21187751.465
 113443218.356 7  88397374.411 7  21587508.539                    21587517.449
 123182864.544 7  95986725.29843  23440926.039                    23440934.773
 126252031.953 6  98378281.43843  24024971.266                    24024982.492
 108432975.377 8  84493366.39046  20634091.703                    20634097.531
 11  8 22  0 25  0.0000000  0  9G25G10G04G17G12G05G30G09G02
 124363975.519 7  96907042.606 6  23665681.797                    23665693.023
 110002644.352 8  85716446.15746  20932782.438                    20932790.953
 116022556.236 7  90407318.22245  22078344.805                    22078353.660
 123255391.896 7  96043236.463 6  23454721.500                    23454731.414
 111293295.926 8  86722112.070 7  21178410.297                    21178417.758
 113361544.869 8  88333732.793 7  21571966.633                    21571975.348
 123089827.902 7  95914229.22743  23423221.742                    23423230.262
 126333357.579 7  98441651.95944  24040447.328                    24040457.969
 108439355.351 8  84498337.79046  20635305.625                    20635311.477
 11  8 22  0 25 30.0000000  0  9G25G10G04G17G12G05G30G09G02
 124269651.576 7  96833543.466 6  23647733.023                    23647743.711
 110018914.767 8  85729124.39746  20935878.477                    20935887.180
 116102226.590 7  90469398.99645  22093505.352                    22093514.797
 123312128.616 7  96087446.876 6  23465517.820                    23465527.453
 111244729.500 8  86684268.129 7  21169168.094                    21169175.691
 113280243.605 7  88270381.221 7  21556495.656                    21556504.125
 122997107.468 7  95841979.55243  23405577.539                    23405586.844
 126414767.282 6  98505087.96844  24055939.414                    24055950.563
 108445996.303 8  84503512.55346  20636569.586                    20636575.625
 11  8 22  0 26  0.0000000  0  9G25G10G04G17G12G05G30G09G02
 124175568.102 7  96760231.702 6  23629829.164                    23629840.008
 110035811.876 8  85742290.98646  20939093.930                    20939102.066
 116181985.752 7  90531548.96745  22108683.656                    22108692.379
 123369034.022 7  96131788.709 6  23476346.797                    23476356.641
 111196646.614 8  86646800.959 7  21160018.430                    21160025.879
 113199317.526 7  88207321.988 7  21541095.797                    21541104.234
 122904705.925 6  95769978.37844  23387994.055                    23388003.141
 126496257.523 7  98568586.77943  24071446.641                    24071457.555
 108452896.798 8  84508889.55646  20637882.453                    20637888.598
 11  8 22  0 26 30.0000000  0  9G25G10G04G17G12G05G30G09G02
 124081727.864 7  96687109.473 6  23611972.508                    23611983.055
 110053335.376 8  85755945.66546  20942428.883                    20942437.098
 116261832.299 7  90593767.02945  22123877.539                    22123886.609
 123426108.760 7  96176262.478 6  23487208.516                    23487217.738
 111149049.520 8  86609712.324 7  21150960.945                    21150968.500
 113118769.183 7  88144557.100 7  21525767.453                    21525776.500
 122812626.231 6  95698228.02044  23370471.773                    23370481.148
 126577824.979 7  98632145.75644  24086968.344                    24086979.000
 108460055.971 8  84514468.12146  20639244.703                    20639251.227
 11  8 22  0 27  0.0000000  0  9G25G10G04G17G12G05G30G09G02
 123988133.302 7  96614178.684 6  23594161.852                    23594172.551
 110071484.334 8  85770087.71646  20945882.297                    20945890.277
 116341764.272 7  90656051.65745  22139088.336                    22139097.059
 123483353.103 7  96220868.414 6  23498101.359                    23498110.961
 111101939.907 8  86573003.551 7  21141995.984                    21142003.805
 113038601.160 8  88082088.576 7  21510512.344                    21510520.902
 122720870.958 6  95626730.44243  23353011.273                    23353020.684
 126659466.077 6  98695762.11243  24102504.148                    24102515.363
 108467472.021 8  84520246.86246  20640656.195                    20640662.430
 11  8 22  0 27 30.0000000  0  9G25G10G04G17G12G05G30G09G02
 123894787.076 7  96541441.396 7  23576398.023                    23576409.902
 110090258.376 8  85784716.84746  20949454.820                    20949463.367
 116421779.786 7  90718401.39245  22154314.461                    22154323.691
 123540767.104 6  96265606.553 6  23509026.492                    23509035.891
 111055319.748 8  86536676.172 7  21133124.531                    21133132.254
 112958816.279 8  88019918.601 7  21495329.688                    21495338.449
 122629443.001 6  95555487.92044  23335612.680                    23335622.414
 126741177.848 6  98759433.50444  24118053.203                    24118064.973
 108475143.689 8  84526224.77146  20642115.727                    20642122.043
 11  8 22  0 28  0.0000000  0  9G25G10G04G17G12G05G30G09G02
 123801692.068 7  96468899.883 7  23558682.422                    23558693.992
 110109657.331 8  85799832.91846  20953146.453                    20953154.859
 116501877.237 7  90780814.96145  22169556.547                    22169565.703
 123598351.919 6  96310477.766 6  23519984.781                    23519994.363
 111009191.294 8  86500731.941 7  21124346.727                    21124354.199
 112879416.902 8  87958049.012 7  21480219.938                    21480229.121
 122538345.198 7  95484502.66443  23318277.523                    23318287.141
 126822957.120 6  98823157.48943  24133615.586                    24133626.785
 108483070.312 8  84532401.35146  20643624.469                    20643630.512
 11  8 22  0 28 30.0000000  0  9G25G10G04G17G12G05G30G09G02
 123708850.840 7  96396556.126 7  23541015.398                    23541026.813
 110129679.706 8  85815434.77146  20956956.719                    20956964.848
 116582054.941 7  90843291.06845  22184813.547                    22184823.566
 123656107.528 7  96355482.099 6  23530975.813                    23530985.137
 110963556.368 8  86465172.260 7  21115662.539                    21115670.055
 112800405.583 7  87896481.804 7  21465185.086                    21465193.313
 122447580.333 7  95413776.83443  23301005.820                    23301015.289
 126904800.402 6  98886931.35543  24149190.188                    24149201.301
 108491250.383 8  84538775.41946  20645180.820                    20645187.035
 11  8 22  0 29  0.0000000  0  9G25G10G04G17G12G05G30G09G02
 123616265.994 7  96324412.160 7  23523397.102                    23523408.457
 110150324.897 8  85831521.93746  20960885.398                    20960893.457
 116662311.221 7  90905828.40745  22200086.000                    22200095.375
 123714034.583 6  96400620.006 6  23541998.836                    23542008.348
 110918416.719 8  86429998.522 7  21107072.734                    21107080.469
 112721785.013 8  87835219.068 7  21450224.086                    21450232.484
 122357151.125 6  95343312.56744  23283797.563                    23283806.898
 126986704.308 6  98950752.46843  24164775.773                    24164786.469
 108499682.655 8  84545346.01446  20646785.570                    20646791.891
 11  8 22  0 29 30.0000000  0  9G25G10G04G17G12G05G30G09G02
 123523940.499 7  96252470.276 7  23505828.391                    23505840.059
 110171592.473 8  85848094.07746  20964932.156                    20964940.484
 116742644.546 7  90968425.77345  22215373.063                    22215382.176
 123772133.484 6  96445891.836 6  23553053.977                    23553064.664
 110873774.659 8  86395212.509 7  21098577.797                    21098585.379
 112643558.151 8  87774263.118 7  21435337.836                    21435346.016
 122267060.604 7  95273112.22844  23266653.891                    23266662.668
 127068665.999 6  99014618.62743  24180372.555                    24180384.027
 108508366.535 8  84552112.66046  20648438.266                    20648444.375
 11  8 22  0 30  0.0000000  0  9G25G10G04G17G12G05G30G09G02
 123431876.752 7  96180732.345 7  23488308.977                    23488320.203
 110193481.717 8  85865150.63146  20969097.609                    20969106.152
 116823053.001 7  91031081.67645  22230674.086                    22230683.371
 123830404.704 6  96491297.922 6  23564143.172                    23564152.895
 110829631.728 8  86360815.424 7  21090177.328                    21090185.133
 112565727.350 8  87713615.795 7  21420527.109                    21420535.730
 122177311.350 7  95203177.79144  23249575.055                    23249584.625
 127150681.943 6  99078527.03543  24195979.250                    24195991.488
 108517300.135 8  84559073.90846  20650138.203                    20650144.156
 11  8 22  0 30 30.0000000  0  9G25G10G04G17G12G05G30G09G02
 123340077.610 7  96109200.598 6  23470840.266                    23470851.535
 110215992.096 8  85882691.17846  20973381.289                    20973389.773
 116903534.971 7  91093794.88345  22245989.750                    22245998.965
 123888848.488 6  96536838.449 6  23575264.828                    23575273.789
 110785989.763 8  86326808.699 7  21081872.844                    21081880.523
 112488295.069 8  87653279.008 7  21405792.344                    21405801.094
 122087906.217 7  95133511.51444  23232561.992                    23232571.078
 127232748.933 6  99142475.21843  24211596.898                    24211608.531
 108526482.508 8  84566228.99346  20651885.391                    20651891.711
 11  8 22  0 31  0.0000000  0  9G25G10G04G17G12G05G30G09G02
 123248545.566 7  96037876.972 6  23453421.906                    23453433.379
 110239122.689 8  85900715.02546  20977782.898                    20977791.094
 116984088.681 7  91156563.97845  22261318.633                    22261327.598
 123947465.276 6  96582513.847 6  23586419.039                    23586429.520
 110742850.911 8  86293194.022 7  21073663.867                    21073671.625
 112411263.968 8  87593254.821 7  21391133.563                    21391142.313
 121998848.058 7  95064115.60744  23215614.664                    23215623.887
 127314863.582 6  99206460.51644  24227222.383                    24227234.930
 108535912.094 8  84573576.72546  20653679.977                    20653686.195
 11  8 22  0 31 30.0000000  0  9G25G10G04G17G12G05G30G09G02
 123157283.305 7  95966763.566 6  23436055.336                    23436066.922
 110262872.343 8  85919221.25446  20982302.172                    20982310.711
 117064712.465 7  91219387.67945  22276660.781                    22276669.711
 124006255.662 6  96628324.472 6  23597606.398                    23597616.539
 110700216.524 8  86259972.410 7  21065550.695                    21065558.379
 112334636.364 8  87533545.047 7  21376551.883                    21376560.539
 121910139.408 7  94994992.05544  23198734.188                    23198742.727
 127397022.712 6  99270480.48444  24242856.711                    24242869.281
 108545587.939 8  84581116.34146  20655521.219                    20655527.246
 11  8 22  0 32  0.0000000  0  9G25G10G04G17G12G05G30G09G02
 123066293.774 7  95895862.686 6  23418741.031                    23418751.699
 110287240.506 8  85938209.43646  20986939.266                    20986947.781
 117145405.037 7  91282264.98945  22292015.906                    22292024.941
 124065219.928 6  96674270.588 6  23608827.813                    23608837.383
 110658088.962 8  86227145.736 7  21057533.945                    21057541.805
 112258415.351 8  87474152.095 7  21362047.453                    21362056.348
 121821783.452 7  94926143.30244  23181920.578                    23181929.105
 127479223.240 6  99334532.70043  24258498.859                    24258510.832
 108555509.070 8  84588847.09246  20657409.148                    20657415.270
 11  8 22  0 32 30.0000000  0  9G25G10G04G17G12G05G30G09G02
 122975579.684 7  95825176.425 6  23401478.039                    23401489.840
 110312226.216 8  85957678.82546  20991693.852                    20991702.422
 117226164.700 7  91345194.58845  22307384.422                    22307393.492
 124124358.434 6  96720352.464 6  23620080.672                    23620090.734
 110616470.311 8  86194715.609 7  21049614.188                    21049621.773
 112182603.681 8  87415078.103 7  21347620.938                    21347629.566
 121733782.877 7  94857571.48044  23165174.531                    23165183.254
 127561462.064 6  99398614.78243  24274148.820                    24274161.211
 108565674.432 8  84596768.15046  20659343.508                    20659349.645
 11  8 22  0 33  0.0000000  0  9G25G10G04G17G12G05G30G09G02
 122885143.405 7  95754706.634 6  23384268.617                    23384280.023
 110337828.716 8  85977628.82046  20996566.305                    20996574.582
 117306989.413 7  91408174.85845  22322764.547                    22322773.984
 124183671.956 6  96766570.733 6  23631367.836                    23631378.137
 110575361.944 8  86162683.111 7  21041791.742                    21041799.547
 112107203.344 8  87356324.640 7  21333272.672                    21333281.344
 121646140.222 6  94789278.53044  23148496.695                    23148505.629
 127643735.797 6  99462724.06043  24289805.438                    24289816.621
 108576082.401 8  84604878.25946  20661324.273                    20661330.137
 11  8 22  0 33 30.0000000  0  9G25G10G04G17G12G05G30G09G02
 122794987.693 7  95684455.475 6  23367112.922                    23367124.039
 110364046.982 8  85998058.64546  21001555.117                    21001563.352
 117387877.886 7  91471204.81845  22338157.125                    22338166.551
 124243160.421 6  96812925.316 6  23642688.617                    23642698.727
 110534765.343 8  86131049.388 7  21034066.445                    21034073.973
 112032216.559 8  87297893.433 7  21319002.992                    21319011.648
 121558858.279 6  94721266.66844  23131886.648                    23131896.254
 127726041.229 6  99526858.01943  24305467.289                    24305479.148
 108586731.716 8  84613176.42546  20663350.672                    20663356.461
 11  8 22  0 34  0.0000000  0  9G25G10G04G17G12G05G30G09G02
 122705115.174 7  95614424.975 7  23350010.211                    23350021.930
 110390879.946 8  86018967.44746  21006661.391                    21006669.367
 117468828.341 7  91534283.07845  22353561.781                    22353570.852
 124302824.322 6  96859416.621 6  23654042.070                    23654052.133
 110494682.260 8  86099815.817 7  21026438.641                    21026446.219
 111957645.958 8  87239786.505 7  21304812.625                    21304821.551
 121471939.833 6  94653538.06844  23115347.172                    23115356.289
 127808375.020 6  99591014.09943  24321135.086                    24321146.934
 108597621.201 8  84621661.73846  20665422.719                    20665428.391
 11  8 22  0 34 30.0000000  0  9G25G10G04G17G12G05G30G09G02
 122615528.530 7  95544617.227 7  23332962.672                    23332974.129
 110418326.676 7  86040354.51546  21011884.102                    21011892.641
 117549839.165 7  91597408.37645  22368977.203                    22368986.520
 124362664.000 7  96906044.885 6  23665429.438                    23665439.363
 110455114.740 8  86068983.971 7  21018909.430                    21018917.145
 111883494.205 8  87182005.960 7  21290702.258                    21290710.828
 121385387.470 7  94586094.68944  23098876.570                    23098885.617
 127890734.111 6  99655189.84743  24336808.102                    24336819.277
 108608749.482 8  84630333.12646  20667540.344                    20667546.203
 11  8 22  0 35  0.0000000  0  9G25G10G04G17G12G05G30G09G02
 122526230.572 7  95475034.436 7  23315969.656                    23315981.496
 110446386.202 8  86062219.08046  21017223.633                    21017232.078
 117630908.915 7  91660579.58344  22384404.477                    22384413.855
 124422679.830 7  96952810.424 6  23676850.008                    23676860.234
 110416064.640 8  86038555.320 7  21011478.555                    21011486.109
 111809763.915 8  87124553.830 7  21276671.914                    21276680.379
 121299204.265 7  94518938.97344  23082476.500                    23082485.184
 127973115.459 7  99719382.98943  24352484.820                    24352496.238
 108620115.654 8  84639189.88546  20669703.406                    20669708.953
 11  8 22  0 35 30.0000000  0  9G25G10G04G17G12G05G30G09G02
 122437223.822 7  95405678.544 7  23299032.695                    23299043.270
 110475057.360 8  86084560.24646  21022679.898                    21022688.133
 117712035.942 7  91723795.44045  22399842.727                    22399851.543
 124482872.288 6  96999713.575 6  23688304.148                    23688314.730
 110377533.579 8  86008531.096 7  21004146.336                    21004154.266
 111736457.266 8  87067431.807 7  21262721.898                    21262730.414
 121213392.762 7  94452072.88344  23066146.984                    23066156.418
 128055515.713 7  99783590.87043  24368165.289                    24368177.047
 108631718.485 8  84648231.05446  20671911.273                    20671917.203
 11  8 22  0 36  0.0000000  0  9G25G10G04G17G12G05G30G09G02
 122348510.969 7  95336551.663 7  23282151.094                    23282162.527
 110504339.152 8  86107377.24646  21028252.164                    21028260.535
 117793218.738 7  91787054.73144  22415290.469                    22415300.477
 124543241.770 7  97046754.684 6  23699792.531                    23699801.813
 110339522.917 8  85978912.394 7  20996912.930                    20996920.949
 111663576.821 8  87010641.895 7  21248852.953                    21248861.621
 121127955.669 7  94385498.54244  23049888.734                    23049898.094
 128137931.646 7  99847810.96943  24383848.313                    24383859.777
 108643556.792 8  84657455.71046  20674163.953                    20674169.961
 11  8 22  0 36 30.0000000  0  9G25G10G04G17G12G05G30G09G02
 122260094.915 7  95267656.066 7  23265326.055                    23265337.684
 110534230.569 8  86130669.25846  21033940.125                    21033948.129
 117874455.812 7  91850356.32445  22430749.984                    22430759.402
 124603788.680 7  97093934.033 6  23711313.602                    23711324.180
 110302034.731 8  85949700.817 7  20989779.188                    20989786.977
 111591125.070 8  86954186.026 7  21235065.773                    21235074.523
 121042895.962 7  94319218.27644  23033702.398                    23033711.848
 128220360.077 7  99912040.79643  24399534.750                    24399545.816
 108655629.565 8  84666863.06646  20676461.797                    20676467.199
 11  8 22  0 37  0.0000000  0  9G25G10G04G17G12G05G30G09G02
 122171978.335 7  95198993.819 7  23248558.258                    23248569.715
 110564730.657 8  86154435.56546  21039744.492                    21039752.285
 117955745.712 7  91913699.07744  22446218.875                    22446228.332
 124664513.281 7  97141251.838 6  23722869.219                    23722880.203
 110265070.766 8  85920897.717 7  20982745.242                    20982752.648
 111519104.588 8  86898066.214 7  21221361.148                    21221369.500
 120958216.327 7  94253234.18244  23017588.070                    23017597.418
 128302798.067 6  99976278.07343  24415221.977                    24415233.730
 108667935.480 8  84676452.09546  20678802.938                    20678809.250
 11  8 22  0 37 30.0000000  0  9G25G10G04G17G12G05G30G09G02
 122084163.580 7  95130566.773 7  23231847.617                    23231859.188
 110595837.882 8  86178674.96646  21045663.492                    21045671.789
 118037086.672 7  91977081.61845  22461697.094                    22461706.395
 124725415.725 7  97188708.223 6  23734458.680                    23734469.027
 110228632.108 8  85892503.957 7  20975810.953                    20975818.797
 111447517.622 8  86842284.209 7  21207738.352                    21207746.867
 120873919.164 7  94187548.09544  23001547.461                    23001556.727
 128385242.297 6 100040520.21743  24430910.320                    24430922.270
 108680473.171 8  84686221.72346  20681188.977                    20681195.008
 11  8 22  0 38  0.0000000  0  9G25G10G04G17G12G05G30G09G02
 121996653.346 7  95062377.005 7  23215194.883                    23215206.141
 110627551.213 8  86203386.65946  21051698.547                    21051706.531
 118118477.080 7  92040502.69244  22477185.875                    22477195.070
 124786496.718 7  97236303.750 6  23746082.414                    23746092.305
 110192720.804 8  85864521.110 7  20968977.695                    20968985.445
 111376366.130 8  86786841.526 7  21194198.641                    21194207.012
 120790007.256 7  94122162.22644  22985579.117                    22985588.496
 128467689.464 6 100104764.57743  24446599.875                    24446611.586
 108693241.079 8  84696170.74546  20683618.719                    20683624.785
 11  8 22  0 38 30.0000000  0  9G25G10G04G17G12G05G30G09G02
 121909450.502 7  94994426.792 7  23198600.375                    23198612.438
 110659869.798 7  86228569.97846  21057848.547                    21057856.754
 118199915.737 7  92103961.36245  22492682.609                    22492692.617
 124847756.365 6  97284038.495 6  23757739.969                    23757749.641
 110157338.454 8  85836950.449 7  20962244.844                    20962252.328
 111305653.120 8  86731740.530 7  21180742.305                    21180750.852
 120706483.538 7  94057078.84544  22969685.547                    22969694.488
 128550136.535 6 100169008.94243  24462288.547                    24462300.875
 108706238.406 8  84706298.52846  20686092.023                    20686097.719
 11  8 22  0 39  0.0000000  0  9G25G10G04G17G12G05G30G09G02
 121822557.506 7  94926718.009 7  23182065.336                    23182076.844
 110692792.112 8  86254223.74246  21064113.016                    21064121.566
 118281400.971 7  92167456.31445  22508188.844                    22508198.457
 124909195.071 6  97331912.793 6  23769431.227                    23769441.141
 110122486.401 8  85809793.001 7  20955612.328                    20955620.090
 111235380.596 8  86676982.749 7  21167369.813                    21167378.559
 120623350.481 7  93992299.87344  22953865.344                    22953875.020
 128632580.475 6 100233250.85943  24477977.359                    24477989.434
 108719463.848 8  84716604.06746  20688608.570                    20688614.738
 11  8 22  0 39 30.0000000  0  9G25G10G04G17G12G05G30G09G02
 121735977.266 7  94859252.936 7  23165589.438                    23165600.883
 110726317.019 8  86280347.05546  21070492.719                    21070501.305
 118362931.440 7  92230986.51845  22523703.844                    22523713.332
 124970812.780 6  97379926.533 6  23781156.602                    23781166.270
 110088166.243 8  85783050.026 7  20949081.625                    20949089.031
 111165551.000 8  86622570.123 7  21154081.617                    21154090.621
 120540610.997 7  93927827.60144  22938120.961                    22938130.121
 128715018.262 6 100297487.94843  24493664.789                    24493677.129
 108732916.434 8  84727086.60946  20691168.625                    20691174.629
 11  8 22  0 40  0.0000000  0  9G25G10G04G17G12G05G30G09G02
 121649712.357 7  94792033.570 7  23149173.875                    23149184.605
 110760442.981 8  86306938.71746  21076986.961                    21076995.297
 118444505.459 7  92294550.64945  22539226.922                    22539235.895
 125032610.187 6  97428080.309 6  23792916.266                    23792926.391
 110054379.579 8  85756722.756 7  20942651.711                    20942659.617
 111096166.834 8  86568504.574 7  21140878.195                    21140886.988
 120458267.660 7  93863664.00944  22922451.398                    22922460.766
 128797446.848 6 100361717.83543  24509350.742                    24509362.680
 108746594.978 8  84737745.20146  20693771.750                    20693777.676
 11  8 22  0 40 30.0000000  0  9G25G10G04G17G12G05G30G09G02
 121563765.137 7  94725061.772 6  23132818.500                    23132829.801
 110795168.729 8  86333997.74846  21083594.922                    21083603.133
 118526121.453 7  92358147.50844  22554757.570                    22554767.602
 125094587.789 6  97476374.475 6  23804709.852                    23804720.066
 110021127.666 8  85730812.190 7  20936324.289                    20936332.195
 111027230.002 8  86514787.608 7  21127760.117                    21127768.313
 120376322.936 7  93799811.02744  22906857.969                    22906866.641
 128879862.692 6 100425937.88443  24525033.688                    24525046.363
 108760497.887 8  84748578.64346  20696417.430                    20696423.355
 11  8 22  0 41  0.0000000  0  9G25G10G04G17G12G05G30G09G02
 121478138.413 7  94658339.701 7  23116524.305                    23116535.184
 110830493.124 8  86361523.25946  21090316.867                    21090325.438
 118607778.219 7  92421776.11944  22570296.203                    22570306.125
 125156745.529 6  97524809.036 6  23816538.500                    23816549.195
 109988412.241 8  85705319.663 7  20930098.836                    20930106.527
 110958743.030 8  86461421.172 7  21114727.469                    21114735.660
 120294779.562 7  93736270.78044  22891340.609                    22891349.734
 128962262.879 6 100490145.66743  24540713.828                    24540726.898
 108774623.966 8  84759585.96846  20699105.563                    20699111.258
 11  8 22  0 41 30.0000000  0  9G25G10G04G17G12G05G30G09G02
 121392834.991 7  94591869.562 7  23100291.375                    23100302.648
 110866414.783 8  86389514.15546  21097152.297                    21097160.988
 118689474.314 7  92485435.38844  22585843.016                    22585852.434
 125219084.061 6  97573384.491 6  23828401.336                    23828411.398
 109956234.967 8  85680246.483 7  20923975.336                    20923983.137
 110890708.318 8  86408407.147 7  21101780.898                    21101789.324
 120213640.423 7  93673045.50344  22875900.570                    22875909.531
 129044644.441 6 100554338.99843  24556392.055                    24556403.039
 108788972.434 8  84770766.59246  20701836.047                    20701841.367
 11  8 22  0 42  0.0000000  0  9G25G10G04G17G12G05G30G09G02
 121307857.415 7  94525653.318 7  23084120.891                    23084131.695
 110902932.352 8  86417969.40646  21104101.414                    21104110.180
 118771208.131 7  92549124.04744  22601396.313                    22601405.629
 125281603.258 6  97622100.725 6  23840298.117                    23840308.441
 109924597.165 8  85655593.662 7  20917955.547                    20917962.637
 110823128.076 8  86355747.261 7  21088920.844                    21088928.969
 120132908.041 7  93610137.21744  22860537.578                    22860545.965
 129127004.192 6 100618515.30643  24572063.781                    24572076.156
 108803541.800 8  84782119.33946  20704608.250                    20704614.332
 11  8 22  0 42 30.0000000  0  9G25G10G04G17G12G05G30G09G02
 121223208.412 7  94459693.108 6  23068012.711                    23068023.383
 110940044.247 8  86446887.76146  21111163.570                    21111171.918
 118852978.372 7  92612841.06244  22616956.688                    22616966.281
 125344303.587 6  97670958.061 6  23852229.516                    23852240.051
 109893500.301 8  85631362.358 7  20912038.047                    20912045.305
 110756004.579 8  86303443.267 7  21076147.469                    21076155.813
 120052585.122 7  93547547.98644  22845252.438                    22845261.371
 129209339.223 6 100682672.36743  24587730.680                    24587743.879
 108818331.088 8  84793643.45446  20707422.641                    20707428.371
 11  8 22  0 43  0.0000000  0  9G25G10G04G17G12G05G30G09G02
 121138890.392 7  94393990.791 7  23051967.445                    23051977.879
 110977749.264 8  86476268.29546  21118338.914                    21118347.168
 118934783.762 7  92676585.49944  22632523.320                    22632533.355
 125407185.357 6  97719956.815 6  23864195.750                    23864206.293
 109862945.586 8  85607553.506 7  20906223.430                    20906231.199
 110689339.809 8  86251496.735 7  21063461.219                    21063469.754
 119972674.136 7  93485279.75644  22830045.266                    22830054.832
 129291646.271 6 100746807.60543  24603393.977                    24603406.691
 108833338.859 8  84805337.81346  20710278.492                    20710284.223
 11  8 22  0 43 30.0000000  0  9G25G10G04G17G12G05G30G09G02
 121054906.094 7  94328548.541 7  23035985.648                    23035996.344
 111016045.940 8  86506109.84745  21125626.352                    21125635.055
 119016622.728 7  92740356.08144  22648097.266                    22648106.695
 125470248.809 6  97769097.151 6  23876195.898                    23876206.480
 109832934.679 8  85584168.399 7  20900512.484                    20900520.410
 110623135.996 8  86199909.380 7  21050863.266                    21050871.742
 119893177.689 7  93423334.50944  22814917.789                    22814926.871
 129373922.475 6 100810918.81543  24619051.516                    24619064.090
 108848563.930 8  84817201.50146  20713175.766                    20713181.652
 11  8 22  0 44  0.0000000  0  9G25G10G04G17G12G05G30G09G02
 120971258.111 7  94263368.349 7  23020067.805                    23020078.852
 111054932.575 8  86536411.12746  21133026.156                    21133034.715
 119098493.677 7  92804151.58144  22663677.039                    22663686.430
 125533494.226 6  97818379.276 6  23888231.539                    23888242.023
 109803468.730 8  85561207.934 7  20894905.242                    20894912.625
 110557395.781 8  86148683.278 7  21038353.320                    21038361.742
 119814098.475 7  93361714.38644  22799869.891                    22799878.680
 129456164.822 6 100875003.66043  24634701.750                    24634713.758
 108864005.417 8  84829233.82146  20716114.031                    20716120.086
 11  8 22  0 44 30.0000000  0  9G25G10G04G17G12G05G30G09G02
 120887949.229 7  94198452.389 6  23004214.672                    23004225.883
 111094407.886 8  86567171.11146  21140538.164                    21140546.387
 119180395.702 7  92867971.31144  22679262.273                    22679271.801
 125596921.875 6  97867803.387 6  23900301.508                    23900311.438
 109774549.757 8  85538673.690 7  20889402.180                    20889409.633
 110492121.429 8  86097820.173 7  21025932.203                    21025940.414
 119735439.258 7  93300421.54844  22784901.414                    22784910.535
 129538370.062 6 100939059.56843  24650344.008                    24650356.898
 108879661.885 8  84841433.66546  20719093.430                    20719099.195
 11  8 22  0 45  0.0000000  0  9G25G10G04G17G12G05G30G09G02
 120804981.653 7  94133802.379 7  22988426.242                    22988437.629
 111134470.105 8  86598388.42146  21148161.656                    21148170.223
 119262326.803 7  92931813.68544  22694853.297                    22694862.859
 125660532.053 6  97917369.741 6  23912406.211                    23912416.566
 109746177.421 8  85516565.389 7  20884003.078                    20884010.973
 110427314.089 8  86047320.983 7  21013599.492                    21013607.652
 119657202.107 7  93239457.57544  22770013.422                    22770022.113
 129620534.967 6 101003084.03543  24665980.172                    24665992.570
 108895532.021 8  84853799.99946  20722113.516                    20722119.223
 11  8 22  0 45 30.0000000  0  9G25G10G04G17G12G05G30G09G02
 120722358.254 7  94069420.550 7  22972704.133                    22972715.051
 111175117.751 8  86630061.90246  21155896.578                    21155904.895
 119344286.068 7  92995678.01244  22710449.875                    22710458.973
 125724324.586 6  97967078.188 6  23924545.516                    23924555.543
 109718354.223 8  85494884.987 7  20878708.430                    20878715.945
 110362976.403 8  85997187.757 7  21001356.680                    21001364.934
 119579390.006 7  93178824.82544  22755206.430                    22755214.789
 129702656.928 6 101067075.04143  24681607.297                    24681619.543
 108911614.595 8  84866331.86746  20725173.758                    20725179.742
 11  8 22  0 46  0.0000000  0  9G25G10G04G17G12G05G30G09G02
 120640081.758 7  94005309.040 7  22957047.414                    22957058.301
 111216349.455 8  86662190.49446  21163742.727                    21163751.289
 119426272.174 7  93059563.25844  22726051.367                    22726060.754
 125788299.969 6  98016929.128 6  23936718.867                    23936729.363
 109691081.614 8  85473633.612 7  20873518.953                    20873526.441
 110299111.042 8  85947422.568 7  20989203.383                    20989211.594
 119502005.569 7  93118525.29544  22740480.219                    22740488.906
 129784732.943 6 101131030.22643  24697226.320                    24697238.289
 108927908.738 8  84879028.59646  20728274.477                    20728280.582
 11  8 22  0 46 30.0000000  0  9G25G10G04G17G12G05G30G09G02
 120558154.671 7  93941469.793 7  22941456.750                    22941467.719
 111258163.542 8  86694772.89046  21171700.031                    21171708.023
 119508283.654 7  93123468.29544  22741657.414                    22741667.020
 125852458.588 6  98066922.830 6  23948927.953                    23948938.348
 109664360.433 8  85452811.931 7  20868433.609                    20868441.379
 110235719.828 8  85898026.850 7  20977140.492                    20977148.664
 119425051.231 7  93058560.92144  22725836.109                    22725845.031
 129866759.780 7 101194947.11443  24712835.523                    24712847.285
 108944413.285 8  84891889.27846  20731415.547                    20731421.391
 11  8 22  0 47  0.0000000  0  9G25G10G04G17G12G05G30G09G02
 120476579.437 7  93877904.723 7  22925933.313                    22925944.531
 111300558.256 8  86727807.71746  21179767.055                    21179775.223
 119590319.213 7  93187392.05344  22757267.945                    22757277.305
 125916800.767 6  98117059.558 6  23961172.813                    23961182.211
 109638192.155 8  85432421.067 7  20863454.250                    20863461.785
 110172804.793 8  85849002.181 7  20965168.203                    20965176.340
 119348529.482 7  92998933.63044  22711274.859                    22711283.188
 129948734.414 7 101258823.32843  24728434.805                    24728447.055
 108961126.751 8  84904912.75846  20734595.672                    20734601.629
 11  8 22  0 47 30.0000000  0  9G25G10G04G17G12G05G30G09G02
 120395359.007 7  93814616.114 7  22910477.602                    22910488.406
 111343532.326 8  86761293.99945  21187945.281                    21187953.383
 119672377.579 7  93251333.61744  22772883.703                    22772892.824
 125981326.537 6  98167339.377 6  23973451.594                    23973461.609
 109612578.158 8  85412462.116 7  20858579.688                    20858587.277
 110110368.423 8  85800350.497 7  20953286.586                    20953295.109
 119272443.142 7  92939645.61244  22696795.781                    22696804.410
 130030653.994 6 101322656.64443  24744023.898                    24744035.938
 108978048.373 8  84918098.43246  20737815.805                    20737822.121
 11  8 22  0 48  0.0000000  0  9G25G10G04G17G12G05G30G09G02
 120314495.625 7  93751605.716 7  22895090.125                    22895100.652
 111387083.933 8  86795230.30746  21196232.438                    21196240.719
 119754457.298 7  93315291.81444  22788503.086                    22788511.996
 126046035.882 6  98217762.220 6  23985765.039                    23985775.691
 109587519.172 8  85392935.632 7  20853811.172                    20853818.820
 110048412.111 8  85752072.884 7  20941497.031                    20941505.129
 119196794.386 7  92880698.55844  22682400.406                    22682409.086
 130112515.385 6 101386444.55643  24759601.000                    24759614.090
 108995176.432 8  84931444.96946  20741074.969                    20741081.336
 11  8 22  0 48 30.0000000  0  9G25G10G04G17G12G05G30G09G02
 120233991.762 7  93688875.468 7  22879770.695                    22879781.164
 111431211.064 8  86829615.07746  21204629.969                    21204638.430
 119836556.904 7  93379265.51444  22804126.313                    22804134.938
 126110929.274 6  98268328.478 6  23998114.414                    23998124.402
 109563016.483 8  85373842.633 7  20849148.492                    20849156.047
 109986937.979 8  85704170.993 7  20929798.664                    20929806.934
 119121585.692 7  92822094.42444  22668088.102                    22668097.547
 130194315.613 6 101450184.87943  24775167.711                    24775179.934
 109012509.611 8  84944951.34046  20744373.094                    20744379.617
 11  8 22  0 49  0.0000000  0  9G25G10G04G17G12G05G30G09G02
 120153850.258 7  93626427.576 7  22864520.109                    22864531.086
 111475912.269 7  86864447.18946  21213136.320                    21213144.477
 119918675.498 7  93443254.01144  22819751.977                    22819761.672
 126176006.684 7  98319038.139 6  24010498.031                    24010508.023
 109539071.163 8  85355183.945 7  20844591.805                    20844599.508
 109925948.261 8  85656646.571 7  20918192.961                    20918200.816
 119046819.744 7  92763835.27544  22653861.328                    22653869.719
 130276051.908 6 101513875.37643  24790721.016                    24790734.324
 109030047.426 8  84958617.17746  20747711.031                    20747716.867
 11  8 22  0 49 30.0000000  0  9G25G10G04G17G12G05G30G09G02
 120074073.691 7  93564264.035 7  22849339.031                    22849349.738
 111521185.915 7  86899725.34645  21221751.102                    21221759.473
 120000811.686 7  93507256.22044  22835382.297                    22835392.230
 126241268.595 7  98369891.547 6  24022916.383                    24022926.434
 109515684.950 8  85336960.910 7  20840141.789                    20840149.434
 109865445.154 8  85609501.321 7  20906679.352                    20906687.383
 118972499.158 7  92705923.17544  22639718.141                    22639727.105
 130357721.476 6 101577513.77043  24806263.039                    24806275.191
 109047788.531 8  84972441.40846  20751086.750                    20751092.844
 11  8 22  0 50  0.0000000  0  9G25G10G04G17G12G05G30G09G02
 119994664.547 7  93502386.797 7  22834228.383                    22834238.902
 111567030.040 8  86935448.02445  21230475.164                    21230483.516
 120082964.083 7  93571271.05344  22851015.898                    22851025.344
 126306715.240 6  98420888.937 6  24035370.477                    24035380.918
 109492858.434 8  85319174.016 7  20835798.234                    20835805.566
 109805430.294 8  85562736.532 7  20895258.688                    20895267.203
 118898626.302 7  92648359.92044  22625660.625                    22625669.121
 130439320.912 6 101641097.58143  24821790.242                    24821803.344
 109065731.780 8  84986423.15846  20754501.156                    20754507.418
 11  8 22  0 50 30.0000000  0  9G25G10G04G17G12G05G30G09G02
 119915625.449 7  93440797.923 7  22819187.438                    22819198.539
 111613442.973 8  86971613.94545  21239307.414                    21239315.914
 120165131.714 7  93635297.74144  22866651.961                    22866661.707
 126372346.555 6  98472030.207 6  24047860.109                    24047870.375
 109470592.717 8  85301824.106 7  20831561.102                    20831568.711
 109745905.962 8  85516353.967 8  20883931.742                    20883940.082
 118825203.628 7  92591147.47244  22611688.484                    22611698.172
 130520847.566 6 101704624.65743  24837304.398                    24837317.641
 109083876.153 8  85000561.63246  20757953.969                    20757960.516
 11  8 22  0 51  0.0000000  0  9G25G10G04G17G12G05G30G09G02
 119836958.786 7  93379499.244 7  22804217.984                    22804228.848
 111660422.745 8  87008221.55645  21248247.453                    21248255.777
 120247312.877 7  93699335.00344  22882290.188                    22882299.723
 126438162.603 6  98523315.402 6  24060384.469                    24060394.805
 109448888.752 8  85284911.908 7  20827430.789                    20827438.391
 109686874.097 8  85470355.134 7  20872697.742                    20872706.527
 118752233.578 7  92534287.72044  22597802.883                    22597811.910
 130602298.352 6 101768092.62343  24852804.531                    24852817.684
 109102219.969 8  85014855.51446  20761444.594                    20761451.004
 11  8 22  0 51 30.0000000  0  9G25G10G04G17G12G05G30G09G02
 119758667.172 8  93318492.790 7  22789319.352                    22789330.461
 111707967.663 8  87045269.53745  21257294.836                    21257303.387
 120329506.582 7  93763382.00844  22897930.828                    22897940.809
 126504163.968 6  98574744.996 6  24072944.469                    24072954.535
 109427747.676 8  85268438.336 7  20823407.758                    20823415.297
 109628336.443 8  85424741.403 7  20861558.922                    20861567.012
 118679718.599 7  92477782.56444  22584004.094                    22584012.563
 130683670.601 6 101831499.37143  24868289.359                    24868302.488
 109120762.111 8  85029303.94146  20764973.555                    20764979.008
 11  8 22  0 52  0.0000000  0  8G25G10G04G17G12G05G30G02
 119680753.569 7  93257780.905 7  22774492.484                    22774503.660
 111756076.311 8  87082756.79045  21266449.344                    21266457.645
 120411711.989 7  93827438.14144  22913574.117                    22913584.082
 126570350.553 6  98626318.942 6  24085539.375                    24085549.336
 109407171.500 8  85252404.939 7  20819492.336                    20819500.031
 109570295.449 8  85379514.694 7  20850514.117                    20850521.922
 118607661.561 7  92421634.25044  22570292.297                    22570300.836
 109139502.010 8  85043906.45446  20768539.570                    20768545.387
 11  8 22  0 52 30.0000000  0  8G25G10G04G17G12G05G30G02
 119603220.045 7  93197365.195 7  22759738.609                    22759749.535
 111804746.341 8  87120681.48345  21275711.234                    21275719.426
 120493927.526 7  93891502.16344  22929219.094                    22929229.105
 126636722.409 6  98678037.246 6  24098169.727                    24098179.176
 109387160.068 8  85236811.605 7  20815684.141                    20815691.832
 109512752.629 8  85334676.158 7  20839564.148                    20839572.297
 118536064.422 7  92365844.28944  22556667.406                    22556676.273
 109158438.117 8  85058661.85646  20772142.789                    20772148.996
 11  8 22  0 53  0.0000000  0  8G25G10G04G17G12G05G30G02
 119526068.944 7  93137247.473 7  22745057.242                    22745068.148
 111853975.732 8  87159042.04545  21285079.328                    21285087.531
 120576151.688 7  93955572.88944  22944866.625                    22944875.723
 126703279.776 6  98729900.105 6  24110834.734                    24110844.813
 109367714.383 8  85221659.118 7  20811983.836                    20811991.453
 109455709.610 8  85290227.072 7  20828709.039                    20828717.570
 118464929.365 7  92310414.39945  22543131.039                    22543139.555
 109177569.149 8  85073569.15646  20775783.117                    20775789.641
 11  8 22  0 53 30.0000000  0  8G25G10G04G17G12G05G30G02
 119449303.069 7  93077429.926 7  22730449.398                    22730460.059
 111903763.084 8  87197837.37545  21294553.375                    21294561.586
 120658383.415 6  94019649.53544  22960514.828                    22960524.328
 126770022.749 6  98781907.563 6  24123535.227                    24123545.602
 109348835.561 8  85206948.328 7  20808391.523                    20808399.379
 109399168.390 8  85246169.013 7  20817949.617                    20817958.082
 118394259.203 7  92255346.75045  22529682.961                    22529691.359
 109196894.188 8  85088627.61846  20779460.734                    20779466.816
 11  8 22  0 54  0.0000000  0  8G25G10G04G17G12G05G30G02
 119372924.994 7  93017914.550 7  22715914.719                    22715925.629
 111954106.387 8  87237065.91745  21304133.547                    21304141.926
 120740621.908 7  94083731.43444  22976164.289                    22976173.570
 126836951.359 6  98834059.705 6  24136271.414                    24136281.555
 109330525.017 8  85192680.369 7  20804907.094                    20804914.559
 109343131.156 8  85202503.658 8  20807285.930                    20807294.473
 118324056.313 7  92200643.20944  22516323.781                    22516332.133
 109216412.286 8  85103836.52246  20783174.922                    20783181.203
 11  8 22  0 54 30.0000000  0  8G25G10G04G17G12G05G30G02
 119296936.935 7  92958703.086 7  22701454.555                    22701466.012
 112005003.281 8  87276725.83645  21313818.539                    21313827.262
 120822865.712 7  94147817.48044  22991814.289                    22991824.086
 126904065.905 6  98886356.721 6  24149042.820                    24149053.375
 109312782.994 8  85178855.412 7  20801530.836                    20801538.328
 109287599.189 8  85159232.027 7  20796718.703                    20796727.223
 118254322.761 7  92146305.40844  22503053.656                    22503062.305
 109236121.935 8  85119194.68646  20786925.523                    20786931.758
 11  8 22  0 55  0.0000000  0  8G25G10G04G17G12G05G30G02
 119221341.289 7  92899797.395 7  22687069.516                    22687080.289
 112056451.843 7  87316815.61645  21323609.227                    21323617.809
 120905113.389 7  94211906.55144  23007466.016                    23007474.953
 126971366.169 6  98938798.430 6  24161850.266                    24161860.109
 109295610.359 8  85165474.129 7  20798263.172                    20798270.965
 109232574.502 8  85116355.671 8  20786247.602                    20786256.176
 118185060.835 7  92092335.09144  22489873.781                    22489882.766
 109256021.775 8  85134701.04446  20790712.250                    20790718.250
 11  8 22  0 55 30.0000000  0  8G25G10G04G17G12G05G30G02
 119146140.759 8  92841199.603 7  22672759.406                    22672769.922
 112108450.393 8  87357333.96945  21333503.945                    21333512.379
 120987364.047 7  94275997.95344  23023117.922                    23023126.777
 127038852.499 6  98991385.151 6  24174690.938                    24174702.078
 109279008.244 8  85152537.415 7  20795103.633                    20795111.547
 109178058.958 8  85073876.044 7  20775873.828                    20775881.863
 118116273.093 7  92038734.25845  22476783.688                    22476792.469
 109276110.970 8  85150354.95946  20794535.391                    20794541.160
 11  8 22  0 56  0.0000000  0  8G25G10G04G17G12G05G30G02
 119071337.900 7  92782911.667 7  22658524.359                    22658535.645
 112160996.762 8  87398279.18945  21343503.289                    21343511.352
 121069616.808 7  94340090.98844  23038769.703                    23038779.086
 127106524.882 6  99044116.823 6  24187569.813                    24187579.527
 109262977.508 8  85140045.929 7  20792053.172                    20792060.637
 109124054.301 8  85031794.521 8  20765597.063                    20765605.039
 118047961.990 7  91985504.83744  22463784.656                    22463793.188
 109296388.600 8  85166155.69346  20798393.703                    20798399.762
 11  8 22  0 56 30.0000000  0  8G25G10G04G17G12G05G30G02
 118996934.782 7  92724935.240 7  22644366.141                    22644377.195
 112214088.748 7  87439649.56945  21353606.672                    21353614.871
 121151869.934 7  94404184.29744  23054421.914                    23054431.488
 127174383.434 6  99096993.589 6  24200483.672                    24200492.996
 109247518.540 8  85127999.985 7  20789111.211                    20789118.973
 109070561.913 8  84990112.168 8  20755417.336                    20755426.195
 117980129.375 7  91932648.26745  22450876.430                    22450885.105
 109316852.879 7  85182101.87446  20802287.992                    20802294.668
 11  8 22  0 57  0.0000000  0  8G25G10G04G17G12G05G30G02
 118922934.122 7  92667272.412 7  22630283.961                    22630295.199
 112267724.690 7  87481443.79845  21363813.063                    21363821.320
 121234122.698 7  94468277.35044  23070074.383                    23070083.457
 127242428.210 6  99150015.502 6  24213431.273                    24213441.809
 109232632.357 8  85116400.362 7  20786278.859                    20786286.273
 109017584.151 8  84948830.816 8  20745336.148                    20745344.754
 117912777.862 7  91880166.58245  22438060.281                    22438068.465
 109337503.131 8  85198192.96446  20806217.680                    20806224.313
 11  8 22  0 57 30.0000000  0  8G25G10G04G17G12G05G30G02
 118849338.503 7  92609925.187 7  22616279.563                    22616290.633
 112321902.232 8  87523660.06045  21374122.805                    21374130.949
 121316374.250 7  94532369.45844  23085726.211                    23085735.652
 127310659.222 6  99203182.473 6  24226414.195                    24226425.285
 109218319.834 8  85105247.749 7  20783555.055                    20783562.797
 108965122.420 8  84907951.574 7  20735353.172                    20735361.723
 117845909.804 7  91828061.61745  22425335.344                    22425344.242
 109358338.449 8  85214428.25646  20810182.719                    20810188.961
 11  8 22  0 58  0.0000000  0  8G25G10G04G17G12G05G30G02
 118776150.443 7  92552895.544 7  22602352.547                    22602363.496
 112376619.820 7  87566297.14145  21384535.180                    21384543.652
 121398623.149 7  94596459.50244  23101377.641                    23101386.832
 127379076.812 6  99256494.839 6  24239434.719                    24239444.852
 109204582.069 8  85094542.993 7  20780940.984                    20780948.488
 108913178.502 8  84867475.816 8  20725468.672                    20725477.082
 117779527.702 7  91776335.31345  22412703.359                    22412711.957
 109379357.810 8  85230806.96046  20814182.797                    20814188.754
 11  8 22  0 58 30.0000000  0  8G25G10G04G17G12G05G30G02
 118703371.986 8  92496185.071 7  22588502.891                    22588514.172
 112431874.786 7  87609352.95145  21395049.945                    21395057.824
 121480868.230 7  94660546.56744  23117028.539                    23117037.797
 127447680.801 6  99309952.518 6  24252489.297                    24252500.039
 109191419.210 8  85084286.224 7  20778435.844                    20778443.637
 108861753.731 8  84827404.585 8  20715682.992                    20715690.770
 117713633.265 7  91724989.00645  22400163.883                    22400173.020
 109400559.432 8  85247327.68646  20818217.164                    20818223.301
 11  8 22  0 59  0.0000000  0  8G25G10G04G17G12G05G30G02
 118631005.482 7  92439795.593 7  22574732.563                    22574742.707
 112487664.869 7  87652825.74545  21405666.047                    21405674.410
 121563108.421 7  94724629.80644  23132677.984                    23132687.359
 127516470.937 6  99363555.202 6  24265580.211                    24265589.855
 109178831.711 8  85074477.777 7  20776040.469                    20776048.324
 108810849.781 8  84787739.194 8  20705995.828                    20706004.277
 117648228.740 7  91674024.46245  22387718.133                    22387726.973
 109421942.055 8  85263989.45046  20822285.766                    20822292.316
 11  8 22  0 59 30.0000000  0  8G25G10G04G17G12G05G30G02
 118559053.593 7  92383729.201 7  22561040.414                    22561051.039
 112543988.195 7  87696714.04245  21416384.414                    21416392.414
 121645342.789 6  94788708.52344  23148326.750                    23148336.375
 127585447.794 6  99417303.408 6  24278705.914                    24278716.070
 109166820.700 8  85065118.548 7  20773754.938                    20773762.531
 108760468.424 8  84748481.022 8  20696408.414                    20696416.980
 117583316.572 7  91623443.57145  22375365.352                    22375374.488
 109443505.317 8  85280791.97046  20826389.359                    20826395.453
 11  8 22  1  0  0.0000000  0  8G25G10G04G17G12G05G30G02
 118487518.869 7  92327987.873 7  22547427.336                    22547438.609
 112600842.664 8  87741016.20945  21427203.430                    21427211.301
 121727570.342 7  94852781.91244  23163974.289                    23163984.023
 127654611.190 6  99471196.946 6  24291867.797                    24291876.859
 109155386.876 8  85056209.077 7  20771579.203                    20771587.285
 108710611.621 8  84709631.593 8  20686921.070                    20686929.395
 117518899.121 7  91573248.15845  22363106.953                    22363115.980
 109465248.120 8  85297734.38846  20830526.953                    20830532.969
 11  8 22  1  0 30.0000000  0  8G25G10G04G17G12G05G30G02
 118416403.859 7  92272573.586 7  22533894.766                    22533905.934
 112658226.513 7  87785730.88645  21438123.016                    21438131.711
 121809790.346 6  94916849.42744  23179619.750                    23179630.109
 127723961.362 6  99525236.030 5  24305064.250                    24305073.746
 109144531.345 8  85047750.220 7  20769513.539                    20769521.289
 108661280.899 8  84671192.090 8  20677533.969                    20677542.367
 117454978.756 7  91523440.08945  22350943.047                    22350952.301
 109487169.880 8  85314816.25946  20834698.594                    20834704.672
 11  8 22  1  1  0.0000000  0  8G25G10G04G17G12G05G30G02
 118345710.392 7  92217487.788 7  22520442.422                    22520453.418
 112716136.843 7  87830855.80645  21449143.203                    21449151.422
 121892001.251 6  94980909.84644  23195264.258                    23195274.113
 127793498.067 6  99579420.488 5  24318296.508                    24318306.273
 109134253.608 8  85039741.595 7  20767557.930                    20767565.602
 108612477.300 8  84633163.339 8  20668247.492                    20668254.871
 117391557.077 7  91474020.61445  22338874.922                    22338883.375
 109509268.461 8  85332035.91546  20838903.820                    20838909.996
 11  8 22  1  1 30.0000000  0  9G25G10G04G17G12G05G30G29G02
 118275440.534 7  92162732.062 7  22507070.000                    22507081.371
 112774571.309 7  87876389.14745  21460262.539                    21460271.227
 121974201.502 6  95044961.95744  23210906.648                    23210916.379
 127863220.897 6  99633749.966 6  24331564.703                    24331574.461
 109124554.173 8  85032183.589 7  20765712.336                    20765719.828
 108564202.152 8  84595546.368 8  20659060.664                    20659068.563
 117328636.030 7  91424991.23745  22326901.453                    22326910.238
 129597786.49517 100985413.52516  24661666.813                    24661676.320
 109531542.043 8  85349391.93346  20843142.750                    20843148.305
 11  8 22  1  2  0.0000000  0  9G25G10G04G17G12G05G30G29G02
 118205597.464 7  92108308.900 7  22493779.758                    22493790.445
 112833528.259 7  87922329.61545  21471482.008                    21471490.387
 122056391.174 7  95109005.84544  23226547.156                    23226556.625
 127933130.574 6  99688225.044 5  24344867.891                    24344877.785
 109115434.016 8  85025076.967 7  20763976.766                    20763984.109
 108516457.607 8  84558342.857 7  20649975.234                    20649983.402
 117266218.524 7  91376354.24245  22315023.570                    22315032.449
 129518315.430 6 100923488.078 6  24646543.906                    24646554.121
 109553991.053 8  85366884.64546  20847414.188                    20847419.906
 11  8 22  1  2 30.0000000  0  9G25G10G04G17G12G05G30G29G02
 118136183.801 7  92054220.343 7  22480570.820                    22480581.598
 112893006.031 7  87968675.91545  21482800.172                    21482808.570
 122138569.326 7  95173040.72844  23242184.398                    23242194.645
 128003227.345 6  99742845.877 5  24358206.570                    24358216.754
 109106894.422 8  85018422.728 7  20762351.477                    20762359.422
 108469245.599 8  84521554.306 8  20640990.805                    20640999.078
 117204306.960 7  91328111.48145  22303242.383                    22303250.926
 129438766.808 6 100861502.192 6  24631406.313                    24631416.309
 109576614.575 8  85384513.34346  20851719.500                    20851725.563
 11  8 22  1  3  0.0000000  0  9G25G10G04G17G12G05G30G29G02
 118067201.224 7  92000467.697 7  22467443.375                    22467454.820
 112953001.742 7  88015425.80745  21494216.992                    21494225.414
 122220734.441 7  95237065.46044  23257820.531                    23257830.191
 128073510.665 7  99797612.105 6  24371581.445                    24371591.344
 109098934.920 8  85012220.511 7  20760836.805                    20760844.395
 108422567.014 8  84485181.410 8  20632108.383                    20632116.129
 117142902.705 7  91280264.02445  22291556.938                    22291565.926
 129359140.399 6 100799455.693 6  24616254.320                    24616263.613
 109599410.928 8  85402276.71446  20856057.461                    20856063.508
 11  8 22  1  3 30.0000000  0  9G25G10G04G17G12G05G30G29G02
 117998652.122 7  91947052.824 7  22454399.508                    22454410.160
 113013513.053 7  88062577.46245  21505731.883                    21505740.434
 122302885.571 7  95301079.30344  23273453.133                    23273462.754
 128143980.413 6  99852523.599 5  24384991.242                    24385001.316
 109091556.255 8  85006470.893 7  20759432.938                    20759440.664
 108376423.378 8  84449225.354 8  20623327.273                    20623335.344
 117082008.122 7  91232813.70445  22279969.805                    22279978.621
 129279436.617 6 100737348.865 6  24601086.852                    24601096.176
 109622379.057 8  85420173.94246  20860428.148                    20860434.172
 11  8 22  1  4  0.0000000  0  9G25G10G04G17G12G05G30G29G02
 117930538.816 8  91893977.523 7  22441437.492                    22441448.605
 113074537.620 7  88110129.05845  21517344.742                    21517352.891
 122385021.804 7  95365081.53744  23289082.648                    23289092.879
 128214636.520 6  99907580.257 5  24398436.031                    24398446.762
 109084758.737 8  85001174.123 7  20758139.289                    20758146.727
 108330815.925 8  84413687.110 8  20614648.516                    20614656.523
 117021625.065 7  91185761.98045  22268479.172                    22268488.172
 129199656.195 6 100675182.380 6  24585904.094                    24585915.098
 109645517.912 8  85438204.20046  20864831.523                    20864837.367
 11  8 22  1  4 30.0000000  0  9G25G10G04G17G12G05G30G29G02
 117862863.574 7  91841243.594 7  22428559.484                    22428570.504
 113136072.930 7  88158078.63645  21529054.305                    21529062.777
 122467141.869 7  95429071.17344  23304709.922                    23304720.188
 128285479.070 6  99962782.249 6  24411917.539                    24411927.914
 109078542.982 8  84996330.656 7  20756956.125                    20756964.109
 108285745.950 8  84378567.675 8  20606072.102                    20606080.473
 116961755.652 7  91139110.50445  22257086.008                    22257094.824
 129119799.596 6 100612956.498 5  24570708.625                    24570718.355
 109668826.274 8  85456366.55246  20869266.750                    20869272.789
 11  8 22  1  5  0.0000000  0  9G25G10G04G17G12G05G30G29G02
 117795628.699 7  91788852.788 7  22415765.227                    22415775.898
 113198116.795 7  88206424.48945  21540860.750                    21540869.504
 122549245.161 6  95493047.73444  23320334.352                    23320343.711
 128356507.908 6 100018129.383 5  24425433.453                    24425443.746
 109072908.939 8  84991940.484 7  20755884.313                    20755892.078
 108241215.055 8  84343868.304 8  20597597.906                    20597605.668
 116902402.070 7  91092860.97045  22245791.719                    22245800.160
 129039867.317 6 100550671.634 5  24555498.102                    24555507.813
 109692303.341 8  85474660.35746  20873734.195                    20873740.344
 11  8 22  1  5 30.0000000  0  9G25G10G04G17G12G05G30G29G02
 117728836.177 7  91736806.675 7  22403054.922                    22403065.594
 113260666.797 7  88255164.73645  21552763.406                    21552772.168
 122631330.320 7  95557010.14244  23335953.938                    23335964.281
 128427722.986 6 100073621.634 6  24438985.836                    24438996.563
 109067857.045 8  84988003.938 7  20754923.070                    20754930.613
 108197224.347 8  84309589.853 8  20589226.586                    20589234.922
 116843565.820 7  91047014.55045  22234595.789                    22234604.512
 128959859.831 6 100488328.186 5  24540273.016                    24540282.676
 109715947.529 8  85493084.39746  20878233.758                    20878240.098
 11  8 22  1  6  0.0000000  0  9G25G10G04G17G12G05G30G29G02
 117662488.609 7  91685107.284 7  22390428.969                    22390439.918
 113323721.020 7  88304297.88545  21564762.328                    21564771.039
 122713396.674 6  95620957.90844  23351571.297                    23351580.656
 128499124.276 6 100129259.002 6  24452573.234                    24452583.391
 109063387.886 8  84984521.463 7  20754072.406                    20754080.215
 108153775.412 8  84275733.562 8  20580958.766                    20580966.715
 116785249.365 7  91001573.16145  22223498.195                    22223507.168
 128879777.961 6 100425926.749 5  24525032.992                    24525042.891
 109739758.168 8  85511638.13046  20882764.484                    20882770.555
 11  8 22  1  6 30.0000000  0  9G25G10G04G17G12G05G30G29G02
 117596587.980 7  91633756.168 7  22377889.000                    22377899.660
 113387276.649 7  88353821.74945  21576856.586                    21576864.891
 122795443.344 6  95684890.33744  23367183.836                    23367193.105
 128570711.703 6 100185041.341 6  24466195.922                    24466206.348
 109059501.740 8  84981493.287 7  20753333.266                    20753341.016
 108110869.354 8  84242300.293 8  20572793.906                    20572801.906
 116727454.461 7  90956538.17745  22212500.656                    22212508.531
 128799621.987 6 100363467.544 5  24509780.461                    24509789.617
 109763733.938 8  85530320.53646  20887326.797                    20887333.055
 11  8 22  1  7  0.0000000  0  9G25G10G04G17G12G05G30G29G02
 117531136.820 7  91582755.277 7  22365433.867                    22365444.945
 113451331.412 7  88403734.52845  21589046.180                    21589054.500
 122877469.243 6  95748806.59044  23382792.805                    23382802.582
 128642485.059 6 100240968.613 6  24479853.438                    24479863.730
 109056198.516 7  84978919.329 7  20752704.680                    20752712.242
 108068507.593 8  84209291.149 8  20564732.313                    20564741.176
 116670183.257 7  90911911.28645  22201601.680                    22201610.590
 128719392.811 6 100300951.350 6  24494513.359                    24494523.379
 109787874.205 7  85549131.13846  20891920.836                    20891926.633
 11  8 22  1  7 30.0000000  0  9G25G10G04G17G12G05G30G29G02
 117466137.378 7  91532106.389 7  22353064.570                    22353075.887
 113515883.099 7  88454034.54045  21601329.930                    21601337.980
 122959473.769 6  95812706.17544  23398398.266                    23398407.730
 128714444.412 6 100297040.769 6  24493546.945                    24493557.387
 109053478.854 8  84976800.094 7  20752186.922                    20752194.855
 108026691.504 8  84176707.203 8  20556775.180                    20556783.363
 116613437.814 7  90867694.08445  22190803.664                    22190812.395
 128639091.032 7 100238378.549 5  24479232.977                    24479241.875
 109812178.033 8  85568069.17446  20896545.867                    20896551.797
 11  8 22  1  8  0.0000000  0  9G25G10G04G17G12G05G30G29G02
 117401592.230 7  91481811.500 7  22340781.969                    22340792.789
 113580929.723 7  88504720.20845  21613707.844                    21613716.188
 123041456.522 6  95876588.79643  23413998.961                    23414008.582
 128786590.074 6 100353258.154 6  24507275.227                    24507285.836
 109051343.466 7  84975136.154 7  20751780.781                    20751788.285
 107985422.823 8  84144549.814 8  20548922.102                    20548930.227
 116557220.382 7  90823888.30945  22180105.414                    22180114.633
 128558717.702 6 100175749.988 5  24463938.031                    24463947.348
 109836644.721 8  85587134.12746  20901201.203                    20901207.285
 11  8 22  1  8 30.0000000  0  8G25G10G04G12G05G30G29G02
 117337503.839 7  91431872.516 7  22328586.422                    22328597.328
 113646469.118 7  88555789.86145  21626179.391                    21626187.527
 123123416.630 6  95940453.76843  23429595.758                    23429605.379
 109049792.704 8  84973927.757 7  20751485.539                    20751493.148
 107944702.805 8  84112819.949 8  20541173.516                    20541181.633
 116501533.075 7  90780495.62845  22169508.836                    22169517.508
 128478273.755 6 100113066.440 6  24448630.000                    24448640.195
 109861273.447 8  85606325.34746  20905888.250                    20905894.352
 11  8 22  1  9  0.0000000  0  8G25G10G04G12G05G30G29G02
 117273873.196 7  91382290.237 7  22316477.891                    22316489.398
 113712497.475 7  88607240.51745  21638744.578                    21638752.676
 123205352.027 6  96004299.48243  23445187.234                    23445196.891
 109048825.980 8  84973174.451 7  20751301.703                    20751309.254
 107904531.791 8  84081517.882 8  20533529.227                    20533537.141
 116446376.690 7  90737516.64845  22159012.828                    22159021.301
 128397758.640 6 100050327.423 6  24433308.586                    24433318.051
 109886061.787 8  85625640.93346  20910605.453                    20910610.938
 11  8 22  1  9 30.0000000  0  8G25G10G04G12G05G30G29G02
 117210702.657 7  91333066.470 7  22304456.984                    22304467.930
 113779012.539 7  88659070.43545  21651401.664                    21651409.875
 123287262.147 6  96068125.50943  23460773.945                    23460783.637
 109048442.679 8  84972875.769 7  20751228.695                    20751236.844
 107864910.823 8  84050644.415 8  20525989.445                    20525997.504
 116391753.234 7  90694952.94745  22148617.984                    22148626.891
 128317173.087 6  99987533.513 6  24417973.313                    24417983.133
 109911009.062 8  85645080.37546  20915352.547                    20915358.785
 11  8 22  1 10  0.0000000  0  8G25G10G04G12G05G30G29G02
 117147994.938 7  91284203.347 7  22292524.047                    22292534.957
 113846012.490 7  88711278.18345  21664151.680                    21664160.102
 123369146.592 6  96131931.52244  23476356.359                    23476365.563
 109048643.858 8  84973032.517 8  20751267.133                    20751274.625
 107825841.604 8  84020200.891 8  20518554.758                    20518562.832
 116337665.156 7  90652806.42345  22138325.500                    22138334.379
 128236518.359 6  99924685.701 6  24402625.180                    24402635.199
 109936115.046 8  85664643.48946  20920130.133                    20920136.020
 11  8 22  1 10 30.0000000  0  8G25G10G04G12G05G30G29G02
 117085751.630 7  91235702.099 7  22280679.969                    22280690.773
 113913494.362 8  88763861.45845  21676992.938                    21677001.133
 123451004.208 6  96195716.64643  23491932.555                    23491943.266
 109049429.276 8  84973644.525 7  20751416.328                    20751424.141
 107787324.835 8  83990187.845 8  20511225.469                    20511233.387
 116284113.722 7  90611078.06045  22128134.828                    22128143.629
 128155794.518 6  99861784.049 6  24387264.039                    24387273.730
 109961378.107 8  85684329.00046  20924937.320                    20924943.621
 11  8 22  1 11  0.0000000  0  8G25G10G04G12G05G30G29G02
 117023975.124 7  91187564.602 7  22268923.953                    22268934.926
 113981455.911 8  88816818.50145  21689925.305                    21689933.785
 123532834.116 7  96259480.14843  23507505.234                    23507514.832
 109050799.439 8  84974712.178 7  20751677.055                    20751685.066
 107749361.801 8  83960606.276 8  20504001.313                    20504008.941
 116231100.966 7  90569769.45745  22118046.836                    22118056.047
 128075002.643 6  99798829.395 6  24371890.195                    24371899.605
 109986797.355 8  85704136.21546  20929774.445                    20929780.695
 11  8 22  1 11 30.0000000  0  8G25G10G04G12G05G30G29G02
 116962667.155 7  91139792.199 7  22257257.750                    22257268.246
 114049894.130 7  88870146.97345  21702948.836                    21702957.500
 123614635.402 7  96323221.34844  23523071.711                    23523081.449
 109052753.570 8  84976234.878 7  20752049.164                    20752056.613
 107711953.343 8  83931456.843 8  20496882.688                    20496890.543
 116178628.352 7  90528881.73045  22108062.016                    22108070.402
 127994142.971 7  99735821.888 6  24356503.133                    24356512.387
 110012371.425 8  85724064.07146  20934641.195                    20934647.359
 11  8 22  1 12  0.0000000  0  8G25G10G04G12G05G30G29G02
 116901830.352 7  91092386.910 7  22245680.523                    22245691.434
 114118807.037 7  88923845.34245  21716062.852                    21716071.008
 123696407.672 6  96386939.99444  23538632.398                    23538642.086
 109055292.448 8  84978213.216 7  20752532.086                    20752539.848
 107675100.939 8  83902740.711 8  20489869.664                    20489877.922
 116126698.102 7  90488416.63845  22098179.445                    22098188.441
 127913216.520 6  99672762.375 6  24341102.727                    24341112.930
 110038100.069 8  85744112.37246  20939537.320                    20939543.402
 11  8 22  1 12 30.0000000  0  8G25G10G04G12G05G30G29G02
 116841466.576 8  91045350.244 7  22234193.828                    22234204.578
 114188191.928 8  88977911.48745  21729265.859                    21729274.621
 123778149.809 6  96450635.12344  23554187.414                    23554197.227
 109058415.821 8  84980647.014 7  20753126.750                    20753134.180
 107638805.569 8  83874458.621 8  20482962.914                    20482970.977
 116075311.758 7  90448375.35245  22088401.188                    22088409.824
 127832223.928 7  99609651.335 6  24325690.234                    24325700.313
 110063981.886 8  85764280.03146  20944462.078                    20944468.176
 11  8 22  1 13  0.0000000  0  8G25G10G04G12G05G30G29G02
 116781577.505 8  90998683.446 7  22222797.102                    22222807.512
 114258045.977 7  89032343.21645  21742558.414                    21742567.250
 123859860.684 7  96514305.91544  23569736.289                    23569746.129
 109062123.211 8  84983535.889 7  20753832.047                    20753840.043
 107603067.418 8  83846610.730 8  20476162.313                    20476170.523
 116024470.708 7  90408758.96645  22078726.375                    22078735.199
 127751165.925 6  99546489.296 6  24310265.047                    24310275.301
 110090015.409 8  85784565.89646  20949416.141                    20949422.676
 11  8 22  1 13 30.0000000  0  8G25G10G04G12G05G30G29G02
 116722165.833 8  90952388.665 7  22211491.313                    22211502.371
 114328367.055 7  89087138.84545  21755940.133                    21755949.121
 123941540.206 7  96577952.26944  23585279.492                    23585289.434
 109066415.268 8  84986880.356 7  20754648.664                    20754656.324
 107567888.406 8  83819198.539 8  20469467.703                    20469476.266
 115974177.252 7  90369569.29445  22069155.930                    22069164.730
 127670043.430 6  99483277.001 6  24294828.125                    24294838.090
 110116200.592 8  85804969.94646  20954398.953                    20954405.324
 11  8 22  1 14  0.0000000  0  8G25G10G04G12G05G30G29G02
 116663233.305 8  90906467.222 7  22200276.953                    22200287.844
 114399152.386 7  89142296.23545  21769410.344                    21769418.875
 124023187.216 7  96641573.29244  23600816.219                    23600826.188
 109071291.650 8  84990680.128 7  20755576.633                    20755584.980
 107533269.202 8  83792222.557 8  20462880.234                    20462888.285
 115924432.754 7  90330807.35845  22059690.000                    22059698.938
 127588856.930 6  99420014.847 6  24279379.422                    24279388.625
 110142536.032 8  85825491.08246  20959410.688                    20959416.473
 11  8 22  1 14 30.0000000  0  8G25G10G04G12G05G30G29G02
 116604782.168 8  90860920.895 7  22189153.836                    22189165.148
 114470399.393 7  89197813.37745  21782968.297                    21782976.734
 124104801.387 7  96705168.74344  23616347.844                    23616357.086
 109076752.313 8  84994935.196 7  20756615.906                    20756623.441
 107499210.982 8  83765683.700 8  20456399.117                    20456406.980
 115875239.093 7  90292474.63745  22050328.953                    22050337.473
 127507607.439 6  99356703.617 6  24263917.641                    24263927.551
 110169021.206 8  85846128.88646  20964450.719                    20964456.953
 11  8 22  1 15  0.0000000  0  8G25G10G04G12G05G30G29G02
 116546813.936 8  90815750.835 7  22178123.016                    22178134.051
 114542105.042 7  89253687.90345  21796613.438                    21796621.781
 124186381.238 7  96768737.46244  23631871.813                    23631881.199
 109082796.935 8  84999645.289 7  20757766.125                    20757773.828
 107465714.114 8  83739582.262 8  20450024.680                    20450032.594
 115826597.442 7  90254572.06545  22041072.742                    22041081.250
 127426295.262 6  99293343.520 6  24248444.789                    24248454.434
 110195654.270 8  85866881.92646  20969518.555                    20969524.789
 11  8 22  1 15 30.0000000  0  8G25G10G04G12G05G30G29G02
 116489331.000 7  90770958.948 7  22167184.664                    22167195.551
 114614267.505 7  89309918.38645  21810345.438                    21810354.203
 124267926.382 7  96832279.13144  23647388.914                    23647398.438
 109089425.212 8  85004810.186 7  20759027.375                    20759035.270
 107432779.654 8  83713919.068 8  20443757.227                    20443765.219
 115778509.876 7  90217101.23545  22031921.930                    22031930.102
 127344921.626 6  99229935.555 6  24232959.602                    24232970.105
 110222434.803 8  85887749.88046  20974614.766                    20974620.891
 11  8 22  1 16  0.0000000  0  8G25G10G04G12G05G30G29G02
 116432335.187 8  90726546.630 7  22156338.406                    22156349.398
 114686883.981 7  89366502.64545  21824164.273                    21824172.320
 124349436.113 7  96895793.19644  23662899.680                    23662909.094
 109096637.108 8  85010429.837 7  20760400.016                    20760407.477
 107400408.704 8  83688694.973 8  20437597.383                    20437605.613
 115730977.834 7  90180063.28545  22022876.867                    22022885.465
 127263486.914 6  99166479.998 6  24217463.734                    24217473.141
 110249361.840 8  85908731.99346  20979738.914                    20979744.820
 11  8 22  1 16 30.0000000  0  8G25G10G04G12G05G30G29G02
 116375828.692 8  90682515.590 7  22145585.805                    22145596.469
 114759951.716 7  89423438.53445  21838068.766                    21838076.957
 124430909.965 7  96959279.32544  23678403.352                    23678413.570
 109104432.546 8  85016504.203 7  20761883.203                    20761891.102
 107368602.007 8  83663910.558 8  20431544.797                    20431552.801
 115684003.025 8  90143459.54045  22013937.719                    22013946.336
 127181992.100 6  99102977.594 6  24201954.984                    24201965.035
 110276434.583 8  85929827.63846  20984890.500                    20984896.871
 11  8 22  1 17  0.0000000  0  8G25G10G04G12G05G30G29G02
 116319813.530 8  90638867.400 7  22134926.625                    22134937.594
 114833468.148 7  89480724.05745  21852057.898                    21852066.348
 124512347.139 7  97022736.84944  23693900.734                    23693910.156
 109112811.251 8  85023033.049 7  20763477.828                    20763485.785
 107337360.643 8  83639566.654 8  20425599.781                    20425608.219
 115637587.149 8  90107291.32245  22005104.984                    22005113.688
 127100438.197 6  99039429.152 6  24186435.758                    24186445.766
 110303652.373 8  85951036.31046  20990070.016                    20990076.121
 11  8 22  1 17 30.0000000  0  8G25G10G04G12G05G30G29G02
 116264291.646 8  90595603.585 7  22124361.102                    22124371.484
 114907431.059 7  89538357.49645  21866132.477                    21866141.176
 124593746.900 7  97086165.24643  23709389.883                    23709400.203
 109121773.357 8  85030016.504 7  20765182.984                    20765190.797
 107306685.315 8  83615663.821 8  20419762.508                    20419770.465
 115591731.757 7  90071559.84445  21996379.063                    21996387.941
 127018826.013 6  98975835.295 6  24170905.422                    24170915.512
 110331014.153 7  85972357.17646  20995276.555                    20995282.785
 11  8 22  1 18  0.0000000  0  8G25G10G04G12G05G30G29G02
 116209264.680 8  90552725.430 7  22113889.695                    22113900.414
 114981837.271 7  89596336.35445  21880291.578                    21880299.883
 124675108.310 6  97149563.73243  23724872.063                    23724882.695
 109131317.852 8  85037453.760 7  20766999.313                    20767007.051
 107276576.596 8  83592202.496 8  20414032.852                    20414040.680
 115546438.081 8  90036266.05345  21987759.734                    21987768.801
 126937156.122 6  98912196.475 6  24155364.922                    24155373.961
 110358518.663 8  85993789.25346  21000510.859                    21000516.777
 11  8 22  1 18 30.0000000  0  8G25G10G04G12G05G30G29G02
 116154734.455 8  90510234.320 7  22103513.453                    22103524.020
 115056683.948 7  89654658.43945  21894534.703                    21894543.016
 124756430.813 6  97212931.87743  23740347.758                    23740358.387
 109141444.628 8  85045344.744 7  20768926.320                    20768934.246
 107247035.077 8  83569183.150 8  20408411.711                    20408419.547
 115501707.572 8  90001411.11945  21979248.203                    21979256.820
 126855429.461 6  98848513.400 6  24139811.805                    24139822.004
 110386165.073 8  86015331.91346  21005771.719                    21005777.730
 11  8 22  1 19  0.0000000  0  8G25G10G04G12G05G30G29G02
 116100702.928 8  90468131.820 7  22093231.039                    22093241.938
 115131968.440 7  89713321.67045  21908860.352                    21908869.492
 124837713.542 6  97276269.09643  23755815.828                    23755825.176
 109152153.306 8  85053689.155 7  20770964.602                    20770971.852
 107218061.708 8  83546606.525 8  20402897.742                    20402905.926
 115457541.667 8  89966996.11845  21970843.703                    21970852.133
 126773646.633 6  98784786.570 6  24124249.328                    24124258.863
 110413952.407 7  86036984.37446  21011059.492                    21011065.770
 11  8 22  1 19 30.0000000  0  8G25G10G04G12G05G30G29G02
 116047171.982 8  90426419.382 7  22083044.695                    22083055.031
 115207688.324 7  89772324.17645  21923270.063                    21923278.402
 124918955.958 6  97339574.83843  23771274.703                    23771285.094
 109163443.746 8  85062486.890 7  20773112.813                    20773120.539
 107189656.854 8  83524472.883 8  20397492.766                    20397500.645
 115413941.888 7  89933022.24945  21962546.703                    21962555.813
 126691808.626 6  98721016.730 6  24108676.219                    24108685.648
 110441879.814 8  86058745.98646  21016373.531                    21016379.820
 11  8 22  1 20  0.0000000  0  8G25G10G04G12G05G30G29G02
 115994143.766 8  90385098.694 7  22072953.414                    22072964.004
 115283841.021 7  89831663.93345  21937760.898                    21937769.684
 125000157.736 6  97402848.93543  23786728.125                    23786737.516
 109175315.584 8  85071737.655 7  20775371.641                    20775379.484
 107161821.462 8  83502782.989 8  20392195.477                    20392203.258
 115370909.997 7  89899490.91445  21954357.938                    21954366.461
 126609916.589 7  98657204.791 6  24093092.461                    24093101.746
 110469946.797 8  86080616.36046  21021714.820                    21021721.109
 11  8 22  1 20 30.0000000  0  8G25G10G04G12G05G30G29G02
 115941619.959 8  90344171.054 7  22062958.820                    22062969.535
 115360423.946 7  89891338.92445  21952334.406                    21952343.227
 125081318.099 6  97466090.76143  23802171.852                    23802181.355
 109187768.000 8  85081440.820 7  20777741.477                    20777748.953
 107134556.359 8  83481537.470 8  20387007.063                    20387015.211
 115328447.183 7  89866403.00045  21946278.039                    21946286.297
 126527971.159 7  98593351.232 6  24077499.406                    24077508.270
 110498152.382 8  86102594.72346  21027082.281                    21027088.590
 11  8 22  1 21  0.0000000  0  8G25G10G04G12G05G30G29G02
 115889602.057 8  90303637.618 7  22053059.930                    22053070.508
 115437433.755 7  89951346.54445  21966988.797                    21966997.625
 125162435.946 7  97529299.42643  23817608.055                    23817618.020
 109200800.855 8  85091596.277 7  20780221.563                    20780229.531
 107107861.953 8  83460736.652 8  20381927.445                    20381935.391
 115286554.496 7  89833759.35045  21938305.523                    21938314.320
 126445972.853 7  98529456.490 6  24061895.273                    24061904.707
 110526495.093 8  86124679.94946  21032475.297                    21032481.867
 11  8 22  1 21 30.0000000  0  8G25G10G04G12G05G30G29G02
 115838091.982 8  90263499.914 7  22043257.664                    22043268.613
 115514867.905 7  90011684.82745  21981724.180                    21981732.406
 125243511.056 6  97592474.81043  23833036.844                    23833046.551
 109214413.265 8  85102203.328 7  20782811.938                    20782819.383
 107081738.442 8  83440380.685 8  20376956.328                    20376964.293
 115245233.516 7  89801561.17845  21930442.891                    21930450.973
 126363922.892 7  98465521.471 6  24046281.219                    24046290.852
 110554974.391 8  86146871.60546  21037894.859                    21037901.078
 11  8 22  1 22  0.0000000  0  8G25G10G04G12G05G30G29G02
 115787091.781 8  90223759.501 7  22033552.789                    22033563.426
 115592724.124 7  90072352.00045  21996539.703                    21996548.641
 125324542.842 6  97655616.42243  23848456.172                    23848466.254
 109228605.025 8  85113261.826 7  20785512.492                    20785520.145
 107056187.138 8  83420470.600 8  20372093.961                    20372101.977
 115204485.685 7  89769809.63545  21922688.531                    21922696.832
 126281822.392 7  98401547.056 6  24030658.625                    24030667.387
 110583589.744 8  86169169.27846  21043340.328                    21043346.406
 11  8 22  1 22 30.0000000  0  8G25G10G04G12G05G30G29G02
 115736603.130 8  90184417.707 7  22023945.266                    22023956.426
 115670999.440 7  90133345.74045  22011434.914                    22011443.379
 125405530.610 6  97718723.70843  23863867.859                    23863877.504
 109243375.679 8  85124771.410 7  20788323.289                    20788330.594
 107031208.156 8  83401006.475 8  20367340.641                    20367348.582
 115164312.329 7  89738505.72145  21915044.086                    21915052.383
 126199671.951 6  98337533.761 6  24015025.188                    24015035.266
 110612340.050 8  86191572.09746  21048811.797                    21048817.520
 11  8 22  1 23  0.0000000  0  8G25G10G04G12G05G30G29G02
 115686627.365 8  90145475.558 7  22014435.039                    22014446.238
 115749690.728 7  90194663.60945  22026409.438                    22026418.266
 125486473.404 7  97781795.99143  23879270.578                    23879280.641
 109258724.439 8  85136731.463 7  20791244.070                    20791251.820
 107006801.745 8  83381988.514 8  20362696.445                    20362704.383
 115124714.305 7  89707650.12145  21907508.477                    21907517.344
 126117472.063 6  98273481.909 6  23999383.477                    23999392.809
 110641223.894 8  86214078.98846  21054307.539                    21054313.633
 11  8 22  1 23 30.0000000  0  8G25G10G04G12G05G30G29G02
 115637166.862 8  90106934.927 7  22005023.078                    22005033.887
 115828796.086 7  90256304.12745  22041462.203                    22041471.316
 125567371.376 7  97844833.36143  23894665.000                    23894674.816
 109274651.108 8  85149141.839 7  20794274.516                    20794282.578
 106982969.115 8  83363417.656 8  20358161.172                    20358168.965
 115085693.509 7  89677244.30345  21900082.930                    21900091.355
 126035224.562 6  98209392.990 6  23983732.305                    23983741.832
 110670241.606 8  86236690.18246  21059829.781                    21059835.656
 11  8 22  1 24  0.0000000  0  8G25G10G04G12G05G30G29G02
 115588222.371 8  90068796.380 7  21995709.359                    21995720.332
 115908311.594 7  90318264.24545  22056594.250                    22056602.852
 125648223.234 6  97907834.77143  23910050.898                    23910060.523
 109291154.652 8  85162001.720 7  20797415.516                    20797423.293
 106959709.831 8  83345293.555 8  20353734.750                    20353742.855
 115047250.288 7  89647288.56345  21892767.391                    21892776.438
 125952929.546 7  98145267.027 6  23968072.281                    23968081.883
 110699391.136 8  86259404.10246  21065376.602                    21065382.879
 11  8 22  1 24 30.0000000  0  8G25G10G04G12G05G30G29G02
 115539796.422 8  90031061.887 7  21986493.594                    21986505.188
 115988235.332 7  90380542.47045  22071802.898                    22071811.590
 125729028.632 6  97970799.97743  23925427.453                    23925438.008
 109308234.798 8  85175310.917 7  20800665.742                    20800673.500
 106937024.831 8  83327616.952 8  20349417.938                    20349426.223
 115009386.606 7  89617784.39145  21885562.750                    21885571.148
 125870588.868 6  98081105.490 6  23952403.219                    23952412.996
 110728672.363 8  86282220.64146  21070948.797                    21070954.813
 11  8 22  1 25  0.0000000  0  8G25G10G04G12G05G30G29G02
 115491890.666 8  89993732.750 7  21977377.680                    21977388.535
 116068564.443 7  90443136.56945  22087088.906                    22087098.180
 125809787.275 6  98033728.77244  23940795.031                    23940805.465
 109325890.583 8  85189068.657 7  20804025.859                    20804033.207
 106914914.769 8  83310388.356 8  20345210.789                    20345218.992
 114972103.731 7  89588732.81345  21878467.945                    21878475.969
 125788203.265 6  98016908.932 6  23936725.461                    23936735.496
 110758084.683 8  86305139.31546  21076545.859                    21076551.660
 11  8 22  1 25 30.0000000  0  8G25G10G04G12G05G30G29G02
 115444506.502 8  89956810.041 7  21968361.180                    21968372.211
 116149296.059 7  90506044.29645  22102451.820                    22102460.488
 125890498.494 6  98096620.60144  23956154.773                    23956164.602
 109344121.681 8  85203274.695 7  20807494.641                    20807502.301
 106893379.761 8  83293607.842 8  20341112.852                    20341120.633
 114935402.533 7  89560134.47945  21871483.875                    21871492.410
 125705773.320 6  97952677.837 6  23921039.430                    23921049.625
 110787626.952 8  86328159.26146  21082167.523                    21082173.449
 11  8 22  1 26  0.0000000  0  8G25G10G04G12G05G30G29G02
 115397645.327 8  89920294.848 7  21959443.484                    21959454.836
 116230427.149 7  90569263.31045  22117890.625                    22117899.168
 125971161.453 6  98159474.82644  23971503.867                    23971514.039
 109362927.011 8  85217928.182 7  20811073.320                    20811080.984
 106872419.977 8  83277275.569 8  20337123.891                    20337132.563
 114899283.921 7  89531990.11045  21864610.719                    21864619.246
 125623300.062 6  97888412.978 6  23905345.734                    23905354.602
 110817298.080 8  86351279.61146  21087813.617                    21087819.738
 11  8 22  1 26 30.0000000  0  8G25G10G04G12G05G30G29G02
 115351308.863 8  89884188.530 7  21950626.141                    21950636.797
 116311955.101 7  90632791.56445  22133404.773                    22133413.707
 126051775.784 6  98222291.17543  23986844.813                    23986854.605
 109382305.690 8  85233028.445 7  20814760.891                    20814768.602
 106852035.926 8  83261391.910 8  20333245.383                    20333253.242
 114863749.014 7  89504300.57845  21857848.523                    21857857.141
 125540784.619 7  97824115.244 6  23889643.336                    23889652.445
 110847097.390 8  86374499.85046  21093484.250                    21093490.402
 11  8 22  1 27  0.0000000  0  8G25G10G04G12G05G30G29G02
 115305498.663 8  89848492.290 7  21941908.563                    21941919.285
 116393877.015 7  90696626.80745  22148994.234                    22149002.566
 126132340.991 7  98285069.23143  24002175.930                    24002185.516
 109402257.123 8  85248575.008 7  20818557.555                    20818565.133
 106832227.625 8  83245956.894 8  20329475.492                    20329483.777
 114828798.999 7  89477066.79545  21851198.000                    21851206.891
 125458227.841 6  97759785.307 6  23873933.281                    23873942.836
 110877024.099 8  86397819.35346  21099179.156                    21099185.422
 11  8 22  1 27 30.0000000  0  8G25G10G04G12G05G30G29G02
 115260216.473 8  89813207.472 7  21933291.680                    21933302.574
 116476189.979 7  90760766.75545  22164657.875                    22164666.426
 126212856.489 6  98347808.57243  24017497.375                    24017506.688
 109422780.536 8  85264567.267 7  20822463.320                    20822470.973
 106812995.485 8  83230970.835 8  20325815.961                    20325824.230
 114794435.032 7  89450289.68045  21844658.078                    21844667.109
 125375630.644 7  97695423.881 6  23858215.281                    23858224.879
 110907077.371 8  86421237.48746  21104898.000                    21104904.203
 11  8 22  1 28  0.0000000  0  8G25G10G04G12G05G30G29G02
 115215463.402 8  89778334.958 7  21924775.742                    21924786.414
 116558890.989 7  90825209.07944  22180395.508                    22180403.891
 126293321.661 6  98410508.66443  24032808.992                    24032819.547
 109443874.840 8  85281004.380 7  20826477.109                    20826485.254
 106794339.725 8  83216433.893 8  20322266.195                    20322273.707
 114760657.802 7  89423969.76045  21838231.063                    21838239.348
 125292993.884 7  97631031.591 6  23842490.570                    23842499.668
 110937256.174 8  86444753.42846  21110640.742                    21110646.871
 11  8 22  1 28 30.0000000  0  8G25G10G04G12G05G30G29G02
 115171241.366 8  89743876.235 7  21916360.203                    21916371.141
 116641977.756 7  90889952.00045  22196206.344                    22196214.965
 126373736.293 6  98473169.41243  24048110.953                    24048121.484
 109465539.881 8  85297886.219 7  20830599.922                    20830607.883
 106776260.769 8  83202346.417 8  20318825.734                    20318833.609
 114727468.634 7  89398108.06545  21831915.094                    21831923.738
 125210318.682 7  97566609.396 6  23826757.461                    23826767.391
 110967560.223 8  86468366.97246  21116407.273                    21116413.398
 11  8 22  1 29  0.0000000  0  8G25G10G04G12G05G30G29G02
 115127551.979 8  89709832.563 7  21908046.688                    21908057.527
 116725447.336 7  90954993.20845  22212089.883                    22212098.473
 126454099.815 6  98535790.28943  24063403.883                    24063414.344
 109487774.239 8  85315211.688 7  20834830.789                    20834838.613
 106758758.886 8  83188708.598 8  20315495.320                    20315503.285
 114694868.646 7  89372705.48445  21825711.742                    21825720.430
 125127606.689 7  97502158.512 6  23811018.172                    23811027.461
 110997988.807 8  86492077.55446  21122198.016                    21122204.152
 11  8 22  1 29 30.0000000  0  8G25G10G04G12G05G30G29G02
 115084396.426 8  89676204.861 7  21899834.641                    21899845.539
 116809296.844 7  91020330.45945  22228046.078                    22228054.582
 126534411.594 6  98598370.88243  24078686.180                    24078696.715
 109510576.902 8  85332979.988 7  20839170.164                    20839177.820
 106741834.198 8  83175520.553 8  20312274.414                    20312282.418
 114662858.503 7  89347762.51445  21819620.531                    21819629.215
 125044858.398 7  97437679.339 6  23795271.680                    23795280.734
 111028540.664 8  86515884.20446  21128011.602                    21128017.785
 11  8 22  1 30  0.0000000  0  8G25G10G04G12G05G30G29G02
 115041776.283 8  89642994.365 7  21891723.938                    21891734.746
 116893523.336 7  91085961.47045  22244073.641                    22244082.121
 126614671.286 6  98660910.90743  24093959.555                    24093969.738
 109533947.605 8  85351190.912 7  20843617.586                    20843625.367
 106725486.654 8  83162782.220 8  20309163.391                    20309171.660
 114631439.209 7  89323279.94545  21813641.492                    21813650.074
 124962075.093 7  97373172.911 6  23779518.586                    23779527.742
 111059215.449 8  86539786.62946  21133849.000                    21133854.863
 11  8 22  1 30 30.0000000  0  8G25G10G04G12G05G30G29G02
 114999693.156 8  89610202.320 7  21883715.570                    21883726.129
 116978124.253 7  91151884.23145  22260172.922                    22260181.414
 126694878.453 6  98723409.98143  24109222.148                    24109232.840
 109557884.998 8  85369843.420 7  20848172.773                    20848180.516
 106709716.716 8  83150493.971 8  20306162.617                    20306170.785
 114600611.942 7  89299258.69645  21807775.148                    21807783.637
 124879257.833 7  97308640.004 6  23763759.336                    23763768.121
 111090012.401 8  86563784.26346  21139709.344                    21139715.277
 11  8 22  1 31  0.0000000  0  8G25G10G04G12G05G30G29G02
 114958148.388 8  89577829.779 7  21875809.742                    21875820.840
 117063096.776 7  91218096.56745  22276342.750                    22276351.328
 126775032.732 6  98785867.81243  24124475.344                    24124485.684
 109582388.132 8  85388936.759 7  20852835.469                    20852843.055
 106694524.409 8  83138655.829 8  20303271.648                    20303279.746
 114570377.271 7  89275699.20845  21802021.695                    21802030.559
 124796407.623 7  97244081.424 6  23747993.531                    23748002.293
 111120930.772 8  86587876.50646  21145592.984                    21145598.938
 11  8 22  1 31 30.0000000  0  8G25G10G04G12G05G30G29G02
 114917143.384 8  89545877.833 7  21868006.945                    21868017.797
 117148437.804 7  91284596.05845  22292582.133                    22292591.016
 126855133.561 6  98848283.97743  24139717.992                    24139728.781
 109607456.041 8  85408470.182 7  20857606.000                    20857613.547
 106679909.843 8  83127267.870 8  20300490.414                    20300498.555
 114540736.333 8  89252602.37245  21796381.250                    21796389.996
 124713525.669 7  97179498.118 6  23732221.531                    23732230.250
 111151969.804 8  86612062.76346  21151499.195                    21151505.797
 11  8 22  1 32  0.0000000  0  8G25G10G04G12G05G30G29G02
 114876679.520 8  89514347.554 7  21860307.148                    21860317.863
 117234144.570 7  91351380.51445  22308892.000                    22308900.363
 126935180.539 6  98910658.23043  24154951.008                    24154961.418
 109633087.709 8  85428442.898 7  20862483.281                    20862490.773
 106665872.850 8  83116329.973 8  20297819.508                    20297827.520
 114511689.697 7  89229968.63345  21790853.867                    21790862.137
 124630613.045 7  97114890.906 6  23716442.984                    23716452.563
 111183128.758 8  86636342.46446  21157428.859                    21157435.203
 11  8 22  1 32 30.0000000  0  8G25G10G04G12G05G30G29G02
 114836758.075 8  89483239.932 7  21852710.266                    21852720.871
 117320214.594 7  91418448.05145  22325270.602                    22325278.957
 127015173.040 6  98972989.99543  24170172.906                    24170182.938
 109659281.941 8  85448853.986 7  20867467.805                    20867475.563
 106652413.635 8  83105842.283 8  20295258.133                    20295266.500
 114483238.280 7  89207798.70445  21785439.773                    21785448.043
 124547670.777 7  97050260.597 6  23700659.492                    23700669.320
 111214406.639 8  86660714.84646  21163380.711                    21163387.004
 11  8 22  1 33  0.0000000  0  8G25G10G04G12G05G30G29G02
 114797380.389 8  89452556.034 7  21845216.977                    21845227.613
 117406644.501 7  91485796.00044  22341717.297                    22341726.504
 127095110.867 6  99035279.19643  24185383.984                    24185394.582
 109686037.739 8  85469702.646 7  20872559.125                    20872566.840
 106639532.154 8  83095804.771 8  20292806.984                    20292814.855
 114455382.725 7  89186093.08145  21780139.031                    21780147.734
 124464700.160 7  96985608.215 6  23684870.289                    23684880.633
 111245803.067 8  86685179.59346  21169355.422                    21169361.574
 11  8 22  1 33 30.0000000  0  8G25G10G04G12G05G30G29G02
 114758547.824 8  89422296.906 7  21837827.563                    21837838.223
 117493431.255 7  91553422.02645  22358232.578                    22358241.219
 127174993.591 6  99097525.45443  24200585.648                    24200595.906
 109713354.206 8  85490988.191 7  20877757.141                    20877765.195
 106627228.456 8  83086217.496 8  20290465.836                    20290473.359
 114428123.855 7  89164852.40845  21774951.656                    21774960.613
 124381702.050 6  96920934.401 6  23669076.578                    23669086.516
 111277317.258 8  86709736.10646  21175352.219                    21175358.578
 11  8 22  1 34  0.0000000  0  8G25G10G04G12G05G30G29G02
 114720261.288 8  89392463.246 7  21830541.703                    21830552.449
 117580572.069 7  91621323.93744  22374814.953                    22374823.668
 127254820.386 6  99159728.09743  24215776.078                    24215786.453
 109741230.245 8  85512709.774 7  20883062.023                    20883069.875
 106615502.087 8  83077080.073 8  20288234.133                    20288242.531
 114401462.103 7  89144077.02545  21769878.047                    21769886.504
 124298677.436 6  96856239.927 6  23653278.406                    23653287.422
 111308948.086 8  86734383.49546  21181371.672                    21181377.473
 11  8 22  1 34 30.0000000  0  8G25G10G04G12G05G30G29G02
 114682522.356 8  89363056.298 7  21823360.250                    21823370.840
 117668063.963 7  91689499.41645  22391464.063                    22391473.039
 127334591.222 6  99221887.13143  24230956.164                    24230966.094
 109769664.129 8  85534866.027 7  20888473.070                    20888480.477
 106604353.184 8  83068392.630 8  20286112.539                    20286120.680
 114375398.389 7  89123767.64945  21764918.242                    21764927.102
 124215627.646 7  96791525.838 6  23637473.672                    23637483.613
 111340694.988 8  86759121.34446  21187412.859                    21187419.012
 11  8 22  1 35  0.0000000  0  8G25G10G04G12G05G30G29G02
 114645332.861 8  89334077.480 7  21816283.164                    21816293.602
 117755904.905 7  91757946.90044  22408179.672                    22408188.242
 127414306.153 6  99284002.62543  24246125.359                    24246135.414
 109798655.388 8  85557456.609 7  20893989.727                    20893997.508
 106593782.171 8  83060155.492 8  20284101.219                    20284109.102
 114349933.926 7  89103925.23045  21760072.789                    21760081.734
 124132554.544 6  96726793.567 6  23621665.469                    23621675.113
 111372558.316 8  86783949.90546  21193476.039                    21193482.426
 11  8 22  1 35 30.0000000  0  9G25G10G04G26G12G05G30G29G02
 114608693.176 8  89305527.085 7  21809310.797                    21809321.418
 117844091.294 7  91826663.53444  22424960.813                    22424969.961
 127493964.093 6  99346073.71843  24261283.859                    24261293.793
 130550112.12216 101727444.31353  24842868.578                    24842881.211
 109828202.395 8  85580480.233 7  20899612.547                    20899620.078
 106583788.036 8  83052367.867 8  20282198.961                    20282207.016
 114325068.575 7  89084549.62645  21755341.125                    21755349.176
 124049458.290 7  96662043.273 6  23605852.914                    23605862.105
 111404536.167 7  86808867.71546  21199561.070                    21199567.359
 11  8 22  1 36  0.0000000  0  9G25G10G04G26G12G05G30G29G02
 114572604.915 8  89277406.384 7  21802443.391                    21802454.254
 117932620.476 7  91895647.28944  22441807.406                    22441815.852
 127573565.109 6  99408100.42743  24276431.883                    24276441.465
 130458162.238 6 101655795.19443  24825372.133                    24825384.066
 109858304.364 8  85603936.307 7  20905340.750                    20905348.691
 106574371.446 8  83045030.277 8  20280407.086                    20280415.242
 114300803.275 7  89065641.61745  21750723.633                    21750731.652
 123966340.550 7  96597276.218 6  23590035.680                    23590046.035
 111436628.533 8  86833874.74946  21205668.547                    21205674.453
 11  8 22  1 36 30.0000000  0  9G25G10G04G26G12G05G30G29G02
 114537069.206 8  89249716.238 7  21795681.078                    21795691.730
 118021489.708 7  91964896.01744  22458718.906                    22458727.988
 127653108.723 6  99470082.45943  24291568.344                    24291578.469
 130366076.050 6 101584039.88943  24807848.602                    24807860.273
 109888959.621 8  85627823.500 7  20911174.164                    20911182.176
 106565532.046 8  83038142.449 8  20278724.898                    20278732.910
 114277138.622 8  89047201.63245  21746220.273                    21746228.910
 123883202.554 7  96532493.415 6  23574215.070                    23574225.430
 111468834.387 8  86858970.21446  21211797.156                    21211803.195
 11  8 22  1 37  0.0000000  0  9G25G10G04G26G12G05G30G29G02
 114502086.925 8  89222457.327 7  21789024.375                    21789034.691
 118110695.893 7  92034407.32644  22475694.047                    22475702.703
 127732594.292 6  99532019.24243  24306693.359                    24306703.438
 130273856.020 6 101512180.29543  24790298.406                    24790311.418
 109920167.045 8  85652140.963 7  20917112.898                    20917120.676
 106557268.923 8  83031703.664 8  20277152.813                    20277161.113
 114254074.949 8  89029229.94845  21741830.930                    21741839.844
 123800045.185 7  96467695.467 6  23558390.766                    23558400.598
 111501152.949 7  86884153.51846  21217946.586                    21217953.051
 11  8 22  1 37 30.0000000  0  9G25G10G04G26G12G05G30G29G02
 114467659.498 8  89195630.778 7  21782473.086                    21782483.910
 118200236.149 7  92104178.92144  22492732.859                    22492741.762
 127812021.854 6  99593910.82942  24321808.063                    24321817.914
 130181505.190 6 101440218.78043  24772726.281                    24772737.199
 109951925.420 8  85676887.736 7  20923156.219                    20923163.715
 106549582.568 8  83025714.316 8  20275690.180                    20275698.242
 114231612.924 8  89011727.07445  21737557.094                    21737565.445
 123716869.988 7  96402883.679 6  23542562.828                    23542573.258
 111533583.827 7  86909424.33346  21224118.578                    21224124.383
 11  8 22  1 38  0.0000000  0  9G25G10G04G26G12G05G30G29G02
 114433787.933 8  89169237.353 7  21776027.344                    21776038.078
 118290107.752 7  92174208.72144  22509835.266                    22509843.742
 127891390.889 6  99655756.83243  24336912.234                    24336921.887
 130089026.486 6 101368157.66543  24755126.906                    24755139.398
 109984233.353 8  85702062.729 7  20929303.992                    20929311.980
 106542472.689 8  83020174.168 8  20274337.313                    20274345.520
 114209753.086 8  88994693.43545  21733397.047                    21733406.145
 123633677.929 7  96338058.730 6  23526732.508                    23526741.770
 111566126.207 8  86934782.03546  21230310.797                    21230317.547
 11  8 22  1 38 30.0000000  0  9G25G10G04G26G12G05G30G29G02
 114400473.201 8  89143277.833 7  21769687.672                    21769698.414
 118380307.528 7  92244494.23344  22526999.469                    22527008.016
 127970700.763 6  99717556.69843  24352003.945                    24352013.906
 129996422.642 6 101295999.00943  24737505.266                    24737516.707
 110017089.351 8  85727664.793 7  20935556.500                    20935564.371
 106535938.475 8  83015082.586 8  20273093.422                    20273101.371
 114188495.750 8  88978129.28245  21729352.047                    21729360.477
 123550470.248 7  96273221.615 6  23510898.539                    23510908.313
 111598779.504 8  86960226.15846  21236524.625                    21236531.215
 11  8 22  1 39  0.0000000  0  9G25G10G04G26G12G05G30G29G02
 114367716.395 8  89117753.054 7  21763454.453                    21763465.281
 118470832.624 6  92315033.23344  22544226.148                    22544234.645
 128049951.500 6  99779310.47943  24367084.594                    24367094.793
 129903696.508 6 101223745.06543  24719859.414                    24719871.203
 110050492.254 8  85753693.010 7  20941913.086                    20941920.680
 106529979.916 8  83010439.568 8  20271959.805                    20271968.023
 114167841.317 8  88962034.90845  21725421.695                    21725430.344
 123467248.281 6  96208373.356 6  23495062.289                    23495071.383
 111631543.177 7  86985756.28846  21242759.375                    21242765.184
 11  8 22  1 39 30.0000000  0  9G25G10G04G26G12G05G30G29G02
 114335518.601 7  89092663.871 7  21757327.172                    21757337.840
 118561680.128 7  92385823.47144  22561513.594                    22561522.426
 128129142.794 6  99841017.95143  24382154.211                    24382165.324
 129810850.813 6 101151397.96443  24702192.336                    24702203.355
 110084440.877 8  85780146.476 7  20948373.086                    20948381.008
 106524596.724 8  83006244.890 8  20270935.414                    20270943.211
 114147790.325 8  88946410.75545  21721606.039                    21721614.676
 123384013.484 7  96143515.109 6  23479222.852                    23479232.570
 111664416.557 8  87011371.91446  21249014.867                    21249020.930
 11  8 22  1 40  0.0000000  0  9G25G10G04G26G12G05G30G29G02
 114303881.029 8  89068011.218 7  21751307.117                    21751317.738
 118652847.340 6  92456862.84244  22578862.242                    22578870.938
 128208274.393 6  99902678.94843  24397213.000                    24397223.176
 129717888.846 6 101078960.26243  24684501.508                    24684512.898
 110118933.434 8  85807023.773 7  20954936.664                    20954944.289
 106519788.803 8  83002498.473 8  20270020.633                    20270028.480
 114128343.376 8  88931257.27945  21717905.586                    21717914.469
 123300766.784 7  96078647.578 6  23463381.414                    23463390.852
 111697399.166 8  87037072.64446  21255291.453                    21255297.332
 11  8 22  1 40 30.0000000  0  9G25G10G04G26G12G05G30G29G02
 114272804.484 8  89043795.738 7  21745393.156                    21745404.078
 118744331.303 6  92528149.01044  22596270.961                    22596280.059
 128287346.002 6  99964293.19143  24412259.328                    24412270.199
 129624813.157 6 101006433.91743  24666790.633                    24666800.832
 110153968.534 7  85834323.843 7  20961603.688                    20961611.566
 106515555.561 8  82999199.857 8  20269214.578                    20269222.613
 114109500.645 8  88916574.63745  21714319.539                    21714328.367
 123217509.513 7  96013771.830 6  23447537.922                    23447547.754
 111730490.196 7  87062857.86346  21261588.109                    21261594.531
 11  8 22  1 41  0.0000000  0  9G25G10G04G26G12G05G30G29G02
 114242289.970 8  89020018.189 7  21739586.680                    21739597.324
 118836129.033 7  92599679.67044  22613739.531                    22613748.488
 128366357.063 6 100025860.21943  24427295.148                    24427305.367
 129531626.897 6 100933821.40543  24649057.305                    24649068.258
 110189544.840 8  85862045.624 7  20968373.266                    20968381.555
 106511896.621 8  82996348.745 8  20268518.547                    20268526.488
 114091262.422 8  88902363.02145  21710849.414                    21710858.395
 123134243.373 7  95948889.180 6  23431692.656                    23431702.512
 111763689.121 8  87088727.14846  21267906.078                    21267912.164
 11  8 22  1 41 30.0000000  0  9G25G10G04G26G12G05G30G29G02
 114212338.404 8  88996679.316 7  21733887.242                    21733898.168
 118928237.702 7  92671452.63544  22631267.188                    22631276.469
 128445307.669 6 100087380.16243  24442319.406                    24442329.379
 129438332.822 6 100861124.90643  24631303.742                    24631314.316
 110225660.802 8  85890187.914 7  20975246.453                    20975254.324
 106508811.355 8  82993944.659 8  20267931.352                    20267939.531
 114073629.080 8  88888622.74145  21707493.781                    21707502.453
 123050969.137 7  95884000.220 6  23415846.547                    23415856.203
 111796995.527 8  87114680.18446  21274243.883                    21274250.027
 11  8 22  1 42  0.0000000  0  9G25G10G04G26G12G05G30G29G02
 114182950.792 8  88973779.870 7  21728294.656                    21728305.031
 119020654.363 6  92743465.57944  22648853.586                    22648862.148
 128524197.474 6 100148852.74243  24457330.797                    24457341.055
 129344934.015 6 100788346.80843  24613529.844                    24613541.199
 110262315.169 8  85918749.737 7  20982221.133                    20982229.152
 106506299.647 8  82991987.502 8  20267453.344                    20267461.344
 114056600.946 8  88875354.07445  21704253.117                    21704261.699
 122967688.242 7  95819106.046 6  23399997.859                    23400007.883
 111830408.627 8  87140716.35846  21280602.266                    21280608.215
 11  8 22  1 42 30.0000000  0  9G25G10G04G26G12G05G30G29G02
 114154127.960 8  88951320.520 7  21722809.680                    21722820.563
 119113376.095 7  92815716.23844  22666497.680                    22666506.832
 128603025.970 6 100210277.53542  24472331.867                    24472341.449
 129251433.318 6 100715489.31143  24595736.969                    24595748.594
 110299506.255 8  85947729.792 7  20989298.633                    20989306.387
 106504360.740 8  82990476.680 8  20267084.563                    20267092.742
 114040178.203 8  88862557.11045  21701128.258                    21701136.914
 122884402.029 7  95754207.736 6  23384149.852                    23384159.332
 111863927.873 8  87166835.24346  21286980.641                    21286986.516
 11  8 22  1 43  0.0000000  0  9G25G10G04G26G12G05G30G29G02
 114125870.798 8  88929301.949 7  21717433.016                    21717443.758
 119206400.319 7  92888202.62344  22684199.609                    22684209.215
 128681793.198 6 100271654.60543  24487319.766                    24487330.688
 129157833.653 6 100642554.65243  24577925.078                    24577937.324
 110337232.190 8  85977126.606 7  20996477.656                    20996485.711
 106502994.399 8  82989412.013 8  20266824.445                    20266832.648
 114024361.129 8  88850232.10545  21698118.383                    21698126.867
 122801111.928 7  95689306.398 6  23368300.633                    23368309.551
 111897552.566 7  87193036.29946  21293379.289                    21293385.004
 11  8 22  1 43 30.0000000  0  9G25G10G04G26G12G05G30G29G02
 114098180.090 8  88907724.765 7  21712163.453                    21712174.652
 119299723.900 7  92960922.26344  22701958.977                    22701967.656
 128760498.651 6 100332983.52843  24502297.969                    24502307.660
 129064137.997 6 100569545.20042  24560096.078                    24560107.293
 110375491.698 8  86006939.195 7  21003758.141                    21003765.965
 106502199.761 8  82988792.831 8  20266673.273                    20266680.887
 114009149.783 8  88838379.09345  21695223.516                    21695232.441
 122717819.125 6  95624402.956 6  23352449.406                    23352458.867
 111931282.373 8  87219319.25446  21299797.883                    21299803.910
 11  8 22  1 44  0.0000000  0  9G25G10G04G26G12G05G30G29G02
 114071056.635 8  88886589.605 7  21707002.000                    21707012.531
 119393343.553 7  93033872.61744  22719774.891                    22719782.969
 128839142.039 6 100394264.07743  24517262.922                    24517272.965
 128970349.360 6 100496463.29943  24542248.703                    24542259.617
 110414283.179 8  86037166.306 7  21011140.109                    21011147.867
 106501976.348 8  82988618.755 8  20266630.570                    20266638.914
 113994544.332 8  88826998.21945  21692444.023                    21692453.051
 122634525.005 6  95559498.492 6  23336599.641                    23336608.844
 111965116.291 8  87245683.33246  21306235.984                    21306242.488
 11  8 22  1 44 30.0000000  0  9G25G10G04G26G12G05G30G29G02
 114044501.380 8  88865897.198 7  21701948.664                    21701959.449
 119487256.602 7  93107051.59444  22737645.461                    22737654.078
 128917723.338 6 100455496.27643  24532216.414                    24532226.582
 128876470.817 6 100423311.36143  24524384.180                    24524394.918
 110453605.258 8  86067806.870 7  21018622.984                    21018630.664
 106502324.005 8  82988889.673 8  20266696.625                    20266704.953
 113980545.125 8  88816089.73545  21689780.555                    21689788.898
 122551231.034 7  95494594.134 6  23320748.914                    23320758.492
 111999054.129 7  87272128.39146  21312694.250                    21312700.445
 11  8 22  1 45  0.0000000  0  9G25G10G04G26G12G05G30G29G02
 114018515.086 8  88845648.123 7  21697003.773                    21697014.352
 119581460.215 7  93180456.98444  22755571.914                    22755580.293
 128996242.201 6 100516679.80943  24547158.477                    24547168.922
 128782505.272 6 100350091.58743  24506502.672                    24506513.793
 110493455.974 8  86098859.359 7  21026206.422                    21026214.109
 106503241.590 8  82989604.695 8  20266871.484                    20266879.559
 113967152.218 8  88805653.68845  21687232.109                    21687240.250
 122467938.597 6  95429690.973 6  23304899.070                    23304908.375
 112033095.682 8  87298654.26346  21319172.055                    21319178.707
 11  8 22  1 45 30.0000000  0  9G25G10G04G26G12G05G30G29G02
 113993098.246 8  88825842.791 7  21692167.133                    21692177.445
 119675951.584 7  93254086.59244  22773552.359                    22773561.766
 129074698.389 6 100577814.47343  24562088.523                    24562098.621
 128688455.600 6 100276806.30343  24488604.875                    24488616.281
 110533833.621 8  86130322.442 7  21033889.633                    21033897.457
 106504728.479 8  82990763.325 8  20267154.438                    20267162.293
 113954365.430 8  88795689.94945  21684798.469                    21684806.996
 122384648.907 6  95364789.949 6  23289049.484                    23289058.625
 112067239.780 7  87325260.04346  21325669.617                    21325675.508
 11  8 22  1 46  0.0000000  0  9G25G10G04G26G12G05G30G29G02
 113968251.801 8  88806481.920 7  21687439.031                    21687449.637
 119770727.937 7  93327938.28444  22791588.367                    22791596.871
 129153091.746 6 100638900.21543  24577004.938                    24577016.805
 128594324.907 6 100203457.86743  24470692.734                    24470703.648
 110574736.903 8  86162195.109 7  21041673.344                    21041681.723
 106506784.348 8  82992365.319 8  20267545.383                    20267553.785
 113942185.060 8  88786198.74645  21682480.438                    21682489.488
 122301363.243 7  95299892.048 6  23273200.672                    23273209.766
 112101485.958 7  87351945.36346  21332186.391                    21332192.570
 11  8 22  1 46 30.0000000  0  9G25G10G04G26G12G05G30G29G02
 113943976.333 8  88787565.961 7  21682819.359                    21682830.246
 119865786.073 7  93402009.53244  22809677.727                    22809686.098
 129231422.060 6 100699936.80043  24591911.898                    24591921.781
 128500116.285 6 100130048.68743  24452765.297                    24452776.898
 110616163.527 8  86194475.578 7  21049556.445                    21049564.578
 106509408.346 8  82994410.006 8  20268045.313                    20268052.898
 113930610.974 8  88777179.96745  21680278.188                    21680287.055
 122218083.020 7  95234998.385 6  23257352.969                    23257362.496
 112135833.528 7  87378709.69646  21338722.516                    21338728.832
 11  8 22  1 47  0.0000000  0  9G25G10G04G26G12G05G30G29G02
 113920272.610 8  88769095.524 7  21678308.797                    21678319.848
 119961123.383 6  93476298.32144  22827819.469                    22827828.453
 129309689.078 6 100760924.08343  24606805.195                    24606815.012
 128405832.581 6 100056581.02743  24434824.195                    24434835.055
 110658112.261 8  86227162.885 7  21057539.211                    21057547.355
 106512599.688 7  82996896.781 8  20268652.219                    20268660.277
 113919643.282 8  88768633.70845  21678191.000                    21678200.242
 122134810.042 6  95170110.372 6  23241506.766                    23241515.977
 112170282.668 8  87405553.17846  21345277.953                    21345284.430
 11  8 22  1 47 30.0000000  0  9G25G10G04G26G12G05G30G29G02
 113897141.346 8  88751071.152 7  21673907.211                    21673917.988
 120056736.989 7  93550802.39244  22846014.492                    22846022.836
 129387892.724 6 100821861.96743  24621686.805                    24621697.277
 128311477.224 7  99983057.48443  24416868.758                    24416878.695
 110700580.988 8  86260255.383 7  21065620.844                    21065628.719
 106516358.094 8  82999825.418 8  20269367.305                    20269375.203
 113909282.022 8  88760559.98445  21676219.453                    21676228.281
 122051545.405 7  95105228.847 6  23225661.977                    23225671.719
 112204832.581 8  87432475.18946  21351852.563                    21351858.676
 11  8 22  1 48  0.0000000  0  9G25G10G04G26G12G05G30G29G02
 113874583.254 8  88733493.420 7  21669614.578                    21669625.355
 120152623.956 6  93625519.48244  22864260.594                    22864269.906
 129466032.847 6 100882750.37043  24636556.633                    24636567.008
 128217053.200 6  99909480.46643  24398900.148                    24398911.000
 110743568.368 8  86293752.021 7  21073801.055                    21073808.996
 106520682.816 8  83003195.339 8  20270190.289                    20270198.273
 113899527.267 8  88752958.87245  21674363.172                    21674372.023
 121968290.855 6  95040355.211 6  23209819.039                    23209828.855
 112239483.044 7  87459475.54846  21358446.508                    21358452.723
 11  8 22  1 48 30.0000000  0  9G25G10G04G26G12G05G30G29G02
 113852598.743 8  88716362.632 7  21665430.758                    21665441.648
 120248781.012 6  93700447.01744  22882559.141                    22882567.863
 129544109.225 6 100943589.07243  24651414.102                    24651424.035
 128122563.646 6  99835852.37043  24380918.305                    24380929.879
 110787072.499 8  86327651.326 7  21082079.617                    21082087.258
 106525572.793 8  83007005.728 8  20271121.023                    20271128.738
 113890378.663 8  88745830.08345  21672622.594                    21672630.898
 121885047.360 7  94975490.145 6  23193978.539                    23193987.844
 112274233.324 7  87486553.68446  21365058.961                    21365065.414
 11  8 22  1 49  0.0000000  0  9G25G10G04G26G12G05G30G29G02
 113831188.432 8  88699679.266 7  21661356.766                    21661367.313
 120345205.408 6  93775582.88944  22900908.164                    22900916.570
 129622121.723 6 101004378.06443  24666258.359                    24666269.539
 128028011.296 6  99762175.34143  24362925.961                    24362937.426
 110831091.503 8  86361951.826 7  21090456.148                    21090463.898
 106531027.194 8  83011255.916 8  20272158.867                    20272167.039
 113881836.237 8  88739173.65045  21670996.820                    21671005.090
 121801816.847 6  94910635.209 6  23178139.969                    23178149.941
 112309082.748 8  87513709.08946  21371691.180                    21371697.016
 11  8 22  1 49 30.0000000  0  8G25G10G26G12G05G30G29G02
 113810353.378 8  88683444.161 7  21657391.938                    21657402.512
 120441894.990 7  93850925.37444  22919307.695                    22919316.363
 127933399.851 6  99688452.25143  24344922.734                    24344933.129
 110875623.933 8  86396652.398 7  21098930.273                    21098938.285
 106537045.727 8  83015945.700 8  20273304.078                    20273312.191
 113873900.267 8  88732989.77345  21669486.625                    21669495.484
 121718601.025 6  94845791.707 6  23162304.742                    23162314.254
 112344031.335 7  87540941.76146  21378341.500                    21378347.508
 11  8 22  1 50  0.0000000  0  8G25G10G26G12G05G30G29G02
 113790093.625 8  88667657.342 7  21653536.719                    21653547.578
 120538846.377 6  93926471.86044  22937756.352                    22937765.313
 127838732.174 6  99614685.36043  24326907.711                    24326918.973
 110920668.164 8  86431751.786 7  21107501.984                    21107510.199
 106543627.325 8  83021074.227 8  20274556.836                    20274564.422
 113866570.087 8  88727277.94546  21668092.133                    21668100.098
 121635400.782 7  94780960.354 6  23146472.773                    23146481.336
 112379078.289 8  87568251.08546  21385010.625                    21385016.883
 11  8 22  1 50 30.0000000  0  8G25G10G26G12G05G30G29G02
 113770409.314 8  88652318.919 7  21649790.766                    21649801.363
 120636056.235 7  94002219.76044  22956254.711                    22956263.570
 127744011.005 6  99540876.76943  24308883.547                    24308893.395
 110966220.897 8  86467247.397 7  21116170.641                    21116178.352
 106550770.372 7  83026640.249 8  20275915.688                    20275923.680
 113859845.253 7  88722037.81045  21666811.898                    21666820.906
 121552217.440 7  94716142.175 6  23130643.195                    23130652.379
 112414222.819 8  87595636.45546  21391698.586                    21391704.742
 11  8 22  1 51  0.0000000  0  8G25G10G26G12G05G30G29G02
 113751301.323 8  88637429.583 7  21646154.758                    21646165.734
 120733522.064 7  94078167.13344  22974801.617                    22974810.895
 127649239.570 6  99467029.03843  24290848.430                    24290858.641
 111012280.923 8  86503138.303 7  21124935.203                    21124943.586
 106558474.675 8  83032643.608 8  20277381.781                    20277389.801
 113853725.874 8  88717269.45645  21665647.758                    21665656.082
 121469052.806 7  94651338.579 6  23114817.047                    23114826.480
 112449464.849 8  87623097.78546  21398404.609                    21398411.051
 11  8 22  1 51 30.0000000  0  8G25G10G26G12G05G30G29G02
 113732769.955 8  88622989.564 7  21642628.539                    21642638.969
 120831240.738 7  94154311.50444  22993397.180                    22993406.078
 127554421.187 6  99393144.70743  24272804.305                    24272815.746
 111058846.381 8  86539423.051 7  21133796.664                    21133804.707
 106566739.089 8  83039083.419 8  20278954.398                    20278962.223
 113848211.584 8  88712972.61645  21664598.055                    21664606.531
 121385908.205 7  94586550.595 6  23098995.531                    23099004.633
 112484803.844 8  87650634.68646  21405129.547                    21405135.734
 11  8 22  1 52  0.0000000  0  8G25G10G26G12G05G30G29G02
 113714815.808 8  88608999.308 7  21639211.648                    21639222.184
 120929209.655 6  94230650.89344  23012040.539                    23012049.176
 127459559.095 6  99319226.28743  24254752.617                    24254763.391
 111105915.602 8  86576100.351 7  21142753.680                    21142761.391
 106575563.200 8  83045959.361 8  20280633.531                    20280641.703
 113843302.248 8  88709147.15945  21663663.672                    21663672.266
 121302785.453 7  94521779.630 6  23083177.672                    23083186.664
 112520239.406 8  87678246.82746  21411872.750                    21411879.082
 11  8 22  1 52 30.0000000  0  8G25G10G26G12G05G30G29G02
 113697438.884 8  88595458.857 7  21635905.086                    21635915.617
 121027425.622 7  94307182.77144  23030730.297                    23030739.199
 127364655.939 6  99245275.91843  24236694.133                    24236703.965
 111153486.208 8  86613168.337 7  21151806.070                    21151814.004
 106584945.005 8  83053269.866 8  20282418.852                    20282426.973
 113838997.202 8  88705792.57745  21662844.813                    21662853.648
 121219685.738 7  94457026.613 6  23067363.945                    23067373.410
 112555770.847 8  87705933.67446  21418633.961                    21418639.992
 11  8 22  1 53  0.0000000  0  8G25G10G26G12G05G30G29G02
 113680640.056 8  88582368.862 7  21632707.914                    21632718.852
 121125886.278 6  94383905.33744  23049466.484                    23049475.047
 127269715.481 6  99171296.48343  24218625.703                    24218637.461
 111201556.893 8  86650625.993 7  21160953.469                    21160961.273
 106594884.687 8  83061015.078 8  20284310.391                    20284318.508
 113835296.560 8  88702908.95045  21662140.883                    21662149.250
 121136610.838 7  94392292.964 6  23051555.781                    23051564.488
 112591398.303 8  87733695.33946  21425413.875                    21425419.727
 11  8 22  1 53 30.0000000  0  8G25G10G26G12G05G30G29G02
 113664419.425 8  88569729.423 7  21629621.406                    21629632.641
 121224588.567 6  94460816.17244  23068249.422                    23068257.906
 127174740.634 6  99097290.21543  24200552.891                    24200563.707
 111250125.421 8  86688471.576 7  21170196.148                    21170204.039
 106605380.689 8  83069193.795 8  20286307.836                    20286315.844
 113832199.729 8  88700495.83445  21661551.484                    21661560.176
 121053562.227 7  94327579.786 6  23035752.031                    23035760.988
 112627121.188 8  87761531.36046  21432211.633                    21432217.539
 11  8 22  1 54  0.0000000  0  8G25G10G26G12G05G30G29G02
 113648777.065 8  88557540.573 7  21626645.133                    21626655.523
 121323529.358 7  94537912.86544  23087076.602                    23087085.871
 127079734.358 6  99023259.49843  24182473.844                    24182484.297
 111299188.990 8  86726702.904 7  21179532.172                    21179540.148
 106616431.664 8  83077804.947 8  20288410.516                    20288418.223
 113829706.092 7  88698552.74145  21661076.727                    21661085.258
 120970541.205 7  94262888.128 6  23019953.609                    23019962.574
 112662938.459 8  87789440.94346  21439027.430                    21439033.539
 11  8 22  1 54 30.0000000  0  8G25G10G26G12G05G30G29G02
 113633713.521 8  88545802.746 7  21623778.227                    21623789.168
 121422705.819 7  94615193.17044  23105949.766                    23105958.242
 126984700.253 6  98949207.07443  24164389.445                    24164400.008
 111348746.159 8  86765318.858 7  21188962.758                    21188970.414
 106628036.851 8  83086847.949 8  20290619.031                    20290627.113
 113827815.463 8  88697079.51545  21660717.328                    21660725.578
 120887549.502 7  94198219.304 6  23004160.820                    23004169.469
 112698850.214 8  87817424.13246  21445861.164                    21445866.895
 11  8 22  1 55  0.0000000  0  8G25G10G26G12G05G30G29G02
 113619229.059 8  88534516.152 7  21621022.023                    21621032.359
 121522115.300 6  94692655.09644  23124866.758                    23124875.469
 126889641.428 6  98875135.37943  24146300.344                    24146310.449
 111398795.007 8  86804317.947 7  21198486.648                    21198494.641
 106640195.394 8  83096322.150 8  20292932.867                    20292940.813
 113826527.382 8  88696075.81645  21660471.766                    21660480.195
 120804588.747 7  94133574.612 6  22988373.992                    22988383.207
 112734856.023 8  87845480.62446  21452712.555                    21452718.809
 11  8 22  1 55 30.0000000  0  8G25G10G26G12G05G30G29G02
 113605323.844 8  88523680.929 7  21618376.023                    21618386.891
 121621754.958 6  94770296.33844  23143827.633                    23143836.637
 126794560.873 6  98801046.77043  24128206.813                    24128217.762
 111449333.185 8  86843698.328 7  21208103.773                    21208111.699
 106652905.984 8  83106226.510 8  20295351.641                    20295359.656
 113825841.314 8  88695541.22445  21660340.938                    21660350.313
 120721660.300 7  94068955.108 6  22972592.867                    22972601.941
 112770955.476 8  87873610.06546  21459581.883                    21459588.289
 11  8 22  1 56  0.0000000  0  8G25G10G26G12G05G30G29G02
 113591998.178 8  88513297.287 7  21615840.242                    21615851.035
 121721621.646 7  94848114.49644  23162831.102                    23162840.754
 126699462.092 7  98726943.93843  24110110.125                    24110120.563
 111500359.139 8  86883458.793 7  21217813.656                    21217821.625
 106666167.667 8  83116560.292 8  20297875.023                    20297883.426
 113825756.861 8  88695475.40645  21660325.164                    21660334.055
 120638766.074 7  94004362.262 6  22956818.945                    22956828.301
 112807148.133 8  87901812.14846  21466469.453                    21466475.293
 11  8 22  1 56 30.0000000  0  8G25G10G26G12G05G30G29G02
 113579252.198 8  88503365.357 7  21613414.656                    21613425.348
 121821712.627 7  94926107.42344  23181878.375                    23181887.367
 126604348.274 6  98652829.39443  24092010.844                    24092020.582
 111551870.376 8  86923597.406 7  21227616.109                    21227624.262
 106679979.160 8  83127322.507 8  20300503.469                    20300511.242
 113826273.316 8  88695877.82345  21660423.414                    21660432.203
 120555907.559 7  93939797.236 6  22941051.266                    22941060.719
 112843433.546 8  87930086.49246  21473374.133                    21473380.156
 11  8 22  1 57  0.0000000  0  8G25G10G26G12G05G30G29G02
 113567086.408 8  88493885.525 7  21611099.875                    21611110.348
 121922025.442 7  95004273.20144  23200967.336                    23200976.504
 126509222.750 6  98578705.73243  24073908.523                    24073919.293
 111603864.963 8  86964112.653 7  21237510.508                    21237518.383
 106694339.891 8  83138512.690 8  20303236.016                    20303243.770
 113827390.626 7  88696748.45845  21660636.203                    21660644.715
 120473086.576 7  93875261.459 6  22925290.742                    22925300.410
 112879811.796 8  87958433.18746  21480296.570                    21480303.012
 11  8 22  1 57 30.0000000  0  8G25G10G26G12G05G30G29G02
 113555500.403 8  88484857.463 7  21608894.820                    21608905.629
 122022556.785 7  95082609.27544  23220097.359                    23220106.730
 126414088.921 6  98504575.59943  24055805.641                    24055816.195
 111656340.287 8  87005002.503 7  21247495.969                    21247503.801
 106709248.019 8  83150129.423 8  20306073.375                    20306081.023
 113829107.509 8  88698086.29045  21660962.727                    21660971.559
 120390304.168 7  93810755.732 6  22909538.148                    22909547.309
 112916282.132 8  87986851.62146  21487236.891                    21487242.898
 11  8 22  1 58  0.0000000  0  8G25G10G26G12G05G30G29G02
 113544494.640 8  88476281.548 7  21606800.539                    21606811.355
 122123304.351 7  95161113.83744  23239269.297                    23239278.535
 126318949.669 6  98430441.24743  24037701.078                    24037711.055
 111709294.847 8  87046265.787 7  21257573.016                    21257580.867
 106724702.721 8  83162172.047 8  20309014.227                    20309021.996
 113831423.784 8  88699891.17445  21661403.898                    21661412.500
 120307562.329 7  93746281.618 7  22893792.633                    22893802.523
 112952844.593 8  88015341.85046  21494194.648                    21494201.008
 11  8 22  1 58 30.0000000  0  8G25G10G26G12G05G30G29G02
 113534069.101 8  88468157.751 7  21604816.406                    21604827.242
 122224264.721 7  95239784.22744  23258481.484                    23258490.277
 126223808.252 6  98356305.18143  24019596.188                    24019606.352
 111762726.170 8  87087900.565 7  21267740.328                    21267748.508
 106740702.494 8  83174639.409 8  20312058.633                    20312066.551
 113834338.715 7  88702162.53945  21661958.484                    21661967.484
 120224862.954 7  93681840.594 6  22878054.891                    22878064.742
 112989498.700 8  88043903.49046  21501169.797                    21501175.695
 11  8 22  1 59  0.0000000  0  8G25G10G26G12G05G30G29G02
 113524223.784 8  88460486.069 7  21602943.273                    21602953.953
 122325435.288 7  95318618.40044  23277733.750                    23277742.617
 126128668.195 6  98282170.20643  24001491.133                    24001501.586
 111816631.857 8  87129904.981 7  21277998.711                    21278006.566
 106757246.105 8  83187530.535 8  20315206.734                    20315214.738
 113837851.496 8  88704899.76845  21662626.867                    21662635.422
 120142207.321 7  93617433.654 7  22862326.805                    22862335.949
 113026243.882 8  88072536.10246  21508161.836                    21508168.055
 11  8 22  1 59 30.0000000  0  8G25G10G26G12G05G30G29G02
 113514958.421 8  88453266.303 7  21601180.102                    21601190.773
 122426813.137 7  95397614.11344  23297025.195                    23297033.992
 126033532.443 6  98208038.54643  23983387.625                    23983397.758
 111871009.592 8  87172277.230 7  21288346.320                    21288353.973
 106774332.092 8  83200844.303 8  20318457.992                    20318466.016
 113841961.234 8  88708102.15645  21663408.656                    21663418.008
 120059596.901 7  93553061.935 6  22846606.180                    22846615.301
 113063079.442 8  88101239.13646  21515171.492                    21515178.008
 11  8 22  2  0  0.0000000  0  8G25G10G26G12G05G30G29G02
 113506273.676 8  88446498.968 7  21599527.656                    21599538.008
 122528395.699 7  95476769.33144  23316355.453                    23316364.887
 125938404.759 6  98133913.17543  23965285.438                    23965295.762
 111925857.624 8  87215015.942 7  21298783.695                    21298791.891
 106791959.947 8  83214580.299 8  20321812.719                    20321820.750
 113846667.801 8  88711769.60645  21664304.359                    21664313.109
 119977034.139 7  93488727.345 6  22830895.086                    22830903.938
 113100006.027 8  88130013.09046  21522198.469                    21522204.746
 11  8 22  2  0 30.0000000  0  8G25G10G26G12G05G30G29G02
 113498169.147 8  88440183.760 7  21597985.359                    21597995.980
 122630179.953 7  95556081.70544  23335724.359                    23335733.586
 125843288.430 6  98059796.67443  23947185.242                    23947195.824
 111981173.499 8  87258119.211 7  21309309.766                    21309317.848
 106810127.855 8  83228737.115 8  20325269.969                    20325277.699
 113851970.036 7  88715901.21745  21665313.406                    21665322.449
 119894520.016 7  93424430.671 7  22815193.383                    22815202.246
 113137022.826 8  88158857.35145  21529242.766                    21529249.098
 11  8 22  2  1  0.0000000  0  8G25G10G26G12G05G30G29G02
 113490644.733 8  88434320.583 7  21596553.445                    21596564.172
 122732163.102 7  95635549.06744  23355131.273                    23355140.117
 125748186.498 6  97985691.34743  23929087.539                    23929097.910
 112036955.074 8  87301585.358 7  21319924.742                    21319932.879
 106828834.389 8  83243313.647 8  20328829.555                    20328837.402
 113857867.170 8  88720496.38345  21666435.828                    21666444.168
 119812056.465 7  93360173.376 7  22799501.266                    22799510.508
 113174129.337 8  88187771.51646  21536303.648                    21536310.191
 11  8 22  2  1 30.0000000  0  8G25G10G26G12G05G30G29G02
 113483700.795 8  88428909.726 7  21595232.188                    21595242.707
 122834342.724 7  95715169.55543  23374575.297                    23374584.500
 125653102.662 6  97911600.15243  23910993.859                    23911004.355
 112093200.200 8  87345412.711 7  21330627.992                    21330635.621
 106848078.855 8  83258309.337 8  20332491.625                    20332499.867
 113864358.740 8  88725554.74745  21667670.836                    21667679.773
 119729645.384 7  93295956.972 6  22783818.469                    22783827.352
 113211325.895 8  88216755.84946  21543381.813                    21543387.945
 11  8 22  2  2  0.0000000  0  8G25G10G26G12G05G30G29G02
 113477336.904 8  88423950.856 7  21594020.938                    21594031.434
 122936715.733 7  95794940.70243  23394056.125                    23394065.250
 125558040.020 6  97837525.44743  23892903.516                    23892914.113
 112149906.149 8  87389599.148 7  21341418.578                    21341426.551
 106867859.453 8  83273722.790 8  20336255.828                    20336263.527
 113871443.657 8  88731075.45445  21669019.047                    21669027.945
 119647288.230 7  93231782.580 6  22768146.344                    22768155.574
 113248611.875 8  88245809.85446  21550477.141                    21550483.234
 11  8 22  2  2 30.0000000  0  8G25G10G26G12G05G30G29G02
 113471552.775 8  88419443.745 7  21592920.094                    21592930.539
 123039279.324 7  95874860.35743  23413573.414                    23413582.535
 125463001.904 6  97763469.85543  23874819.063                    23874828.773
 112207070.685 7  87434142.924 7  21352296.852                    21352304.984
 106888174.655 8  83289552.830 8  20340121.563                    20340129.570
 113879120.846 8  88737057.67945  21670480.117                    21670489.289
 119564986.671 7  93167651.529 6  22752485.047                    22752493.672
 113285987.091 8  88274933.40445  21557589.602                    21557595.602
 11  8 22  2  3  0.0000000  0  8G25G10G26G12G05G30G29G02
 113466348.452 8  88415388.429 7  21591929.930                    21591940.461
 123142030.629 6  95954926.29543  23433126.625                    23433135.715
 125367991.776 6  97689436.05044  23856738.922                    23856748.816
 112264691.985 8  87479042.612 7  21363261.875                    21363269.797
 106909023.195 8  83305798.448 8  20344089.070                    20344096.648
 113887389.633 8  88743500.88645  21672053.727                    21672062.027
 119482742.536 7  93103565.209 7  22736834.258                    22736843.914
 113323451.062 8  88304126.10446  21564718.617                    21564724.746
 11  8 22  2  3 30.0000000  0  8G25G10G26G12G05G30G29G02
 113461723.967 8  88411784.945 7  21591049.742                    21591060.535
 123244966.943 7  96035136.37443  23452714.570                    23452723.852
 125273013.032 6  97615426.72843  23838665.023                    23838675.168
 112322767.380 7  87524296.150 7  21374313.047                    21374321.094
 106930404.058 8  83322458.867 8  20348157.688                    20348165.586
 113896249.316 8  88750404.53145  21673739.531                    21673748.563
 119400557.666 7  93039525.082 6  22721194.508                    22721203.816
 113361003.645 8  88333387.85445  21571864.578                    21571870.688
 11  8 22  2  4  0.0000000  0  8G25G10G26G12G05G30G29G02
 113457678.604 8  88408632.713 7  21590279.828                    21590290.688
 123348085.435 7  96115488.41843  23472337.320                    23472346.387
 125178068.816 6  97541444.28644  23820597.813                    23820607.676
 112381294.456 8  87569901.639 7  21385450.516                    21385458.422
 106952315.138 8  83339532.444 8  20352327.172                    20352335.168
 113905698.472 7  88757767.50545  21675537.344                    21675546.109
 119318433.516 7  92975532.270 6  22705567.703                    22705576.480
 113398644.323 8  88362718.25645  21579027.633                    21579033.941
 11  8 22  2  4 30.0000000  0  8G25G10G26G12G05G30G29G02
 113454212.162 8  88405931.596 7  21589620.391                    21589631.230
 123451383.188 7  96195980.12943  23491994.789                    23492003.902
 125083162.695 6  97467491.53543  23802537.141                    23802547.277
 112440270.305 8  87615856.832 7  21396673.453                    21396681.277
 106974754.952 8  83357018.011 8  20356597.250                    20356605.219
 113915736.121 7  88765589.04345  21677447.672                    21677456.461
 119236371.822 7  92911588.131 7  22689951.898                    22689960.828
 113436372.896 7  88392117.14545  21586206.977                    21586213.410
 11  8 22  2  5  0.0000000  0  8G25G10G26G12G05G30G29G02
 113451324.760 8  88403681.683 7  21589070.789                    21589081.676
 123554857.853 6  96276609.71643  23511685.125                    23511694.422
 124988298.046 6  97393571.11144  23784485.703                    23784495.508
 112499693.004 8  87662160.209 7  21407980.953                    21407989.266
 106997722.537 8  83374914.841 8  20360967.938                    20360975.355
 113926361.594 8  88773868.63445  21679469.414                    21679478.242
 119154374.668 7  92847694.280 7  22674347.938                    22674357.094
 113474189.370 8  88421584.52746  21593403.383                    21593408.949
 11  8 22  2  5 30.0000000  0  8G25G10G26G12G05G30G29G02
 113449015.834 8  88401882.506 7  21588631.672                    21588642.398
 123658506.328 7  96357374.74143  23531409.242                    23531417.570
 124893478.159 6  97319685.56444  23766441.875                    23766451.664
 112559560.198 7  87708809.950 7  21419373.328                    21419381.355
 107021216.116 8  83393221.534 8  20365438.406                    20365446.695
 113937573.731 8  88782605.36245  21681603.477                    21681612.039
 119072443.767 7  92783852.064 7  22658757.453                    22658766.402
 113512093.616 8  88451120.30646  21600615.953                    21600621.992
 11  8 22  2  6  0.0000000  0  8G25G10G26G12G05G30G29G02
 113447285.286 8  88400534.036 7  21588302.352                    21588312.953
 123762325.957 7  96438273.11844  23551165.094                    23551174.215
 124798706.777 7  97245837.79844  23748407.461                    23748417.004
 112619869.534 7  87755804.208 7  21430849.594                    21430857.973
 107045234.541 8  83411937.192 8  20370009.023                    20370016.816
 113949371.583 8  88791798.49045  21683848.594                    21683856.961
 118990580.962 7  92720062.916 7  22643179.125                    22643187.848
 113550085.173 8  88480724.12546  21607845.625                    21607851.824
 11  8 22  2  6 30.0000000  0  9G25G10G15G26G12G05G30G29G02
 113446132.852 8  88399636.036 7  21588082.867                    21588093.645
 123866314.213 7  96519302.89744  23570953.242                    23570962.879
 129457943.41316 100876472.28116  24635052.242                    24635063.973
 124703987.182 7  97172030.38144  23730383.078                    23730392.652
 112680618.835 8  87803141.305 7  21442409.922                    21442418.047
 107069776.252 8  83431060.615 8  20374679.180                    20374686.949
 113961754.154 8  88801447.24945  21686204.938                    21686213.363
 118908787.936 7  92656328.145 7  22627614.281                    22627623.074
 113588163.970 8  88510395.91946  21615091.961                    21615097.992
 11  8 22  2  7  0.0000000  0  9G25G10G15G26G12G05G30G29G02
 113445557.787 8  88399187.931 7  21587973.891                    21587984.133
 123970467.798 7  96600461.49144  23590773.055                    23590782.828
 129364980.436 6 100804033.747 6  24617362.664                    24617373.789
 124609322.413 7  97098265.71444  23712369.516                    23712378.383
 112741805.093 8  87850818.882 7  21454053.539                    21454061.328
 107094839.002 8  83450590.042 8  20379448.563                    20379456.383
 113974719.940 8  88811550.45545  21688672.008                    21688681.250
 118827066.253 7  92592648.953 7  22612063.281                    22612072.574
 113626329.576 8  88540135.35145  21622354.625                    21622360.984
 11  8 22  2  7 30.0000000  0  9G25G10G15G26G12G05G30G29G02
 113445559.567 8  88399189.311 7  21587973.711                    21587984.863
 124074784.225 7  96681746.97144  23610624.336                    23610632.988
 129271885.265 6 100731492.213 5  24599646.766                    24599658.387
 124514716.145 7  97024546.59943  23694365.203                    23694374.953
 112803425.714 7  87898834.931 7  21465779.172                    21465787.840
 107120421.474 8  83470524.449 8  20384316.789                    20384324.656
 113988267.772 8  88822107.20745  21691250.453                    21691258.891
 118745417.893 7  92529026.922 7  22596526.156                    22596535.281
 113664581.448 8  88569942.00546  21629633.719                    21629639.887
 11  8 22  2  8  0.0000000  0  9G25G10G15G26G12G05G30G29G02
 113446137.861 8  88399639.930 7  21588083.789                    21588094.617
 124179260.695 7  96763157.19543  23630505.203                    23630514.371
 129178660.755 6 100658849.854 6  24581906.359                    24581917.469
 124420171.785 7  96950875.73744  23676374.742                    23676383.879
 112865478.321 7  87947187.582 7  21477587.469                    21477595.902
 107146521.870 8  83490862.434 8  20389283.141                    20389291.246
 114002396.434 8  88833116.54645  21693938.672                    21693947.672
 118663844.667 7  92465463.434 7  22581003.188                    22581012.320
 113702919.852 8  88599816.08946  21636929.211                    21636935.734
 11  8 22  2  8 30.0000000  0  9G25G10G15G26G12G05G30G29G02
 113447292.776 8  88400539.856 7  21588303.891                    21588314.473
 124283895.025 7  96844690.41443  23650416.156                    23650425.332
 129085309.406 6 100586108.713 6  24564142.336                    24564153.641
 124325693.170 7  96877256.11144  23658395.398                    23658404.879
 112927961.380 8  87995875.659 7  21489477.898                    21489485.672
 107173139.490 8  83511603.440 8  20394348.641                    20394356.645
 114017105.409 8  88844578.07545  21696737.805                    21696746.590
 118582348.754 7  92401960.179 7  22565495.000                    22565503.805
 113741345.103 8  88629757.85346  21644241.508                    21644247.020
 11  8 22  2  9  0.0000000  0  9G25G10G15G26G12G05G30G29G02
 113449023.548 8  88401888.502 7  21588632.703                    21588643.621
 124388684.406 6  96926344.45343  23670356.945                    23670366.613
 128991833.675 6 100513270.688 6  24546354.047                    24546365.535
 124231283.434 6  96803690.15343  23640429.555                    23640439.543
 112990871.348 8  88044896.399 7  21501449.414                    21501457.207
 107200272.363 8  83532745.959 8  20399511.688                    20399519.758
 114032393.086 8  88856490.54845  21699646.609                    21699655.445
 118500931.715 7  92338518.386 7  22550001.602                    22550010.801
 113779856.455 8  88659766.69746  21651569.500                    21651575.813
 11  8 22  2  9 30.0000000  0  9G25G10G15G26G12G05G30G29G02
 113451329.482 8  88403685.323 7  21589071.742                    21589082.781
 124493625.808 6  97008116.95743  23690326.891                    23690336.379
 128898236.029 6 100440337.617 5  24528543.180                    24528554.078
 124136945.921 6  96730180.46743  23622478.055                    23622487.770
 113054205.675 8  88094247.797 7  21513501.500                    21513509.887
 107227918.438 8  83554288.365 8  20404772.578                    20404780.500
 114048258.119 8  88868852.89745  21702666.344                    21702674.559
 118419595.235 7  92275139.347 7  22534523.594                    22534532.941
 113818453.572 8  88689842.38046  21658914.461                    21658920.535
 11  8 22  2 10  0.0000000  0  9G25G10G15G26G12G05G30G29G02
 113454210.341 8  88405930.140 7  21589619.898                    21589630.492
 124598716.600 6  97090005.87743  23710324.445                    23710334.199
 128804519.084 6 100367311.617 5  24510709.242                    24510719.895
 124042684.521 6  96656730.10744  23604540.672                    23604550.234
 113117962.240 8  88143928.219 7  21525633.664                    21525642.188
 107256076.422 8  83576229.669 8  20410130.875                    20410138.723
 114064699.589 8  88881664.42545  21705794.883                    21705803.699
 118338341.372 7  92211824.703 7  22519061.781                    22519070.367
 113857136.588 8  88719984.99146  21666275.609                    21666282.117
 11  8 22  2 10 30.0000000  0  9G25G10G15G26G12G05G30G29G02
 113457665.371 8  88408622.359 7  21590277.773                    21590288.438
 124703954.139 6  97172009.09943  23730350.883                    23730360.621
 128710685.214 6 100294194.467 5  24492852.688                    24492863.391
 123948502.410 6  96583341.51844  23586618.336                    23586628.090
 113182138.616 8  88193935.767 7  21537846.008                    21537854.375
 107284744.397 8  83598568.366 8  20415586.172                    20415593.840
 114081715.839 8  88894923.83145  21709032.492                    21709041.379
 118257171.997 7  92148575.873 7  22503615.359                    22503624.699
 113895905.053 8  88750194.19146  21673653.211                    21673659.207
 11  8 22  2 11  0.0000000  0  9G25G10G15G26G12G05G30G29G02
 113461694.164 8  88411761.664 7  21591044.289                    21591055.023
 124809335.705 6  97254124.61743  23750404.336                    23750413.559
 128616737.278 6 100220988.458 6  24474975.508                    24474986.078
 123854403.371 6  96510017.67444  23568711.977                    23568721.285
 113246732.038 8  88244268.272 7  21550138.000                    21550146.223
 107313920.986 8  83621303.381 8  20421138.328                    20421145.973
 114099305.846 8  88908630.31445  21712380.086                    21712388.391
 118176088.749 7  92085394.169 7  22488186.117                    22488194.734
 113934759.098 8  88780470.07346  21681046.508                    21681052.500
 11  8 22  2 11 30.0000000  0  9G25G10G15G26G12G05G30G29G02
 113466296.071 8  88415347.558 7  21591920.133                    21591930.859
 124914858.652 6  97336350.31743  23770485.039                    23770493.895
 128522677.327 6 100147695.166 6  24457076.469                    24457087.492
 123760390.508 7  96436760.94744  23550821.297                    23550831.762
 113311740.021 8  88294923.822 7  21562508.156                    21562516.629
 107343604.403 8  83644433.336 8  20426787.055                    20426794.605
 114117468.103 8  88922782.71945  21715836.117                    21715844.484
 118095094.106 7  92022281.488 7  22472772.773                    22472782.031
 113973698.848 8  88810812.74245  21688456.867                    21688462.918
 11  8 22  2 12  0.0000000  0  9G25G10G15G26G12G05G30G29G02
 113471470.290 8  88419379.404 7  21592904.703                    21592915.543
 125020520.255 6  97418684.02343  23790591.352                    23790600.988
 128428507.955 6 100074316.597 6  24439156.164                    24439167.102
 123666467.509 6  96363574.27844  23532948.461                    23532958.918
 113377159.641 7  88345900.144 7  21574957.141                    21574965.504
 107373792.755 8  83667956.737 8  20432531.367                    20432539.430
 114136201.219 8  88937379.92645  21719401.094                    21719410.016
 118014189.479 7  91959238.950 7  22457377.492                    22457386.434
 114012723.686 7  88841221.71246  21695882.961                    21695888.996
 11  8 22  2 12 30.0000000  0  9G25G10G15G26G12G05G30G29G02
 113477216.225 8  88423856.745 7  21593997.742                    21594008.891
 125126317.951 6  97501123.81643  23810724.484                    23810733.371
 128334231.937 7 100000854.911 6  24421216.258                    24421226.363
 123572637.775 7  96290460.27944  23515093.750                    23515103.797
 113442988.352 8  88397195.220 7  21587484.211                    21587492.941
 107404484.275 8  83691872.224 8  20438371.969                    20438379.391
 114155503.709 8  88952420.81845  21723074.070                    21723082.398
 117933376.695 7  91896267.994 7  22441999.297                    22442008.293
 114051833.450 8  88871696.86345  21703325.102                    21703331.109
 11  8 22  2 13  0.0000000  0  9G25G10G15G26G12G05G30G29G02
 113483533.382 8  88428779.196 7  21595199.875                    21595211.004
 125232248.993 7  97583667.48043  23830882.242                    23830891.359
 128239851.512 7  99927311.865 6  24403256.125                    24403266.527
 123478905.001 7  96217421.80744  23497256.531                    23497266.457
 113509224.119 8  88448807.486 7  21600088.711                    21600097.008
 107435677.392 8  83716178.569 8  20444307.547                    20444315.711
 114175374.439 8  88967904.47945  21726855.477                    21726864.434
 117852658.100 7  91833370.432 7  22426639.141                    22426647.691
 114091028.418 7  88902238.40245  21710784.320                    21710790.031
 11  8 22  2 13 30.0000000  0  9G25G10G15G26G12G05G30G29G02
 113490421.000 8  88434146.155 7  21596510.836                    21596521.672
 125338310.718 7  97666313.02143  23851065.250                    23851073.918
 128145369.485 6  99853689.628 6  24385276.109                    24385287.184
 123385272.813 7  96144461.73444  23479439.023                    23479448.809
 113575863.629 8  88500734.361 7  21612769.500                    21612778.105
 107467370.357 8  83740874.394 8  20450338.641                    20450346.512
 114195811.867 8  88983829.72445  21730744.516                    21730753.188
 117772035.370 7  91770547.571 7  22411296.844                    22411305.582
 114130308.312 7  88932846.11145  21718258.313                    21718264.613
 11  8 22  2 14  0.0000000  0  9G25G10G15G26G12G05G30G29G02
 113497878.091 8  88439956.871 7  21597929.734                    21597940.941
 125444500.552 7  97749058.39843  23871272.531                    23871281.660
 128050788.454 6  99779990.288 6  24367278.219                    24367289.527
 123291744.331 7  96071582.47744  23461640.945                    23461650.766
 113642904.305 8  88552973.828 7  21625526.969                    21625535.723
 107499561.072 8  83765958.079 8  20456464.648                    20456472.242
 114216814.292 8  89000195.24945  21734741.125                    21734749.609
 117691510.311 7  91707800.819 7  22395973.492                    22395981.910
 114169672.659 7  88963519.62845  21725749.125                    21725755.715
 11  8 22  2 14 30.0000000  0  9G25G10G15G26G12G05G30G29G02
 113505904.232 8  88446211.000 7  21599457.438                    21599468.348
 125550815.942 7  97831901.54943  23891503.500                    23891512.730
 127956110.977 6  99706215.781 6  24349261.430                    24349272.672
 123198323.479 7  95998787.08244  23443863.758                    23443873.133
 113710344.149 8  88605524.332 7  21638360.734                    21638368.883
 107532248.083 8  83791428.489 8  20462684.672                    20462692.418
 114238380.541 8  89017000.10145  21738845.086                    21738853.746
 117611084.998 7  91645131.798 7  22380669.320                    22380677.535
 114209121.873 7  88994259.27145  21733256.219                    21733262.445
 11  8 22  2 15  0.0000000  0  9G25G10G15G26G12G05G30G29G02
 113514498.351 8  88452907.707 7  21601092.805                    21601103.484
 125657253.951 6  97914840.25843  23911758.180                    23911766.945
 127861339.739 6  99632368.202 6  24331227.234                    24331238.086
 123105013.548 7  95926078.10944  23426106.742                    23426116.930
 113778179.725 7  88658383.199 7  21651269.375                    21651277.230
 107565429.301 8  83817283.994 8  20468998.672                    20469006.457
 114260508.901 8  89034242.95545  21743056.258                    21743065.000
 117530761.415 7  91582542.042 7  22365383.539                    22365392.727
 114248655.457 7  89025064.66545  21740779.086                    21740785.648
 11  8 22  2 15 30.0000000  0  9G25G10G15G26G12G05G30G29G02
 113523659.556 8  88460046.315 7  21602835.797                    21602846.637
 125763812.318 7  97997872.76543  23932035.156                    23932044.629
 127766477.094 6  99558449.404 6  24313174.727                    24313185.820
 123011818.047 7  95853458.30544  23408372.656                    23408382.465
 113846408.306 7  88711548.304 7  21664252.891                    21664260.855
 107599102.886 8  83843523.159 8  20475406.586                    20475414.461
 114283197.621 8  89051922.46445  21747373.539                    21747382.066
 117450541.450 7  91520033.047 7  22350118.297                    22350127.141
 114288273.264 8  89055935.67545  21748318.195                    21748324.180
 11  8 22  2 16  0.0000000  0  9G25G10G15G26G12G05G30G29G02
 113533387.282 8  88467626.355 7  21604687.016                    21604697.723
 125870488.389 6  98080996.96943  23952335.242                    23952344.246
 127671525.670 6  99484461.401 6  24295106.266                    24295116.875
 122918740.667 7  95780930.54144  23390660.688                    23390670.324
 113915027.601 8  88765017.869 7  21677310.414                    21677318.723
 107633267.143 8  83870144.663 8  20481907.641                    20481915.414
 114306445.469 8  89070037.66845  21751797.289                    21751805.828
 117370427.129 7  91457606.346 7  22334873.367                    22334882.359
 114327975.603 8  89086872.56145  21755873.469                    21755879.758
 11  8 22  2 16 30.0000000  0  9G25G10G15G26G12G05G30G29G02
 113543680.420 8  88475646.988 7  21606645.930                    21606656.684
 125977279.049 6  98164210.48743  23972656.359                    23972665.902
 127576488.154 6  99410406.331 6  24277021.156                    24277032.098
 122825784.775 7  95708497.44744  23372971.813                    23372981.426
 113984034.917 8  88818789.782 7  21690442.367                    21690450.828
 107667919.556 8  83897146.560 8  20488502.047                    20488509.980
 114330250.548 8  89088587.06545  21756327.281                    21756335.758
 117290420.020 7  91395263.200 7  22319648.305                    22319657.086
 114367762.196 8  89117875.10045  21763444.266                    21763450.391
 11  8 22  2 17  0.0000000  0  9G25G10G15G26G12G05G30G29G02
 113554538.566 8  88484107.879 7  21608711.961                    21608722.375
 126084182.327 6  98247511.70643  23992999.953                    23993008.613
 127481367.797 6  99336286.719 6  24258920.063                    24258930.676
 122732954.480 6  95636162.19244  23355306.734                    23355315.816
 114053427.946 7  88872862.249 7  21703647.148                    21703655.516
 107703059.664 8  83924528.463 8  20495188.820                    20495196.785
 114354611.823 8  89107569.87345  21760963.203                    21760971.871
 117210522.944 7  91333005.814 7  22304444.727                    22304453.391
 114407633.243 7  89148943.45245  21771031.633                    21771037.551
 11  8 22  2 17 30.0000000  0  9G25G10G15G26G12G05G30G29G02
 113565960.486 8  88493008.090 7  21610885.539                    21610896.469
 126191195.413 6  98330898.56443  24013363.344                    24013373.141
 127386166.660 6  99262104.144 6  24240803.750                    24240814.078
 122640252.936 7  95563927.28944  23337665.414                    23337675.207
 114123203.371 8  88927232.683 7  21716924.922                    21716933.445
 107738684.716 8  83952288.256 8  20501967.930                    20501975.793
 114379527.251 8  89126984.48945  21765704.773                    21765713.070
 117130737.500 7  91270835.402 7  22289261.867                    22289270.367
 114447588.429 7  89180077.36745  21778635.188                    21778640.914
 11  8 22  2 18  0.0000000  0  9G25G10G15G26G12G05G30G29G02
 113577945.171 8  88502346.802 7  21613165.984                    21613177.027
 126298315.828 6  98414368.99243  24033748.383                    24033757.406
 127290887.365 6  99187860.690 6  24222672.344                    24222683.281
 122547683.659 7  95491795.43344  23320050.047                    23320060.066
 114193358.641 8  88981899.103 7  21730275.250                    21730283.770
 107774792.889 8  83980424.501 8  20508839.203                    20508847.273
 114404995.230 8  89146829.67545  21770550.938                    21770559.371
 117051065.529 7  91208753.411 7  22274100.602                    22274109.043
 114487627.700 7  89211276.79445  21786254.102                    21786260.340
 11  8 22  2 18 30.0000000  0  9G25G10G15G26G12G05G30G29G02
 113590491.704 8  88512123.333 7  21615553.555                    21615564.281
 126405540.888 6  98497920.95343  24054152.367                    24054161.238
 127195532.751 6  99113558.541 6  24204527.289                    24204537.016
 122455250.333 7  95419769.52444  23302460.781                    23302470.043
 114263890.694 7  89036859.119 7  21743697.555                    21743705.379
 107811382.047 8  84008935.538 8  20515802.047                    20515809.746
 114431013.913 8  89167103.96845  21775502.016                    21775510.871
 116971508.848 7  91146761.249 7  22258961.227                    22258969.828
 114527750.956 7  89242541.67245  21793889.203                    21793895.617
 11  8 22  2 19  0.0000000  0  9G25G10G15G26G12G05G30G29G02
 113603599.239 8  88522336.997 7  21618048.203                    21618058.801
 126512868.048 6  98581552.47443  24074575.922                    24074584.824
 127100105.423 6  99039199.728 5  24186367.438                    24186377.805
 122362956.646 6  95347852.42444  23284898.000                    23284907.453
 114334797.074 7  89092110.822 7  21757190.086                    21757198.418
 107848450.384 8  84037819.971 8  20522855.836                    20522863.414
 114457581.824 7  89187806.23145  21780557.914                    21780566.270
 116892069.614 7  91084860.615 7  22243844.563                    22243853.715
 114567958.531 7  89273872.25745  21801540.539                    21801546.691
 11  8 22  2 19 30.0000000  0  9G25G10G15G26G12G05G30G29G02
 113617266.410 8  88532986.747 7  21620648.734                    21620659.477
 126620294.481 6  98665261.38443  24095018.758                    24095027.797
 127004608.038 7  98964786.345 6  24168194.930                    24168205.715
 122270806.054 6  95276046.82744  23267362.711                    23267371.504
 114406074.778 7  89147651.875 7  21770753.789                    21770762.316
 107885995.672 8  84067076.042 8  20530000.477                    20530008.121
 114484696.923 8  89208934.87845  21785717.563                    21785726.438
 116812750.033 7  91023053.213 7  22228750.516                    22228758.938
 114608250.086 7  89305268.27545  21809207.648                    21809213.820
 11  8 22  2 20  0.0000000  0  9G25G10G15G26G12G05G30G29G02
 113631492.482 8  88544072.006 7  21623355.867                    21623366.715
 126727818.115 6  98749046.01043  24115479.617                    24115488.047
 126909043.193 7  98890320.419 6  24150009.789                    24150020.258
 122178802.244 6  95204355.58044  23249854.930                    23249864.055
 114477721.154 7  89203480.188 7  21784387.711                    21784395.883
 107924016.501 8  84096702.667 8  20537235.133                    20537242.770
 114512357.822 8  89230488.82045  21790981.047                    21790989.805
 116733552.257 7  90961340.720 7  22213679.555                    22213688.496
 114648625.773 7  89336729.86145  21816890.852                    21816897.125
 11  8 22  2 20 30.0000000  0  9G25G10G15G26G12G05G30G29G02
 113646276.302 8  88555591.869 7  21626169.352                    21626179.719
 126835436.170 6  98832904.22643  24135959.063                    24135967.875
 126813413.652 6  98815804.047 5  24131811.914                    24131822.031
 122086948.820 7  95132781.54544  23232375.375                    23232384.957
 114549733.619 7  89259593.771 7  21798091.227                    21798099.477
 107962510.568 8  84126698.054 8  20544560.648                    20544568.379
 114540562.389 7  89252466.41845  21796348.422                    21796357.246
 116654478.099 7  90899724.549 7  22198632.180                    22198640.898
 114689085.153 7  89368256.65845  21824590.180                    21824596.613
 11  8 22  2 21  0.0000000  0  9G25G10G15G26G12G05G30G29G02
 113661616.357 8  88567545.160 7  21629088.008                    21629099.039
 126943146.024 6  98916833.98843  24156455.461                    24156464.313
 126717721.849 7  98741239.163 6  24113602.305                    24113612.543
 121995249.172 7  95061327.33644  23214925.867                    23214935.168
 114622108.799 7  89315989.993 7  21811863.359                    21811872.051
 108001475.260 8  84157060.157 8  20551975.609                    20551983.184
 114569308.699 8  89274866.13145  21801818.805                    21801827.617
 116575529.115 7  90838205.920 7  22183608.602                    22183617.395
 114729628.033 7  89399848.52845  21832305.180                    21832311.520
 11  8 22  2 21 30.0000000  0  9G25G10G15G26G12G05G30G29G02
 113677511.946 8  88579931.334 7  21632112.820                    21632123.934
 127050945.461 6  99000833.51943  24176969.313                    24176977.809
 126621971.014 7  98666628.307 6  24095381.414                    24095391.840
 121903707.216 7  94989995.99144  23197505.461                    23197515.125
 114694844.315 7  89372666.989 7  21825704.813                    21825713.262
 108040909.480 8  84187788.123 8  20559479.430                    20559487.102
 114598595.113 8  89297686.71145  21807391.883                    21807400.391
 116496708.008 7  90776786.936 7  22168609.406                    22168618.332
 114770255.040 7  89431505.94545  21840036.016                    21840042.184
 11  8 22  2 22  0.0000000  0  9G25G10G15G26G12G05G30G29G02
 113693962.156 8  88592749.671 7  21635243.477                    21635254.051
 127158831.939 6  99084900.94743  24197498.867                    24197507.438
 126526163.639 7  98591973.331 6  24077149.852                    24077160.488
 121812326.370 7  94918790.17644  23180116.594                    23180125.746
 114767937.717 7  89429622.869 7  21839614.391                    21839622.457
 108080811.258 8  84218880.432 8  20567072.695                    20567079.777
 114628420.122 7  89320926.97245  21813067.547                    21813075.863
 116418016.996 7  90715469.312 7  22153635.641                    22153643.984
 114810966.190 7  89463228.92945  21847783.391                    21847789.582
 11  8 22  2 22 30.0000000  0  9G25G10G15G26G12G05G30G29G02
 113710965.549 8  88605999.072 7  21638479.141                    21638489.652
 127266802.736 6  99169033.96643  24218045.125                    24218053.418
 126430302.356 7  98517276.377 6  24058907.250                    24058918.004
 121721110.434 7  94847712.88044  23162758.719                    23162768.105
 114841385.727 7  89486855.063 7  21853590.781                    21853599.152
 108121178.213 8  84250335.200 8  20574754.031                    20574761.879
 114658781.551 8  89344585.21445  21818845.164                    21818853.082
 116339457.968 7  90654254.521 7  22138685.711                    22138694.484
 114851761.197 7  89495017.26545  21855546.477                    21855552.453
 11  8 22  2 23  0.0000000  0  9G25G10G15G26G12G05G30G29G02
 113728520.766 8  88619678.452 7  21641819.953                    21641830.598
 127374855.251 7  99253230.74643  24238606.383                    24238615.598
 126334389.868 7  98442539.495 6  24040655.891                    24040665.906
 121630062.755 7  94776766.68944  23145433.359                    23145442.457
 114915185.322 7  89544361.217 7  21867634.664                    21867642.445
 108162007.972 8  84282150.611 8  20582523.641                    20582530.980
 114689677.339 7  89368659.86045  21824723.813                    21824732.832
 116261032.859 7  90593144.096 7  22123762.023                    22123770.621
 114892640.176 7  89526871.03145  21863325.500                    21863331.500
 11  8 22  2 23 30.0000000  0  9G25G10G15G26G12G05G30G29G02
 113746626.799 8  88633787.044 7  21645265.125                    21645275.746
 127482987.149 7  99337489.39642  24259183.836                    24259192.063
 126238428.866 6  98367764.879 6  24022395.148                    24022405.480
 121539187.284 7  94705954.70344  23128140.047                    23128149.297
 114989333.966 7  89602139.360 7  21881744.828                    21881752.801
 108203298.819 8  84314325.301 8  20590381.195                    20590388.777
 114721105.824 7  89393149.58245  21830704.664                    21830713.375
 116182743.791 7  90532139.674 7  22108863.945                    22108872.703
 114933603.023 7  89558790.15845  21871120.313                    21871126.566
 11  8 22  2 24  0.0000000  0  9G25G10G15G26G12G05G30G29G02
 113765282.634 8  88648324.048 7  21648815.094                    21648826.074
 127591196.159 6  99421808.14643  24279774.852                    24279783.977
 126142422.737 7  98292955.029 6  24004125.523                    24004135.867
 121448487.563 7  94635279.66544  23110879.617                    23110889.152
 115063829.008 7  89660187.438 7  21895920.719                    21895928.594
 108245049.143 8  84346858.033 8  20598326.367                    20598333.555
 114753065.251 8  89418053.01545  21836786.445                    21836795.129
 116104593.066 7  90471243.049 7  22093992.172                    22094001.031
 114974649.928 8  89590774.77545  21878931.406                    21878937.191
 11  8 22  2 24 30.0000000  0  9G25G10G15G26G12G05G30G29G02
 113784486.551 8  88663288.126 7  21652469.625                    21652480.188
 127699479.814 6  99506184.99643  24300380.977                    24300389.449
 126046373.549 6  98218111.620 6  23985848.156                    23985858.156
 121357967.156 7  94564744.34144  23093654.703                    23093663.625
 115138667.191 7  89718502.876 7  21910162.031                    21910170.320
 108287256.095 8  84379746.572 7  20606357.398                    20606365.191
 114785553.167 7  89443368.27045  21842968.617                    21842977.582
 116026582.198 7  90410455.402 7  22079147.313                    22079155.922
 115015780.617 8  89622824.68645  21886758.219                    21886763.914
 11  8 22  2 25  0.0000000  0  9G25G10G15G26G12G05G30G29G02
 113804237.369 8  88678678.372 7  21656228.117                    21656238.410
 127807835.479 6  99590618.02443  24321000.602                    24321009.262
 125950284.078 6  98143236.842 6  23967562.695                    23967572.742
 121267629.622 7  94494351.51544  23076464.078                    23076473.086
 115213845.710 7  89777083.528 7  21924468.023                    21924476.086
 108329917.673 8  84412989.362 8  20614475.570                    20614483.633
 114818567.706 7  89469093.85945  21849251.297                    21849259.934
 115948713.555 7  90349778.575 7  22064329.508                    22064338.391
 115056995.522 7  89654940.20545  21894601.086                    21894607.352
 11  8 22  2 25 30.0000000  0  9G25G10G15G26G12G05G30G29G02
 113824533.953 8  88694493.884 7  21660090.609                    21660101.074
 127916260.561 6  99675105.07843  24341632.828                    24341642.398
 125854157.667 6  98068333.286 6  23949270.172                    23949280.535
 121177478.798 7  94424104.17644  23059308.914                    23059318.313
 115289361.780 7  89835927.195 7  21938838.148                    21938846.387
 108373032.121 7  84446585.048 8  20622680.328                    20622687.941
 114852107.077 8  89495228.42845  21855633.664                    21855642.098
 115870989.650 7  90289214.511 7  22049539.445                    22049547.523
 115098294.649 7  89687121.37745  21902460.281                    21902465.949
 11  8 22  2 26  0.0000000  0  9G25G10G15G26G12G05G30G29G02
 113845374.884 8  88710733.555 7  21664056.211                    21664067.184
 128024752.930 6  99759644.58243  24362278.008                    24362287.723
 125757996.671 6  97993402.773 6  23930970.930                    23930981.512
 121087518.285 7  94354005.13444  23042190.070                    23042198.844
 115365212.424 7  89895031.559 7  21953271.820                    21953280.480
 108416597.181 7  84480531.855 8  20630970.516                    20630978.215
 114886169.140 8  89521770.28445  21862115.109                    21862123.953
 115793412.129 7  90228764.532 7  22034776.445                    22034785.082
 115139677.820 7  89719368.02545  21910334.609                    21910340.930
 11  8 22  2 26 30.0000000  0  9G25G10G15G26G12G05G30G29G02
 113866758.964 8  88727396.462 7  21668125.656                    21668136.172
 128133310.232 6  99844234.67643  24382935.289                    24382945.145
 125661804.092 6  97918447.634 6  23912667.203                    23912676.836
 120997751.886 7  94284057.34744  23025108.023                    23025117.066
 115441394.914 7  89954394.513 7  21967768.945                    21967777.488
 108460610.917 7  84514828.280 8  20639345.844                    20639353.355
 114920751.976 8  89548717.93545  21868696.133                    21868704.805
 115715983.203 7  90168430.338 7  22020042.289                    22020050.773
 115181145.330 7  89751680.39445  21918226.344                    21918231.785
 11  8 22  2 27  0.0000000  0  9G25G10G15G26G12G05G30G29G02
 113888684.373 8  88744481.179 7  21672297.781                    21672308.645
 128241929.665 6  99928873.21243  24403605.828                    24403614.793
 125565582.533 6  97843469.912 6  23894356.320                    23894366.188
 120908182.693 7  94214263.23644  23008063.430                    23008072.566
 115517906.419 8  90014013.856 7  21982328.352                    21982336.980
 108505070.597 8  84549472.201 8  20647806.352                    20647813.828
 114955853.186 8  89576069.51945  21875375.273                    21875384.188
 115638704.991 7  90108213.598 7  22005336.305                    22005345.590
 115222696.981 8  89784058.32045  21926132.742                    21926138.996
 11  8 22  2 27 30.0000000  0  9G25G10G15G26G12G05G30G29G02
 113911149.966 8  88761986.823 7  21676572.789                    21676583.586
 128350608.985 6 100013558.41943  24424285.922                    24424295.902
 125469334.797 7  97768471.800 6  23876040.813                    23876050.922
 120818814.762 7  94144625.94244  22991056.672                    22991066.336
 115594743.578 7  90073886.951 7  21996950.078                    21996958.355
 108549974.558 8  84584462.305 7  20656351.266                    20656358.434
 114991470.872 8  89603823.54745  21882153.641                    21882162.328
 115561579.893 7  90048116.154 7  21990660.352                    21990669.094
 115264332.891 8  89816501.91245  21934055.922                    21934061.797
 11  8 22  2 28  0.0000000  0  9G25G10G15G26G12G05G30G29G02
 113934154.560 8  88779912.474 7  21680950.453                    21680961.336
 128459346.011 6 100098288.54043  24444977.852                    24444987.891
 125373063.997 7  97693455.683 6  23857720.922                    23857731.066
 120729651.918 7  94075148.45544  22974089.422                    22974099.133
 115671904.005 7  90134011.931 7  22011633.242                    22011641.605
 108595320.930 7  84619797.157 8  20664980.477                    20664987.883
 115027603.101 8  89631978.51545  21889028.992                    21889038.027
 115484610.237 7  89988139.849 7  21976012.977                    21976021.855
 115306053.449 7  89849011.46045  21941995.414                    21942000.988
 11  8 22  2 28 30.0000000  0  9G25G10G15G26G12G05G30G29G02
 113957696.156 8  88798256.562 7  21685430.242                    21685441.078
 128568138.068 6 100183061.52042  24465681.195                    24465690.258
 125276772.318 7  97618423.337 6  23839396.656                    23839406.727
 120640697.269 7  94005833.20144  22957162.508                    22957171.273
 115749384.169 7  90194386.064 7  22026377.578                    22026385.625
 108641106.612 8  84655474.331 7  20673693.188                    20673700.473
 115064247.316 8  89660532.42845  21896002.305                    21896011.074
 115407797.548 7  89928285.854 7  21961396.094                    21961404.883
 115347858.426 7  89881586.77245  21949950.344                    21949956.160
 11  8 22  2 29  0.0000000  0  9G25G10G15G26G12G05G30G29G02
 113981773.656 8  88817018.237 7  21690012.445                    21690023.266
 128676982.836 6 100267875.61543  24486392.406                    24486402.871
 125180463.173 7  97543377.348 6  23821070.375                    23821079.816
 120551955.024 7  93936683.45344  22940275.047                    22940284.410
 115827181.713 7  90255007.504 7  22041181.875                    22041190.258
 108687330.009 8  84691492.568 8  20682489.383                    20682497.176
 115101401.624 8  89689483.83045  21903072.766                    21903081.414
 115331144.376 7  89868556.149 7  21946809.859                    21946818.191
 115389748.127 7  89914228.11245  21957921.602                    21957927.781
 11  8 22  2 29 30.0000000  0 10G25G10G15G26G12G05G30G29G21G02
 114006385.347 8  88836196.185 7  21694695.750                    21694706.160
 128785877.742 6 100352728.78243  24507115.023                    24507124.664
 125084139.203 7  97468319.808 6  23802740.586                    23802750.273
 120463428.575 7  93867701.87044  22923429.148                    22923438.074
 115905293.230 8  90315873.604 7  22056046.031                    22056054.090
 108733988.568 8  84727849.904 8  20691367.891                    20691375.625
 115139063.783 8  89718830.95645  21910239.430                    21910248.387
 115254652.925 7  89808952.473 7  21932253.664                    21932261.941
 132345773.94716 103126708.36753  25184585.102                    25184595.586
 115431722.341 7  89946935.30645  21965909.125                    21965915.090
 11  8 22  2 30  0.0000000  0 10G25G10G15G26G12G05G30G29G21G02
 114031530.296 8  88855789.633 7  21699480.656                    21699491.309
 128894822.36316 100437620.90353  24527846.406                    24527856.270
 124987803.738 7  97393253.321 6  23784408.328                    23784417.500
 120375122.306 7  93798891.82944  22906625.375                    22906634.363
 115983716.680 7  90376982.761 7  22070969.758                    22070977.457
 108781081.211 8  84764545.490 8  20700329.469                    20700337.230
 115177232.125 7  89748572.50245  21917502.734                    21917511.504
 115178325.723 7  89749476.786 7  21917729.672                    21917737.910
 132289479.442 6 103082842.54643  25173873.297                    25173882.918
 115473782.062 7  89979709.12745  21973912.594                    21973918.879
 11  8 22  2 30 30.0000000  0 10G25G10G15G26G12G05G30G29G21G02
 114057206.499 8  88875797.063 7  21704366.602                    21704377.008
 129003811.805 6 100522547.74343  24548586.352                    24548595.539
 124891459.305 7  97318179.839 6  23766074.688                    23766083.734
 120287039.012 7  93730255.56444  22889863.133                    22889872.586
 116062448.393 7  90438332.131 7  22085951.500                    22085959.984
 108828604.776 8  84801576.859 8  20709372.828                    20709380.598
 115215904.032 8  89778706.44645  21924861.539                    21924870.695
 115102164.419 7  89690130.373 7  21903236.195                    21903244.469
 132233194.757 6 103038984.42643  25163162.188                    25163172.348
 115515926.299 7  90012548.79445  21981932.523                    21981938.582
 11  8 22  2 31  0.0000000  0 10G25G10G15G26G12G05G30G29G21G02
 114083412.625 8  88896217.419 7  21709353.406                    21709364.258
 129112844.629 6 100607508.34543  24569334.813                    24569344.000
 124795108.757 6  97243101.596 6  23747738.648                    23747748.703
 120199182.866 7  93661796.29044  22873144.734                    22873153.656
 116141485.655 7  90499919.568 7  22100992.039                    22101000.098
 108876557.520 8  84838942.647 8  20718497.492                    20718505.500
 115255077.434 7  89809231.15845  21932316.359                    21932325.203
 115026171.417 8  89630915.104 7  21888775.305                    21888783.656
 132176919.846 6 102995133.94443  25152452.953                    25152463.094
 115558156.031 7  90045455.07645  21989968.547                    21989974.719
 11  8 22  2 31 30.0000000  0 10G25G10G15G26G12G05G30G29G21G02
 114110147.220 8  88917049.569 7  21714440.828                    21714451.836
 129221919.05116 100692501.36953  24590091.234                    24590100.074
 124698755.242 6  97168021.048 6  23729404.094                    23729412.781
 120111557.859 7  93593517.11344  22856470.219                    22856479.457
 116220825.778 8  90561743.029 7  22116089.938                    22116098.234
 108924936.994 8  84876640.954 7  20727704.305                    20727711.711
 115294750.306 7  89840145.07745  21939865.703                    21939874.941
 114950349.197 7  89571832.913 7  21874346.375                    21874354.434
 132120654.159 6 102951290.57743  25141746.305                    25141755.430
 115600471.319 7  90078428.02545  21998020.672                    21998027.008
 11  8 22  2 32  0.0000000  0  9G25G15G26G12G05G30G29G21G02
 114137409.096 8  88938292.587 7  21719628.625                    21719639.867
 124602402.174 6  97092940.856 6  23711067.664                    23711077.660
 120024167.882 7  93525421.07344  22839839.891                    22839849.461
 116300466.496 8  90623800.709 7  22131245.258                    22131253.559
 108973741.697 8  84914670.608 8  20736991.484                    20736999.094
 115334920.716 8  89871446.68145  21947509.828                    21947518.559
 114874700.533 8  89512885.954 7  21859950.969                    21859959.648
 132064397.568 6 102907454.31343  25131040.109                    25131050.734
 115642872.859 7  90111468.17545  22006089.781                    22006095.625
 11  8 22  2 32 30.0000000  0  9G25G15G26G12G05G30G29G21G02
 114165195.672 8  88959944.456 7  21724916.172                    21724926.770
 124506051.382 7  97017862.438 6  23692733.539                    23692742.723
 119937015.557 7  93457510.23344  22823256.219                    22823264.836
 116380403.333 8  90686089.128 7  22146456.820                    22146465.199
 109022968.419 8  84953029.103 7  20746358.680                    20746366.199
 115375585.422 7  89903133.45345  21955248.242                    21955256.855
 114799226.528 8  89454075.095 7  21845588.852                    21845597.016
 132008148.615 6 102863624.04842  25120336.969                    25120346.949
 115685359.569 7  90144574.68445  22014174.273                    22014180.707
 11  8 22  2 33  0.0000000  0  9G25G15G26G12G05G30G29G21G02
 114193504.978 8  88982003.648 7  21730303.328                    21730313.887
 124409705.568 7  96942787.903 6  23674399.344                    23674408.883
 119850104.680 7  93389787.52844  22806717.617                    22806726.449
 116460633.129 8  90748605.839 7  22161723.570                    22161732.125
 109072614.493 8  84991714.373 8  20755806.227                    20755814.055
 115416741.904 7  89935203.42845  21963080.227                    21963089.145
 114723928.996 7  89395401.752 7  21831260.102                    21831268.461
 131951906.356 6 102819798.98342  25109634.430                    25109643.945
 115727931.496 8  90177747.60545  22022275.117                    22022281.816
 11  8 22  2 33 30.0000000  0  9G25G15G26G12G05G30G29G21G02
 114222335.874 8  89004469.294 7  21735789.570                    21735800.328
 124313367.775 6  96867719.621 6  23656066.531                    23656075.723
 119763438.853 7  93322255.76044  22790225.000                    22790234.047
 116541153.577 7  90811349.014 7  22177046.391                    22177055.000
 109122678.205 8  85030725.063 8  20765332.836                    20765340.703
 115458388.286 7  89967655.15545  21971004.656                    21971013.961
 114648810.764 8  89336868.117 7  21816965.906                    21816973.840
 131895670.473 6 102775978.82343  25098932.500                    25098942.672
 115770589.342 7  90210987.46745  22030393.172                    22030399.633
 11  8 22  2 34  0.0000000  0  9G25G15G26G12G05G30G29G21G02
 114251685.854 8  89027339.411 7  21741374.656                    21741385.723
 124217040.704 7  96792659.694 6  23637736.438                    23637746.258
 119677021.401 7  93254917.54744  22773780.242                    22773789.563
 116621960.882 7  90874315.738 7  22192423.547                    22192431.750
 109173156.270 8  85070058.641 8  20774938.688                    20774946.031
 115500521.519 7  90000486.22045  21979022.586                    21979031.332
 114573873.834 8  89278475.750 7  21802705.258                    21802713.746
 131839439.943 6 102732162.91142  25088232.172                    25088242.512
 115813332.237 7  90244293.61045  22038527.172                    22038533.410
 11  8 22  2 34 30.0000000  0  9G25G15G26G12G05G30G29G21G02
 114281554.044 8  89050613.321 7  21747058.305                    21747069.184
 124120727.697 7  96717610.730 6  23619408.219                    23619417.770
 119590856.838 7  93187776.39444  22757383.711                    22757392.594
 116703052.994 8  90937504.383 7  22207855.078                    22207862.809
 109224047.630 8  85109714.253 8  20784623.219                    20784630.527
 115543140.060 8  90033695.46945  21987133.195                    21987141.547
 114499120.131 7  89220226.161 7  21788480.609                    21788488.824
 131783214.983 5 102688351.29942  25077533.484                    25077542.918
 115856161.535 7  90277667.06145  22046677.383                    22046683.363
 11  8 22  2 35  0.0000000  0  9G25G15G26G12G05G30G29G21G02
 114311938.447 8  89074289.476 7  21752840.594                    21752851.359
 124024431.518 6  96642574.871 6  23601083.930                    23601093.141
 119504948.459 7  93120834.84844  22741036.039                    22741045.293
 116784426.503 7  91000912.286 7  22223339.352                    22223348.023
 109275349.677 8  85149689.882 8  20794385.500                    20794393.129
 115586241.197 7  90067280.76945  21995334.828                    21995343.367
 114424552.341 7  89162121.437 7  21774290.266                    21774298.594
 131726994.898 6 102644543.46342  25066834.820                    25066844.902
 115899076.855 7  90311107.55245  22054843.625                    22054849.961
 11  8 22  2 35 30.0000000  0  9G25G15G26G12G05G30G29G21G02
 114342836.876 8  89098366.179 7  21758720.156                    21758730.539
 123928154.972 7  96567554.326 6  23582762.641                    23582772.848
 119419299.542 7  93054095.48444  22724737.719                    22724746.691
 116866077.976 7  91064536.779 7  22238877.547                    22238885.949
 109327059.629 8  85189983.371 7  20804225.828                    20804232.840
 115629822.192 7  90101239.97145  22003628.086                    22003637.117
 114350172.536 7  89104163.193 7  21760136.523                    21760144.613
 131670778.422 5 102600738.46942  25056137.609                    25056146.711
 115942078.199 7  90344615.07345  22063026.914                    22063032.820
 11  8 22  2 36  0.0000000  0  9G25G15G26G12G05G30G29G21G02
 114374248.104 8  89122842.460 7  21764697.555                    21764708.328
 123831900.919 7  96492551.275 6  23564446.039                    23564455.004
 119333914.420 7  92987561.65744  22708489.820                    22708498.047
 116948005.087 7  91128376.077 7  22254467.836                    22254476.234
 109379175.696 8  85230593.303 7  20814142.742                    20814150.543
 115673881.236 7  90135571.69945  22012011.641                    22012020.855
 114275983.124 7  89046353.295 7  21746018.500                    21746026.879
 131614565.661 5 102556936.39942  25045439.789                    25045450.941
 115985166.060 7  90378190.01645  22071225.836                    22071231.949
 11  8 22  2 36 30.0000000  0  9G25G15G26G12G05G30G29G21G02
 114406170.291 8  89147716.894 7  21770772.016                    21770782.742
 123735672.501 7  96417568.202 6  23546134.180                    23546143.398
 119248796.766 7  92921236.28045  22692291.727                    22692301.047
 117030204.948 7  91192427.901 7  22270110.375                    22270118.566
 109431695.625 8  85271517.928 7  20824136.930                    20824144.418
 115718415.837 8  90170273.97245  22020486.773                    22020495.711
 114201986.663 8  88988693.763 7  21731937.398                    21731946.129
 131558355.932 6 102513136.65142  25034743.320                    25034753.852
 116028340.804 7  90411832.65645  22079441.711                    22079447.773
 11  8 22  2 37  0.0000000  0  9G25G15G26G12G05G30G29G21G02
 114438601.298 8  89172987.805 7  21776943.688                    21776954.547
 123639472.521 7  96342607.293 6  23527827.719                    23527837.496
 119163949.846 7  92855121.83544  22676145.305                    22676155.035
 117112673.868 7  91256689.368 7  22285803.203                    22285811.230
 109484616.610 8  85312755.071 7  20834207.469                    20834215.512
 115763423.181 7  90205344.61845  22029051.430                    22029059.711
 114128184.671 7  88931185.762 7  21717893.602                    21717901.480
 131502148.399 6 102469338.52142  25024047.906                    25024057.773
 116071602.075 7  90445542.71445  22087674.430                    22087680.535
 11  8 22  2 37 30.0000000  0  9G25G15G26G12G05G30G29G21G02
 114471539.574 8  89198653.998 7  21783211.445                    21783222.328
 123543304.361 7  96267671.138 6  23509528.344                    23509537.215
 119079377.728 7  92789221.54444  22660052.039                    22660061.559
 117195409.379 7  91321158.572 7  22301546.977                    22301556.020
 109537936.762 8  85354303.242 7  20844353.977                    20844361.738
 115808901.090 7  90240781.96245  22037705.523                    22037714.020
 114054579.775 8  88873831.347 7  21703887.172                    21703895.305
 131445942.668 6 102425541.88342  25013351.742                    25013362.465
 116114950.413 7  90479320.62945  22095923.711                    22095929.316
 11  8 22  2 38  0.0000000  0  9G25G15G26G12G05G30G29G21G02
 114504982.915 8  89224713.747 7  21789575.844                    21789586.453
 123447170.513 7  96192761.786 6  23491233.852                    23491243.234
 118995083.602 7  92723537.85244  22644012.000                    22644020.660
 117278407.935 7  91385832.752 7  22317341.102                    22317349.828
 109591653.207 8  85396160.224 7  20854575.484                    20854583.484
 115854846.860 7  90276583.85445  22046448.867                    22046457.766
 113981174.071 8  88816632.130 7  21689918.000                    21689926.586
 131389737.815 6 102381745.96743  25002657.016                    25002666.578
 116158385.839 7  90513166.39845  22104188.477                    22104194.863
 11  8 22  2 38 30.0000000  0  9G25G15G26G12G05G30G29G21G02
 114538929.367 8  89251165.524 7  21796035.523                    21796046.016
 123351073.848 7  96117881.308 6  23472947.359                    23472956.211
 118911071.158 7  92658073.66145  22628024.727                    22628034.004
 117361666.396 7  91450709.448 7  22333184.766                    22333193.563
 109645763.721 8  85438324.271 7  20864872.961                    20864880.648
 115901257.754 8  90312748.18745  22055280.523                    22055289.223
 113907969.772 8  88759589.867 7  21675987.633                    21675995.934
 131333533.525 6 102337950.45043  24991961.430                    24991971.293
 116201908.566 7  90547080.20345  22112470.688                    22112476.953
 11  8 22  2 39  0.0000000  0  9G25G15G26G12G05G30G29G21G02
 114573377.326 8  89278008.101 7  21802590.680                    21802601.543
 123255017.584 7  96043032.369 6  23454668.109                    23454677.844
 118827344.448 7  92592832.12645  22612091.703                    22612101.211
 117445182.563 7  91515786.964 7  22349077.656                    22349086.047
 109700266.518 8  85480793.987 7  20875244.516                    20875252.023
 115948131.732 7  90349273.36045  22064199.883                    22064208.621
 113834969.688 8  88702706.717 7  21662096.594                    21662104.711
 131277329.604 6 102294155.24643  24981265.836                    24981275.602
 116245518.985 7  90581062.35045  22120769.438                    22120775.301
 11  8 22  2 39 30.0000000  0  9G25G15G26G12G05G30G29G21G02
 114608324.975 8  89305240.026 7  21809241.070                    21809252.008
 123159004.895 7  95968217.386 6  23436397.656                    23436406.902
 118743907.178 7  92527816.11044  22596214.195                    22596223.176
 117528952.959 8  91581062.590 7  22365018.477                    22365027.074
 109755159.335 8  85523567.620 7  20885689.781                    20885697.414
 115995466.271 8  90386157.41445  22073207.641                    22073216.891
 113762175.886 8  88645984.323 7  21648244.188                    21648252.465
 131221125.148 6 102250359.57843  24970570.844                    24970580.191
 116289217.671 7  90615113.27645  22129085.164                    22129091.188
 11  8 22  2 40  0.0000000  0  9G25G15G26G12G05G30G29G21G02
 114643770.039 8  89332859.552 7  21815985.914                    21815996.730
 123063038.360 7  95893438.314 6  23418136.188                    23418144.727
 118660762.767 7  92463028.31145  22580392.320                    22580401.020
 117612974.514 7  91646533.908 7  22381007.289                    22381016.109
 109810439.038 8  85566642.720 7  20896209.672                    20896217.094
 116043258.613 7  90423398.20845  22082302.242                    22082311.051
 113689590.515 8  88589424.344 7  21634431.313                    21634439.836
 131164919.626 6 102206563.11743  24959875.320                    24959884.945
 116333004.171 7  90649232.63945  22137417.563                    22137423.465
 11  8 22  2 40 30.0000000  0  9G25G15G26G12G05G30G29G21G02
 114679710.405 8  89360865.032 7  21822825.164                    21822835.891
 122967121.008 7  95818697.615 6  23399883.398                    23399892.473
 118577914.710 7  92398471.41344  22564627.102                    22564635.547
 117697243.944 7  91712198.373 7  22397043.523                    22397051.621
 109866103.379 8  85610017.534 7  20906802.297                    20906809.613
 116091505.960 7  90460993.53845  22091483.320                    22091492.324
 113617215.642 8  88533028.387 7  21620659.336                    21620667.086
 131108712.378 6 102162765.31843  24949179.555                    24949188.914
 116376878.746 7  90683420.63545  22145766.469                    22145772.637
 11  8 22  2 41  0.0000000  0  9G25G15G26G12G05G30G29G21G02
 114716144.540 8  89389255.261 7  21829758.453                    21829769.168
 122871256.151 7  95743997.794 6  23381640.734                    23381649.816
 118495367.361 7  92334148.84844  22548918.867                    22548927.723
 117781758.643 7  91778053.958 7  22413125.805                    22413134.684
 109922150.364 8  85653690.513 7  20917467.203                    20917474.977
 116140206.271 7  90498941.82845  22100750.852                    22100759.594
 113545054.206 8  88476798.737 7  21606926.969                    21606935.223
 131052502.878 6 102118965.80843  24938483.445                    24938492.441
 116420841.885 7  90717677.63545  22154132.344                    22154138.609
 11  8 22  2 41 30.0000000  0  9G25G15G26G12G05G30G29G21G02
 114753070.549 8  89418028.772 7  21836784.992                    21836795.758
 122775446.956 7  95669341.362 6  23363408.375                    23363418.176
 118413124.256 7  92270063.35945  22533268.430                    22533276.949
 117866515.862 7  91844098.529 7  22429254.570                    22429263.125
 109978577.960 8  85697660.077 7  20928205.305                    20928212.895
 116189357.063 7  90537241.14445  22110103.594                    22110112.895
 113473108.505 8  88420737.205 7  21593236.711                    21593244.422
 130996290.942 6 102075164.36243  24927786.766                    24927795.980
 116464893.942 7  90752003.93645  22162515.188                    22162521.188
 11  8 22  2 42  0.0000000  0  9G25G15G26G12G05G30G29G21G02
 114790486.015 8  89447183.674 7  21843905.523                    21843915.738
 122679695.979 7  95594730.280 6  23345187.891                    23345197.348
 118331188.632 7  92206217.44844  22517676.477                    22517685.230
 117951512.242 7  91910329.459 7  22445428.813                    22445437.270
 110035383.405 8  85741924.063 7  20939014.883                    20939022.398
 116238955.243 7  90575889.06845  22119541.891                    22119550.648
 113401380.502 8  88364845.298 7  21579586.484                    21579594.723
 130940075.662 6 102031360.30243  24917088.367                    24917098.297
 116509035.289 7  90786399.80945  22170914.906                    22170921.082
 11  8 22  2 42 30.0000000  0  9G25G15G26G12G05G30G29G21G02
 114828388.744 8  89476718.267 7  21851117.813                    21851128.195
 122584006.079 7  95520166.788 6  23326978.305                    23326987.656
 118249564.164 7  92142614.01645  22502143.633                    22502152.617
 118036744.240 7  91976743.981 7  22461648.016                    22461656.211
 110092563.812 8  85786480.233 7  20949895.930                    20949903.383
 116288998.115 7  90614883.51545  22129065.008                    22129073.656
 113329872.399 8  88309124.757 7  21565979.336                    21565987.457
 130883856.320 6 101987553.09643  24906390.750                    24906400.055
 116553265.779 7  90820865.14745  22179331.461                    22179337.852
 11  8 22  2 43  0.0000000  0  9G25G15G26G12G05G30G29G21G02
 114866776.755 8  89506630.998 7  21858422.586                    21858433.176
 122488380.467 7  95445653.410 6  23308781.375                    23308790.352
 118168254.461 7  92079255.84145  22486671.008                    22486679.906
 118122208.873 7  92043339.776 7  22477911.195                    22477919.750
 110150116.812 8  85831326.729 7  20960847.813                    20960855.668
 116339483.169 7  90654222.51145  22138671.875                    22138681.109
 113258586.597 8  88253577.434 7  21552414.172                    21552421.875
 130827632.452 6 101943742.35143  24895690.984                    24895700.934
 116597585.645 7  90855400.13545  22187765.383                    22187771.852
 11  8 22  2 43 30.0000000  0  9G25G15G26G12G05G30G29G21G02
 114905648.184 8  89536920.429 7  21865819.586                    21865830.043
 122392822.315 7  95371192.599 6  23290597.813                    23290606.617
 118087263.506 7  92016146.04545  22471258.875                    22471267.957
 118207903.571 7  92110114.850 7  22494218.547                    22494227.227
 110208040.736 8  85876462.266 7  20971870.211                    20971878.160
 116390407.911 7  90693904.12845  22148362.586                    22148371.348
 113187525.689 8  88198205.354 7  21538891.297                    21538899.859
 130771403.830 6 101899927.89443  24884990.922                    24885001.695
 116641995.444 7  90890005.19045  22196216.109                    22196222.422
 11  8 22  2 44  0.0000000  0  9G25G15G26G12G05G30G29G21G02
 114945001.031 8  89567584.975 7  21873308.336                    21873319.121
 122297334.705 7  95296786.728 6  23272426.938                    23272436.055
 118006595.023 7  91953287.52044  22455907.930                    22455916.898
 118293825.500 7  92177066.988 7  22510568.625                    22510577.496
 110266333.255 8  85921885.004 7  20982963.484                    20982970.715
 116441769.823 7  90733926.38245  22158136.336                    22158145.043
 113116691.993 8  88143010.322 7  21525412.547                    21525420.684
 130715169.959 6 101856109.36343  24874289.523                    24874300.105
 116686495.431 7  90924680.52845  22204684.578                    22204690.531
 11  8 22  2 44 30.0000000  0  9G25G15G26G12G05G30G29G21G02
 114984832.896 8  89598622.790 7  21880887.961                    21880898.688
 122201920.603 7  95222438.154 6  23254269.922                    23254279.195
 117926252.412 7  91890682.91145  22440619.492                    22440628.305
 118379971.423 7  92244193.662 7  22526961.781                    22526970.352
 110324991.239 8  85967592.539 7  20994125.102                    20994132.820
 116493565.893 7  90774286.94445  22167992.688                    22168001.844
 113046087.604 8  88087993.966 7  21511976.297                    21511984.871
 130658929.814 6 101812286.01243  24863588.539                    24863597.590
 116731085.802 7  90959426.28345  22213170.016                    22213175.750
 11  8 22  2 45  0.0000000  0  9G25G15G26G12G05G30G29G21G02
 115025141.319 8  89630031.944 7  21888558.633                    21888569.492
 122106582.511 7  95148148.812 6  23236127.313                    23236136.664
 117846239.106 7  91828334.92045  22425393.430                    22425402.117
 118466337.233 7  92311491.678 7  22543396.789                    22543404.934
 110384012.225 8  86013582.904 7  21005356.797                    21005364.359
 116545793.169 7  90814983.51545  22177931.445                    22177940.160
 112975714.327 8  88033157.708 7  21498585.273                    21498593.426
 130602682.899 6 101768457.34443  24852884.570                    24852894.852
 116775766.418 7  90994242.37045  22221671.883                    22221678.180
 11  8 22  2 45 30.0000000  0  9G25G15G26G12G05G30G29G21G02
 115065924.332 8  89661810.915 7  21896319.086                    21896330.094
 122011323.693 7  95073921.254 6  23218000.328                    23218009.555
 117766558.587 7  91766246.23144  22410230.633                    22410238.785
 118552920.709 7  92378959.293 7  22559873.359                    22559881.813
 110443393.921 8  86059854.363 7  21016656.891                    21016664.375
 116598449.149 7  90856014.14045  22187951.523                    22187960.313
 112905575.155 8  87978503.863 7  21485237.680                    21485246.098
 130546428.714 6 101724623.00243  24842179.594                    24842188.926
 116820537.886 7  91029129.23945  22230191.531                    22230197.828
 11  8 22  2 46  0.0000000  0  9G25G15G26G12G05G30G29G21G02
 115107179.672 8  89693957.931 7  21904169.992                    21904180.617
 121916147.250 7  94999757.863 6  23199888.547                    23199897.816
 117687214.785 7  91704419.91745  22395131.922                    22395140.582
 118639718.349 7  92446593.809 7  22576390.367                    22576398.504
 110503133.896 8  86106404.988 7  21028024.789                    21028032.629
 116651530.969 7  90897376.58445  22198052.844                    22198061.633
 112835672.152 8  87924034.048 7  21471935.977                    21471944.145
 130490166.773 6 101680782.64242  24831472.563                    24831482.543
 116865400.257 7  91064086.94345  22238728.742                    22238735.078
 11  8 22  2 46 30.0000000  0  9G25G15G26G12G05G30G29G21G02
 115148905.475 8  89726471.533 7  21912110.023                    21912120.547
 121821056.603 7  94925661.343 6  23181793.500                    23181802.852
 117608211.663 7  91642859.07445  22380098.289                    22380106.969
 118726727.477 7  92514393.105 7  22592947.531                    22592956.141
 110563230.214 8  86153233.291 7  21039460.789                    21039468.598
 116705036.264 7  90939069.02245  22208234.352                    22208242.785
 112766008.015 8  87869750.359 7  21458679.367                    21458687.324
 130433896.566 6 101636935.89143  24820765.172                    24820775.230
 116910354.151 7  91099115.96245  22247283.430                    22247289.527
 11  8 22  2 47  0.0000000  0  9G25G15G26G12G05G30G29G21G02
 115191099.241 8  89759349.790 7  21920139.578                    21920150.207
 121726054.438 7  94851633.758 6  23163715.344                    23163724.504
 117529552.312 7  91581566.09945  22365129.656                    22365138.473
 118813944.835 7  92582354.675 7  22609544.688                    22609552.797
 110623679.826 8  86200336.888 7  21050964.055                    21050971.469
 116758961.974 7  90981089.03645  22218496.008                    22218505.258
 112696584.561 8  87815654.213 7  21445467.938                    21445476.266
 130377617.370 6 101593082.03543  24810055.758                    24810065.633
 116955399.583 7  91134216.30345  22255855.063                    22255861.488
 11  8 22  2 47 30.0000000  0  9G25G15G26G12G05G30G29G21G02
 115233758.759 8  89792590.976 7  21928256.992                    21928267.664
 121631143.644 7  94777677.367 6  23145654.602                    23145662.715
 117451240.694 7  91520544.09645  22350227.336                    22350235.891
 118901367.685 7  92650476.340 7  22626180.070                    22626188.918
 110684480.654 8  86247714.147 7  21062534.141                    21062541.715
 116813305.419 7  91023434.56545  22228837.461                    22228846.211
 112627404.559 8  87761747.773 7  21432303.797                    21432312.098
 130321329.005 6 101549221.11543  24799344.063                    24799353.566
 117000536.879 7  91169388.22745  22264444.461                    22264450.504
 11  8 22  2 48  0.0000000  0  9G25G15G26G12G05G30G29G21G02
 115276881.833 8  89826193.366 7  21936463.227                    21936474.383
 121536327.761 7  94703794.946 6  23127611.117                    23127620.258
 117373280.142 7  91459795.65445  22335392.258                    22335400.828
 118988992.783 7  92718755.613 7  22642855.008                    22642863.930
 110745630.227 8  86295363.166 7  21074169.938                    21074177.934
 116868063.812 7  91066103.42845  22239257.969                    22239266.516
 112558470.234 8  87708032.758 7  21419185.633                    21419193.891
 130265030.638 6 101505352.36443  24788630.906                    24788640.633
 117045766.465 7  91204632.05345  22273051.430                    22273057.477
 11  8 22  2 48 30.0000000  0  9G25G15G26G12G05G30G29G21G02
 115320466.438 8  89860155.396 7  21944757.063                    21944767.629
 121441609.977 7  94629988.930 6  23109587.180                    23109595.676
 117295674.683 7  91399323.89845  22320624.289                    22320632.930
 119076817.272 7  92787190.250 7  22659567.422                    22659575.965
 110807126.442 8  86343282.298 7  21085872.688                    21085880.648
 116923234.683 7  91109093.70445  22249756.086                    22249764.953
 112489784.239 8  87654511.245 7  21406115.234                    21406123.398
 130208721.968 6 101461475.58643  24777915.391                    24777924.824
 117091088.664 7  91239948.04645  22281675.836                    22281682.453
 11  8 22  2 49  0.0000000  0  9G25G15G26G12G05G30G29G21G02
 115364510.162 8  89894475.178 7  21953138.336                    21953148.797
 121346992.828 7  94556261.351 6  23091582.047                    23091590.852
 117218427.926 7  91339131.64845  22305924.492                    22305933.191
 119164838.009 7  92855777.822 7  22676317.234                    22676325.941
 110868966.650 8  86391469.470 7  21097640.172                    21097648.031
 116978815.078 7  91152403.09845  22260333.133                    22260341.824
 112421348.787 8  87601184.954 7  21393092.414                    21393100.523
 130152402.347 6 101417590.32043  24767198.125                    24767207.719
 117136503.982 7  91275336.59645  22290318.258                    22290324.277
 11  8 22  2 49 30.0000000  0  9G25G15G26G12G05G30G29G21G02
 115409010.454 8  89929150.724 7  21961606.398                    21961616.832
 121252479.582 7  94482614.747 6  23073596.555                    23073605.391
 117141543.033 7  91279221.38545  22291293.922                    22291303.070
 119253051.636 7  92924515.688 7  22693103.430                    22693112.520
 110931148.091 8  86439922.546 7  21109473.219                    21109480.613
 117034801.869 7  91196029.14945  22270986.891                    22270995.746
 112353165.906 8  87548055.470 7  21380117.602                    21380125.555
 130096071.122 6 101373695.96543  24756478.594                    24756486.875
 117182012.467 7  91310797.74045  22298978.500                    22298984.484
 11  8 22  2 50  0.0000000  0  9G25G15G26G12G05G30G29G21G02
 115453964.916 8  89964180.173 7  21970161.086                    21970171.566
 121158073.073 7  94409051.283 6  23055631.516                    23055640.113
 117065023.376 7  91219595.70345  22276732.617                    22276741.781
 119341454.737 7  92993401.181 7  22709926.164                    22709934.926
 110993668.122 8  86488639.447 7  21121370.375                    21121378.105
 117091192.226 7  91239969.67945  22281717.781                    22281726.680
 112285238.050 8  87495124.707 7  21367191.484                    21367199.375
 130039727.768 6 101329792.18643  24745756.742                    24745766.086
 117227614.395 7  91346331.69645  22307655.719                    22307662.035
 11  8 22  2 50 30.0000000  0  9G25G15G26G12G05G30G29G21G02
 115499371.175 8  89999561.672 7  21978801.625                    21978812.441
 121063776.406 7  94335573.421 6  23037687.516                    23037696.504
 116988872.918 7  91160257.72945  22262241.898                    22262250.582
 119430044.662 7  93062432.267 6  22726784.773                    22726792.918
 111056524.553 8  86537618.482 7  21133331.813                    21133339.273
 117147983.242 7  91284222.40645  22292524.234                    22292532.809
 112217567.499 8  87442394.435 7  21354313.977                    21354322.090
 129983372.041 6 101285878.72743  24735032.430                    24735041.574
 117273309.894 7  91381938.56545  22316351.289                    22316357.898
 11  8 22  2 51  0.0000000  0  9G25G15G26G12G05G30G29G21G02
 115545227.228 8  90035293.656 7  21987527.727                    21987538.410
 120969593.180 7  94262183.960 6  23019765.078                    23019773.836
 116913095.363 7  91101210.31345  22247822.109                    22247830.594
 119518818.619 7  93131606.748 6  22743677.555                    22743685.883
 111119715.102 8  86586857.874 7  21145356.352                    21145364.344
 117205172.508 7  91328785.47045  22303407.039                    22303416.184
 112150156.902 8  87389866.723 7  21341486.078                    21341494.594
 129927003.003 7 101241954.91343  24724305.820                    24724314.645
 117319099.813 7  91417618.99545  22325065.203                    22325071.480
 11  8 22  2 51 30.0000000  0  9G25G15G26G12G05G30G29G21G02
 115591530.651 8  90071374.238 7  21996339.000                    21996350.156
 120875526.107 7  94188885.019 6  23001865.031                    23001873.484
 116837694.173 7  91042456.18045  22233472.891                    22233482.215
 119607773.355 7  93200922.089 6  22760605.359                    22760613.680
 111183237.409 8  86636355.777 7  21157444.414                    21157451.980
 117262756.983 7  91373656.48345  22314365.102                    22314374.262
 112083008.610 8  87337543.403 7  21328708.492                    21328716.484
 129870620.453 6 101198020.57343  24713576.109                    24713585.234
 117364984.384 7  91453373.17545  22333796.406                    22333802.688
 11  8 22  2 52  0.0000000  0 10G25G18G15G26G12G05G30G29G21G02
 115638278.897 8  90107801.418 7  22005234.680                    22005245.699
 129749883.23216 101103938.98652  24690603.844                    24690614.496
 120781578.379 7  94115679.057 6  22983986.617                    22983995.891
 116762672.991 7  90983998.15445  22219197.227                    22219205.945
 119696905.637 7  93270375.774 6  22777566.203                    22777574.879
 111247088.871 8  86686110.167 7  21169594.781                    21169602.406
 117320733.732 7  91418833.15245  22325397.859                    22325406.723
 112016124.772 8  87285426.138 7  21315980.172                    21315988.813
 129814223.766 6 101154075.19543  24702844.844                    24702853.703
 117410963.697 7  91489201.18845  22342546.266                    22342552.676
 11  8 22  2 52 30.0000000  0 10G25G18G15G26G12G05G30G29G21G02
 115685469.082 8  90144572.990 7  22014214.398                    22014225.430
 129660099.633 6 101033977.87042  24673518.773                    24673529.805
 120687752.542 7  94042568.068 6  22966132.461                    22966141.133
 116688034.694 7  90925838.47345  22204994.117                    22205003.012
 119786211.936 7  93339965.070 7  22794561.188                    22794568.934
 111311266.292 8  86736118.547 7  21181807.469                    21181815.148
 117379099.322 7  91464312.83745  22336504.359                    22336512.910
 111949507.492 8  87233516.579 7  21303304.000                    21303311.906
 129757812.316 6 101110118.33443  24692109.977                    24692118.723
 117457037.690 7  91525102.98845  22351313.445                    22351319.734
 11  8 22  2 53  0.0000000  0 10G25G18G15G26G12G05G30G29G21G02
 115733099.006 8  90181687.203 7  22023278.500                    22023289.305
 129570478.279 6 100964143.21043  24656463.289                    24656474.996
 120594051.685 7  93969554.482 6  22948302.023                    22948310.938
 116613783.199 7  90867980.20445  22190863.852                    22190873.098
 119875689.472 7  93409687.790 7  22811587.922                    22811597.129
 111375767.793 8  86786379.463 7  21194081.625                    21194089.203
 117437851.139 7  91510093.45645  22347684.203                    22347693.574
 111883159.284 8  87181816.695 7  21290678.211                    21290686.387
 129701385.361 6 101066149.41143  24681371.992                    24681381.195
 117503206.928 7  91561078.99945  22360099.773                    22360105.594
 11  8 22  2 53 30.0000000  0 10G25G18G15G26G12G05G30G29G21G02
 115781166.462 8  90219142.342 7  22032425.289                    22032436.332
 129481021.139 6 100894436.49043  24639440.516                    24639451.270
 120500479.448 7  93896641.119 6  22930495.531                    22930503.934
 116539922.136 7  90810426.16645  22176809.172                    22176817.598
 119965335.400 7  93479541.722 7  22828647.539                    22828655.809
 111440590.833 8  86836890.921 7  21206416.695                    21206424.750
 117496986.469 7  91556172.92245  22358937.672                    22358946.570
 111817082.786 8  87130328.528 7  21278104.000                    21278112.051
 129644942.816 6 101022168.31243  24670631.141                    24670640.543
 117549472.060 7  91597129.74145  22368903.141                    22368910.109
 11  8 22  2 54  0.0000000  0 10G25G18G15G26G12G05G30G29G21G02
 115829669.110 8  90256936.599 7  22041655.313                    22041665.867
 129391729.343 6 100824858.55343  24622448.367                    24622459.734
 120407038.998 7  93823830.440 6  22912714.328                    22912723.336
 116466455.235 7  90753179.26145  22162829.023                    22162837.211
 120055146.469 7  93549524.335 7  22845737.367                    22845746.344
 111505733.336 8  86887651.310 7  21218813.023                    21218820.598
 117556502.497 7  91602549.03645  22370262.906                    22370272.047
 111751280.259 8  87079053.834 7  21265582.539                    21265590.254
 129588484.208 6 100978174.72343  24659887.320                    24659896.441
 117595833.449 7  91633255.46945  22377725.844                    22377732.164
 11  8 22  2 54 30.0000000  0 10G25G18G15G26G12G05G30G29G21G02
 115878604.685 8  90295068.201 7  22050967.383                    22050978.234
 129302604.463 6 100755410.67643  24605488.945                    24605500.301
 120313733.549 7  93751124.961 6  22894958.844                    22894967.617
 116393386.295 7  90696242.45345  22148924.102                    22148932.434
 120145120.340 7  93619633.801 7  22862859.258                    22862867.688
 111571193.087 8  86938658.925 7  21231269.672                    21231277.340
 117616396.583 7  91649219.74745  22381660.914                    22381669.055
 111685754.643 8  87027994.911 7  21253113.266                    21253121.371
 129532009.455 6 100934168.51143  24649140.844                    24649149.402
 117642291.519 7  91669456.54545  22386566.453                    22386572.578
 11  8 22  2 55  0.0000000  0 10G25G18G15G26G12G05G30G29G21G02
 115927970.285 8  90333534.899 7  22060361.438                    22060371.605
 129213647.473 6 100686093.57743  24588561.094                    24588571.906
 120220565.693 7  93678526.688 6  22877229.305                    22877238.434
 116320718.093 7  90639617.92245  22135095.875                    22135103.988
 120235253.105 7  93689867.097 7  22880010.688                    22880019.570
 111636966.917 8  86989911.256 7  21243786.445                    21243793.664
 117676665.243 7  91696182.33945  22393129.367                    22393137.977
 111620507.783 8  86977153.219 7  21240697.367                    21240705.559
 129475517.353 6 100890148.75943  24638390.664                    24638399.492
 117688846.426 7  91705733.07745  22395425.609                    22395431.574
 11  8 22  2 55 30.0000000  0 10G25G18G15G26G12G05G30G29G21G02
 115977763.549 8  90372334.824 7  22069836.445                    22069847.461
 129124859.893 6 100616908.61543  24571665.078                    24571675.340
 120127539.045 7  93606038.445 6  22859527.086                    22859535.785
 116248454.654 7  90583308.78845  22121344.680                    22121353.504
 120325542.200 7  93760222.186 7  22897191.938                    22897201.035
 111703052.625 8  87041406.624 7  21256361.594                    21256369.293
 117737305.734 7  91743434.66045  22404668.859                    22404677.844
 111555542.178 8  86926530.693 7  21228334.789                    21228342.625
 129419007.404 6 100846115.15643  24627636.930                    24627646.516
 117735498.713 7  91742085.49745  22404303.172                    22404309.453
 11  8 22  2 56  0.0000000  0 10G25G18G15G26G12G05G30G29G21G02
 116027981.923 8  90411465.995 7  22079392.586                    22079403.371
 129036242.792 6 100547856.49843  24554801.742                    24554812.691
 120034656.275 7  93533662.318 7  22841851.594                    22841860.531
 116176599.284 7  90527317.63445  22107671.203                    22107679.648
 120415984.391 7  93830696.592 6  22914402.711                    22914411.918
 111769447.723 8  87093143.071 7  21268996.289                    21269003.453
 117798315.046 7  91790974.37045  22416278.539                    22416287.367
 111490860.054 8  86876129.048 7  21216025.969                    21216034.168
 129362479.530 6 100802067.57143  24616880.305                    24616889.086
 117782248.649 7  91778514.00145  22413199.492                    22413205.555
 11  8 22  2 56 30.0000000  0 10G25G18G15G26G12G05G30G29G21G02
 116078622.573 8  90450926.238 7  22089029.219                    22089040.027
 128947797.608 6 100478938.32543  24537970.586                    24537981.617
 119941920.591 7  93461400.799 6  22824204.383                    22824213.559
 116105154.970 7  90471646.77145  22094075.367                    22094084.066
 120506576.000 7  93901287.422 7  22931642.023                    22931650.793
 111836149.459 8  87145118.465 7  21281689.063                    21281696.793
 117859689.920 7  91838798.92845  22427958.289                    22427967.039
 111426463.489 8  86825949.930 7  21203772.250                    21203780.117
 129305932.890 6 100758005.31843  24606118.906                    24606128.539
 117829096.277 7  91815018.63045  22422114.609                    22422120.426
 11  8 22  2 57  0.0000000  0 10G25G18G15G26G12G05G30G29G21G02
 116129683.386 8  90490713.853 7  22098745.773                    22098757.527
 128859525.486 6 100410155.03043  24521173.039                    24521184.063
 119849335.204 7  93389256.411 6  22806586.172                    22806594.770
 116034125.923 7  90416299.50345  22080559.125                    22080568.004
 120597314.549 7  93971992.758 7  22948908.961                    22948917.570
 111903155.664 8  87197331.097 7  21294440.125                    21294447.441
 117921427.813 7  91886906.36845  22439706.172                    22439715.496
 111362355.381 8  86775995.582 7  21191572.453                    21191580.418
 129249367.214 6 100713928.26343  24595355.289                    24595364.164
 117876042.436 7  91851600.05245  22431047.820                    22431053.965
 11  8 22  2 57 30.0000000  0 10G25G18G15G26G12G05G30G29G21G02
 116181161.285 8  90530826.484 7  22108542.102                    22108552.258
 128771427.539 6 100341507.43943  24504409.039                    24504419.246
 119756902.738 7  93317231.149 6  22788997.047                    22789005.641
 115963515.043 7  90361278.07345  22067122.648                    22067130.836
 120688196.599 7  94042809.902 7  22966203.555                    22966211.789
 111970463.584 8  87249778.839 7  21307248.125                    21307255.887
 117983525.175 7  91935293.90945  22451522.680                    22451531.637
 111298537.635 8  86726267.504 7  21179428.797                    21179436.586
 129192781.629 6 100669835.69143  24584586.805                    24584596.090
 117923087.317 7  91888258.38945  22440000.047                    22440006.262
 11  8 22  2 58  0.0000000  0 10G25G18G15G26G12G05G30G29G21G02
 116233054.386 8  90571262.652 7  22118416.914                    22118427.605
 128683505.595 6 100272997.02143  24487677.305                    24487688.234
 119664627.029 7  93245328.046 6  22771438.172                    22771446.063
 115893326.426 7  90306585.67645  22053765.719                    22053774.465
 120779219.856 7  94113737.090 6  22983524.555                    22983533.074
 112038071.436 8  87302460.293 7  21320113.375                    21320121.184
 118045979.743 7  91983959.80145  22463407.820                    22463416.688
 111235013.333 8  86676768.072 7  21167340.055                    21167347.777
 129136176.244 6 100625727.62643  24573815.797                    24573824.070
 117970231.356 7  91924993.99745  22448971.172                    22448977.594
 11  8 22  2 58 30.0000000  0 10G25G18G15G26G12G05G30G29G21G02
 116285360.064 8  90612020.295 7  22128370.500                    22128380.930
 128595760.631 6 100204624.49443  24470979.891                    24470990.336
 119572511.160 7  93173549.485 6  22753908.758                    22753916.953
 115823563.345 7  90252224.85545  22040490.008                    22040498.672
 120870381.158 7  94184771.842 7  23000872.477                    23000880.719
 112105976.606 8  87355373.424 7  21333035.531                    21333043.320
 118108788.408 7  92032901.59445  22475359.438                    22475368.668
 111171785.015 8  86627499.295 7  21155308.117                    21155315.871
 129079550.631 6 100581603.84743  24563039.703                    24563049.313
 118017475.017 7  91961807.23345  22457961.773                    22457967.676
 11  8 22  2 59  0.0000000  0 10G25G18G15G26G12G05G30G29G21G02
 116338075.420 8  90653097.180 7  22138401.820                    22138412.445
 128508193.778 6 100136390.74043  24454316.047                    24454326.375
 119480558.218 7  93101897.893 6  22736410.602                    22736418.918
 115754229.017 7  90198198.14645  22027296.797                    22027305.043
 120961676.815 7  94255911.301 6  23018245.055                    23018253.418
 112174176.209 8  87408515.983 7  21346013.328                    21346020.855
 118171947.947 7  92082116.81345  22487378.453                    22487387.629
 111108854.423 8  86578462.504 7  21143332.828                    21143340.828
 129022903.951 6 100537463.64443  24552260.547                    24552269.695
 118064818.669 7  91998698.38545  22466970.984                    22466976.594
 11  8 22  2 59 30.0000000  0 10G25G18G15G26G12G05G30G29G21G02
 116391197.535 8  90694491.024 7  22148510.953                    22148521.340
 128420805.848 6 100068296.41343  24437686.438                    24437697.320
 119388770.855 7  93030375.329 6  22718943.758                    22718952.219
 115685326.641 7  90144508.01845  22014184.563                    22014193.301
 121053103.760 7  94327153.057 6  23035642.953                    23035650.883
 112242667.516 8  87461885.842 7  21359047.109                    21359055.051
 118235454.956 7  92131602.77545  22499463.625                    22499472.430
 111046223.575 8  86529659.278 7  21131414.555                    21131422.477
 128966235.761 6 100493306.64843  24541476.227                    24541485.340
 118112262.353 7  92035667.48645  22475999.234                    22476005.480
 11  8 22  3  0  0.0000000  0 10G25G18G15G26G12G05G30G29G21G02
 116444724.270 8  90736200.150 7  22158696.156                    22158707.504
 128333598.678 6 100000342.96243  24421091.711                    24421102.473
 119297152.727 7  92958984.613 6  22701509.305                    22701517.730
 115616860.141 7  90091157.53645  22001155.953                    22001164.652
 121144659.362 7  94398495.070 6  23053065.344                    23053074.012
 112311448.791 8  87515481.649 7  21372135.555                    21372143.148
 118299306.999 7  92181357.60745  22511614.148                    22511623.035
 110983895.452 8  86481091.948 7  21119554.227                    21119561.969
 128909545.590 6 100449132.58243  24530688.461                    24530697.688
 118159806.938 7  92072715.21145  22485046.516                    22485053.035
 11  8 22  3  0 30.0000000  0 10G25G18G15G26G12G05G30G29G21G02
 116498652.645 8  90778222.235 7  22168958.883                    22168969.539
 128246573.334 6  99932531.19843  24404531.109                    24404541.844
 119205706.428 7  92887727.813 7  22684107.703                    22684116.141
 115548832.459 7  90038148.98745  21988210.516                    21988218.828
 121236340.644 7  94469934.997 6  23070511.492                    23070520.195
 112380516.985 8  87569301.032 7  21385279.102                    21385286.340
 118363500.547 7  92231378.54045  22523830.094                    22523839.008
 110921872.084 7  86432762.089 7  21107751.289                    21107758.969
 128852833.015 6 100404941.05143  24519897.141                    24519905.320
 118207452.392 7  92109841.53245  22494113.180                    22494119.238
 11  8 22  3  1  0.0000000  0 10G25G18G15G26G12G05G30G29G21G02
 116552980.089 8  90820555.290 7  22179296.844                    22179307.801
 128159731.094 6  99864862.11342  24388005.398                    24388015.105
 119114435.442 7  92816607.619 7  22666739.625                    22666748.215
 115481247.230 7  89985485.20245  21975349.203                    21975357.555
 121328143.874 7  94541469.951 6  23087981.320                    23087989.988
 112449869.698 8  87623342.119 7  21398476.125                    21398483.898
 118428032.699 7  92281663.31445  22536109.563                    22536118.891
 110860156.177 7  86384671.809 7  21096006.820                    21096015.117
 128796097.759 6 100360731.82943  24509099.852                    24509109.035
 118255199.275 7  92147046.88545  22503199.469                    22503205.375
 11  8 22  3  1 30.0000000  0 10G25G18G15G26G12G05G30G29G21G02
 116607703.712 8  90863197.045 7  22189710.375                    22189721.293
 128073072.762 6  99797336.28243  24371515.180                    24371524.867
 119023342.472 7  92745626.133 6  22649404.773                    22649413.195
 115414107.491 7  89933168.54645  21962573.234                    21962581.598
 121420066.075 7  94613097.594 7  23105473.305                    23105482.430
 112519504.461 8  87677602.981 7  21411727.359                    21411734.988
 118492900.252 7  92332209.43045  22548453.938                    22548463.215
 110798749.506 8  86336822.491 7  21084321.648                    21084329.414
 128739339.155 6 100316504.40643  24498300.125                    24498307.906
 118303047.709 7  92184331.37445  22512304.688                    22512310.500
 11  8 22  3  2  0.0000000  0 10G25G18G15G26G12G05G30G29G21G02
 116662821.286 8  90906145.789 7  22200198.852                    22200209.895
 127986599.809 6  99729954.87443  24355059.539                    24355069.594
 118932431.005 7  92674786.079 7  22632104.844                    22632113.895
 115347416.956 7  89881201.93945  21949882.633                    21949891.000
 121512104.658 7  94684815.947 6  23122987.883                    23122996.703
 112589419.053 8  87732081.880 7  21425031.359                    21425039.113
 118558100.437 7  92383014.75645  22560861.086                    22560870.078
 110737655.261 8  86289216.619 7  21072695.852                    21072703.828
 128682556.778 6 100272258.45243  24487494.516                    24487502.727
 118350998.643 7  92221695.73945  22521429.438                    22521435.555
 11  8 22  3  2 30.0000000  0 10G25G18G15G26G12G05G30G29G21G02
 116718329.858 8  90949399.208 7  22210761.711                    22210772.910
 127900313.381 6  99662718.84843  24338639.734                    24338650.035
 118841704.373 7  92604090.055 7  22614840.398                    22614849.004
 115281178.830 7  89829587.83645  21937277.953                    21937286.188
 121604256.265 7  94756622.383 6  23140523.617                    23140532.250
 112659610.900 8  87786776.837 7  21438388.828                    21438396.273
 118623630.044 7  92434076.75945  22573330.859                    22573339.977
 110676875.370 8  86241855.694 7  21061129.664                    21061137.316
 128625750.333 6 100227993.75643  24476684.711                    24476693.188
 118399052.035 7  92259139.92845  22530573.438                    22530579.605
 11  8 22  3  3  0.0000000  0 10G25G18G15G26G12G05G30G29G21G02
 116774226.767 7  90992955.211 7  22221398.703                    22221409.773
 127814214.744 6  99595629.12142  24322255.555                    24322265.605
 118751165.514 7  92533540.352 7  22597611.164                    22597619.895
 115215396.545 7  89778328.94645  21924759.898                    21924767.953
 121696518.333 7  94828514.869 6  23158080.945                    23158089.535
 112730077.625 8  87841685.978 7  21451797.805                    21451805.766
 118689485.932 7  92485393.01345  22585863.008                    22585871.281
 110616412.214 8  86194741.576 7  21049624.188                    21049631.418
 128568919.361 6 100183709.97243  24465868.977                    24465878.668
 118447208.394 7  92296664.33945  22539737.328                    22539743.469
 11  8 22  3  3 30.0000000  0 10G25G18G15G26G12G05G30G29G21G02
 116830508.856 7  91036811.369 7  22232108.922                    22232119.832
 127728304.807 6  99528686.39243  24305908.000                    24305917.094
 118660816.892 7  92463138.886 7  22580418.344                    22580427.414
 115150072.856 7  89727427.39345  21912329.281                    21912337.391
 121788887.068 7  94900490.483 6  23175657.719                    23175666.492
 112800816.197 8  87896806.947 7  21465259.234                    21465266.531
 118755664.682 7  92536960.84945  22598456.352                    22598465.676
 110556267.550 7  86147875.622 7  21038178.844                    21038186.656
 128512062.842 6 100139406.30643  24455049.883                    24455058.523
 118495468.047 7  92334269.25645  22548920.570                    22548926.910
 11  8 22  3  4  0.0000000  0 10G25G18G15G26G12G05G30G29G21G02
 116887174.114 7  91080966.080 7  22242891.883                    22242903.004
 127642585.419 6  99461892.21143  24289595.258                    24289604.922
 118570662.403 7  92392888.709 7  22563262.625                    22563271.199
 115085212.026 7  89676886.52345  21899986.281                    21899994.898
 121881360.191 7  94972547.432 6  23193254.555                    23193263.387
 112871824.771 8  87952138.305 7  21478771.727                    21478778.934
 118822163.904 7  92588778.38945  22611110.797                    22611119.996
 110496445.002 7  86101260.673 7  21026794.641                    21026802.512
 128455180.952 6 100095082.82043  24444226.344                    24444234.152
 118543831.885 7  92371955.34245  22558123.891                    22558130.531
 11  8 22  3  4 30.0000000  0 10G25G18G15G26G12G05G30G29G21G02
 116944219.559 7  91125417.064 7  22253747.453                    22253758.039
 127557057.253 6  99395247.05743  24273320.039                    24273329.840
 118480705.009 7  92322792.087 7  22546144.586                    22546153.051
 115020816.862 7  89626708.49245  21887732.664                    21887741.004
 121973934.610 7  95044683.309 6  23210871.852                    23210880.484
 112943100.666 8  88007677.952 7  21492335.148                    21492342.430
 118888980.215 7  92640843.01745  22623825.219                    22623834.492
 110436946.354 8  86054898.118 7  21015472.398                    21015480.480
 128398273.113 6 100050739.15943  24433396.820                    24433405.422
 118592300.094 7  92409722.75345  22567347.133                    22567353.688
 11  8 22  3  5  0.0000000  0 10G25G18G15G26G12G05G30G29G21G02
 117001642.355 7  91170162.082 7  22264674.320                    22264685.129
 127471721.284 6  99328751.63243  24257080.555                    24257090.547
 118390948.008 7  92252851.626 7  22529064.539                    22529073.059
 114956890.663 7  89576895.90545  21875567.695                    21875576.145
 122066607.075 6  95116895.585 6  23228506.383                    23228515.543
 113014641.748 8  88063424.259 7  21505948.727                    21505956.344
 118956110.479 7  92693152.27145  22636599.477                    22636608.895
 110377773.897 8  86008789.723 7  21004212.305                    21004220.180
 128341339.305 6 100006375.21943  24422562.219                    24422570.746
 118640872.762 7  92447571.56545  22576590.250                    22576596.438
 11  8 22  3  5 30.0000000  0 10G25G18G15G26G12G05G30G29G21G02
 117059439.734 7  91215198.975 7  22275673.172                    22275683.668
 127386578.879 6  99262407.04543  24240878.727                    24240888.441
 118301394.216 7  92183069.516 7  22512022.492                    22512030.891
 114893436.634 7  89527451.23745  21863492.844                    21863501.066
 122159374.016 7  95189181.490 7  23246159.055                    23246168.266
 113086445.204 8  88119375.010 7  21519612.578                    21519620.070
 119023551.521 7  92745703.70045  22649433.953                    22649442.500
 110318929.816 7  85962937.204 7  20993014.461                    20993022.441
 128284378.416 6  99961990.24143  24411722.828                    24411731.426
 118689550.659 7  92485502.38244  22585852.719                    22585859.680
 11  8 22  3  6  0.0000000  0 10G25G18G15G26G12G05G30G29G21G02
 117117609.202 7  91260525.814 7  22286742.422                    22286753.539
 127301631.183 6  99196214.16743  24224713.594                    24224723.059
 118212047.124 7  92113448.453 7  22495020.227                    22495028.672
 114830458.411 7  89478377.32545  21851508.359                    21851516.520
 122252233.163 7  95261539.225 6  23263829.617                    23263838.691
 113158508.951 8  88175528.566 7  21533325.484                    21533333.340
 119091300.528 7  92798495.11445  22662326.086                    22662334.766
 110260416.982 7  85917342.804 7  20981880.367                    20981887.957
 128227390.678 6  99917584.34643  24400878.250                    24400887.070
 118738334.255 7  92523515.53845  22595136.281                    22595142.863
 11  8 22  3  6 30.0000000  0 10G25G18G15G26G12G05G30G29G21G02
 117176147.814 7  91306140.295 7  22297881.789                    22297892.711
 127216879.465 6  99130174.02343  24208586.148                    24208595.395
 118122909.508 7  92043990.629 7  22478057.789                    22478066.367
 114767958.928 7  89429676.46045  21839614.914                    21839623.547
 122345181.437 7  95333966.433 6  23281517.805                    23281526.406
 113230830.311 8  88231882.867 7  21547088.234                    21547095.379
 119159354.190 7  92851523.89545  22675276.234                    22675285.262
 110202237.632 8  85872008.266 7  20970808.750                    20970816.992
 128170375.533 6  99873157.08043  24390028.453                    24390036.703
 118787223.810 7  92561611.25845  22604439.992                    22604446.047
 11  8 22  3  7  0.0000000  0 10G25G18G15G26G12G05G30G29G21G02
 117235052.608 7  91352040.122 7  22309091.477                    22309102.004
 127132324.719 6  99064287.35743  24192495.000                    24192505.203
 118033984.581 7  91974698.521 7  22461135.961                    22461144.938
 114705941.461 7  89381351.19245  21827813.500                    21827822.133
 122438215.538 7  95406460.504 6  23299221.125                    23299230.191
 113303406.796 8  88288435.971 7  21560898.930                    21560906.289
 119227709.303 7  92904787.56945  22688283.969                    22688292.828
 110144394.127 8  85826935.418 7  20959802.102                    20959809.355
 128113332.369 6  99828707.94643  24379173.859                    24379181.816
 118836219.890 7  92599790.00845  22613763.484                    22613769.730
 11  8 22  3  7 30.0000000  0 10G25G18G15G26G12G05G30G29G21G02
 117294320.812 7  91398223.113 7  22320369.563                    22320380.691
 127047967.848 6  98998554.89943  24176442.852                    24176452.824
 117945275.600 7  91905574.681 7  22444255.430                    22444263.402
 114644409.162 7  89333403.97045  21816103.945                    21816112.535
 122531332.538 7  95479019.188 6  23316940.961                    23316949.531
 113376235.922 8  88345185.921 7  21574757.680                    21574765.262
 119296362.666 7  92958283.67845  22701348.188                    22701357.160
 110086888.292 8  85782125.688 7  20948858.750                    20948866.457
 128056260.831 6  99784236.76743  24368313.227                    24368321.594
 118885322.737 7  92638051.93744  22623108.063                    22623114.008
 11  8 22  3  8  0.0000000  0 10G25G18G15G26G12G05G30G29G21G02
 117353949.172 7  91444686.754 7  22331716.398                    22331727.313
 126963809.593 6  98932977.23443  24160427.883                    24160437.469
 117856785.069 7  91836621.070 7  22427416.063                    22427424.363
 114583364.643 7  89285836.84345  21804487.984                    21804495.910
 122624528.953 7  95551639.753 6  23334675.461                    23334684.535
 113449314.923 8  88402130.597 7  21588664.594                    21588671.715
 119365310.766 7  93012009.43545  22714468.445                    22714477.355
 110029721.884 8  85737580.459 7  20937980.438                    20937987.922
 127999160.213 6  99739742.90043  24357447.508                    24357455.352
 118934532.335 7  92676397.04045  22632472.102                    22632477.820
 11  8 22  3  8 30.0000000  0 10G25G18G15G26G12G05G30G29G21G02
 117413935.535 7  91491429.354 7  22343131.328                    22343142.223
 126879851.459 6  98867555.48743  24144451.531                    24144460.578
 117768516.804 7  91767840.651 7  22410618.906                    22410627.363
 114522811.941 7  89238652.95045  21792964.734                    21792973.629
 122717802.412 7  95624320.351 6  23352425.055                    23352433.387
 113522641.941 8  88459268.526 7  21602618.102                    21602625.410
 119434551.079 7  93065962.90145  22727644.539                    22727653.297
 109972898.609 8  85693302.592 7  20927167.242                    20927174.688
 127942030.542 6  99695226.36243  24346576.297                    24346583.727
 118983849.899 7  92714826.28744  22641856.992                    22641862.719
 11  8 22  3  9  0.0000000  0 10G25G18G15G26G12G05G30G29G21G02
 117474276.827 7  91538448.544 7  22354613.828                    22354624.883
 126796094.907 6  98802290.80843  24128511.898                    24128522.277
 117680473.843 7  91699235.810 7  22393864.820                    22393873.387
 114462753.989 7  89191854.58045  21781536.641                    21781544.715
 122811149.583 7  95697058.402 6  23370188.398                    23370197.227
 113596214.145 8  88516597.507 7  21616618.250                    21616626.078
 119504080.275 7  93120141.48045  22740875.242                    22740884.879
 109916420.558 8  85649293.736 7  20916419.836                    20916427.555
 127884871.392 6  99650686.89843  24335698.758                    24335706.754
 119033275.688 7  92753339.87045  22651262.555                    22651267.824
 11  8 22  3  9 30.0000000  0 10G25G18G15G26G12G05G30G29G21G02
 117534970.344 7  91585742.178 7  22366163.523                    22366174.488
 126712540.691 6  98737183.77943  24112611.727                    24112622.148
 117592659.364 7  91630808.999 7  22377153.891                    22377162.988
 114403193.993 7  89145444.22745  21770202.609                    21770211.133
 122904567.937 7  95769851.888 6  23387965.078                    23387974.148
 113670029.407 8  88574115.873 7  21630664.758                    21630672.473
 119573895.282 7  93174542.75145  22754160.844                    22754169.941
 109860290.123 8  85605555.759 7  20905738.609                    20905745.824
 127827682.534 6  99606124.23643  24324815.797                    24324823.859
 119082810.064 7  92791938.06145  22660688.844                    22660694.449
 11  8 22  3 10  0.0000000  0 10G25G18G15G26G12G05G30G29G21G02
 117596013.018 7  91633307.882 7  22377779.328                    22377790.359
 126629189.918 6  98672235.30043  24096751.602                    24096761.094
 117505076.316 7  91562562.503 7  22360487.563                    22360496.199
 114344134.936 7  89099424.20445  21758963.953                    21758972.230
 122998054.083 7  95842698.222 6  23405755.156                    23405763.609
 113744085.213 8  88631821.682 7  21644757.555                    21644764.832
 119643992.794 7  93229164.16245  22767500.164                    22767509.027
 109804509.128 8  85562090.080 7  20895123.594                    20895131.598
 127770463.242 6  99561537.89443  24313927.586                    24313935.309
 119132453.402 7  92830621.15144  22670135.445                    22670141.484
 11  8 22  3 10 30.0000000  0 10G25G18G15G26G12G05G30G29G21G02
 117657402.001 7  91681143.441 7  22389461.242                    22389472.066
 126546043.343 6  98607445.90143  24080928.945                    24080938.930
 117417727.507 7  91494498.543 7  22343865.781                    22343874.277
 114285579.778 7  89053796.84045  21747821.398                    21747829.918
 123091604.882 6  95915594.917 6  23423556.648                    23423566.133
 113818379.125 8  88689713.025 7  21658895.070                    21658902.602
 119714369.630 7  93284003.24145  22780891.938                    22780901.805
 109749080.224 8  85518898.745 7  20884576.070                    20884583.750
 127713213.013 6  99516927.42943  24303032.703                    24303040.941
 119182206.458 7  92869389.77745  22679603.188                    22679609.203
 11  8 22  3 11  0.0000000  0 10G25G18G15G26G12G05G30G29G21G02
 117719134.721 7  91729246.856 7  22401209.086                    22401219.414
 126463102.530 7  98542816.85743  24065145.406                    24065155.328
 117330616.839 7  91426620.154 7  22327289.016                    22327297.465
 114227532.094 7  89008564.91145  21736774.930                    21736783.637
 123185217.881 6  95988540.098 6  23441370.867                    23441379.813
 113892908.905 8  88747788.167 7  21673077.516                    21673085.105
 119785022.987 7  93339057.78144  22794337.047                    22794346.391
 109694006.021 8  85475983.814 7  20874095.750                    20874103.754
 127655932.050 6  99472292.99243  24292132.594                    24292140.801
 119232069.422 7  92908244.01845  22689091.984                    22689097.789
 11  8 22  3 11 30.0000000  0 10G25G18G15G26G12G05G30G29G21G02
 117781207.808 7  91777615.487 7  22413021.797                    22413031.566
 126380368.387 6  98478348.87443  24049402.344                    24049411.570
 117243746.665 7  91358929.154 7  22310758.672                    22310766.617
 114169994.578 7  88963730.51145  21725825.875                    21725834.000
 123278889.558 6  96061531.013 6  23459196.219                    23459205.410
 113967671.604 8  88806044.811 7  21687304.641                    21687312.023
 119855949.171 7  93394324.93144  22807833.367                    22807842.777
 109639288.169 8  85433346.550 7  20863682.898                    20863690.730
 127598619.484 6  99427633.93844  24281226.531                    24281235.164
 119282042.570 7  92947184.13945  22698601.156                    22698607.414
 11  8 22  3 12  0.0000000  0 10G25G18G15G26G12G05G30G29G21G02
 117843618.527 7  91826247.223 7  22424897.398                    22424908.199
 126297841.416 6  98414042.28443  24033697.805                    24033706.555
 117157120.300 7  91291428.137 7  22294273.953                    22294282.258
 114112970.111 7  88919295.90145  21714974.477                    21714983.234
 123372617.404 6  96134565.686 6  23477031.984                    23477040.652
 114042665.055 8  88864481.250 7  21701575.203                    21701582.758
 119927145.093 7  93449802.25944  22821382.133                    22821391.301
 109584929.235 7  85390988.962 7  20853338.680                    20853346.520
 127541275.120 6  99382950.10843  24270314.258                    24270322.344
 119332126.502 7  92986210.57144  22708131.734                    22708138.023
 11  8 22  3 12 30.0000000  0 10G25G18G15G26G12G05G30G29G21G02
 117906364.089 7  91875139.856 7  22436837.156                    22436848.410
 126215522.991 6  98349898.24043  24018032.086                    24018042.121
 117070740.944 7  91224119.607 7  22277836.406                    22277844.664
 114056462.317 7  88875263.89645  21704221.289                    21704229.414
 123466398.047 7  96207641.499 6  23494877.781                    23494886.539
 114117886.946 8  88923095.704 7  21715889.602                    21715897.113
 119998607.750 7  93505487.43245  22834981.273                    22834990.148
 109530931.466 7  85348912.811 7  20843063.547                    20843071.254
 127483898.678 6  99338241.29843  24259395.680                    24259404.117
 119382321.720 7  93025323.73045  22717683.844                    22717689.914
 11  8 22  3 13  0.0000000  0 10G25G18G15G26G12G05G30G29G21G02
 117969441.622 7  91924291.173 7  22448840.930                    22448851.648
 126133414.187 6  98285917.53643  24002407.430                    24002417.109
 116984611.663 7  91157005.932 7  22261446.469                    22261454.863
 114000473.693 8  88831636.43145  21693566.992                    21693576.027
 123560228.835 7  96280756.397 6  23512733.125                    23512741.316
 114193334.999 8  88981886.375 7  21730246.672                    21730254.301
 120070333.981 7  93561377.99045  22848630.008                    22848639.164
 109477297.502 8  85307120.146 7  20832857.148                    20832864.883
 127426489.698 6  99293507.12543  24248470.656                    24248479.008
 119432628.710 7  93064523.97145  22727256.984                    22727262.719
 11  8 22  3 13 30.0000000  0 10G25G18G15G26G12G05G30G29G21G02
 118032848.112 7  91973698.829 7  22460906.477                    22460917.148
 126051515.921 6  98222100.91543  23986822.672                    23986832.207
 116898735.671 7  91090089.627 7  22245104.617                    22245113.180
 113945007.628 7  88788416.15645  21683011.969                    21683020.633
 123654106.340 7  96353907.684 6  23530597.789                    23530607.035
 114269006.673 8  89040851.288 7  21744646.852                    21744654.246
 120142320.529 7  93617471.38145  22862328.672                    22862337.820
 109424029.291 8  85265612.472 7  20822720.531                    20822728.449
 127369047.902 6  99248747.34444  24237540.344                    24237548.648
 119483047.945 7  93103811.70345  22736850.953                    22736857.066
 11  8 22  3 14  0.0000000  0 10G25G18G15G26G12G05G30G29G21G02
 118096580.484 7  92023360.399 7  22473034.430                    22473045.160
 125969829.117 6  98158449.00343  23971278.406                    23971287.508
 116813115.848 7  91023372.922 7  22228811.781                    22228819.953
 113890066.857 7  88745605.19745  21672557.313                    21672566.023
 123748027.835 7  96427093.246 6  23548470.414                    23548479.645
 114344899.252 8  89099988.363 7  21759088.672                    21759096.113
 120214564.020 7  93673765.00744  22876076.148                    22876085.195
 109371129.168 8  85224391.628 7  20812654.031                    20812661.973
 127311573.010 6  99203961.80743  24226602.695                    24226610.805
 119533579.774 7  93143187.15544  22746466.664                    22746472.406
 11  8 22  3 14 30.0000000  0 10G25G18G15G26G12G05G30G29G21G02
 118160636.124 7  92073273.878 7  22485223.758                    22485234.648
 125888354.897 6  98094962.75343  23955774.102                    23955783.012
 116727755.758 7  90956858.618 7  22212568.461                    22212576.641
 113835654.550 7  88703206.03345  21662202.563                    21662210.984
 123841990.668 7  96500311.013 6  23566351.141                    23566359.879
 114421010.872 8  89159296.108 7  21773572.406                    21773580.145
 120287061.612 7  93730256.61444  22889871.891                    22889881.027
 109318599.659 8  85183459.575 7  20802658.180                    20802665.691
 127254064.569 6  99159150.13144  24215659.250                    24215667.215
 119584224.802 7  93182650.81145  22756104.500                    22756110.754
 11  8 22  3 15  0.0000000  0 10G25G18G15G26G12G05G30G29G21G02
 118225011.630 7  92123436.594 7  22497474.359                    22497485.027
 125807093.951 6  98031642.68643  23940310.125                    23940319.852
 116642657.711 7  90890548.508 7  22196374.648                    22196383.094
 113781773.364 7  88661220.72245  21651949.797                    21651958.227
 123935991.432 7  96573558.366 6  23584237.930                    23584247.648
 114497338.603 8  89218772.250 7  21788096.703                    21788104.219
 120359809.570 7  93786943.31645  22903715.609                    22903724.551
 109266442.568 8  85142817.712 8  20792733.094                    20792740.656
 127196522.414 6  99114312.16143  24204709.172                    24204716.977
 119634983.174 7  93222202.76745  22765763.242                    22765769.727
 11  8 22  3 15 30.0000000  0 10G25G18G15G26G12G05G30G29G21G02
 118289704.318 7  92173846.465 7  22509784.797                    22509795.734
 125726047.330 6  97968489.65943  23924886.883                    23924896.836
 116557825.309 7  90824445.384 7  22180231.594                    22180239.789
 113728426.260 7  88619651.58145  21641797.844                    21641806.379
 124030027.410 7  96646833.129 6  23602132.867                    23602141.836
 114573880.436 8  89278415.225 7  21802662.195                    21802669.551
 120432805.079 7  93843822.92744  22917606.266                    22917614.855
 109214660.803 8  85102468.303 7  20782879.094                    20782886.652
 127138946.314 6  99069447.73343  24193752.391                    24193761.141
 119685855.677 7  93261843.68244  22775443.664                    22775450.051
 11  8 22  3 16  0.0000000  0 10G25G18G15G26G12G05G30G29G21G02
 118354711.456 7  92224501.349 7  22522155.320                    22522165.820
 125645216.197 6  97905504.50943  23909504.703                    23909515.184
 116473261.751 7  90758551.744 7  22164139.719                    22164148.121
 113675616.486 7  88578501.13245  21631748.602                    21631757.035
 124124095.791 6  96720133.152 6  23620033.211                    23620042.352
 114650634.053 8  89338223.229 7  21817268.000                    21817275.453
 120506045.085 7  93900893.02344  22931542.586                    22931552.902
 109163256.440 8  85062412.981 8  20773097.141                    20773105.137
 127081335.734 6  99024556.47343  24182789.922                    24182798.699
 119736842.794 7  93301573.88445  22785146.547                    22785153.332
